[[{"header":{"parameterUnit":"m.s-1","parameterCategory":1,"la1":30.6,"la2":29.2853,"lo1":-89.7004,"lo2":-87.6739,"dy":0.0162,"dx":0.0183,"nx":112,"ny":82,"refTime":"2023-06-06T06:00:00:Z","depth":0,"parameterNumber":2,"parameterNumberName":"U-component_of_WINDS"},"data":[0.0,0.0,0.0,0.0,0.0,0.0,0.0,0.0,0.0,0.0,0.0,0.0,0.0,0.0,0.0,0.0,0.0,0.0,0.0,0.0,0.0,0.0,0.0,0.0,0.0,0.0,0.0,0.0,0.0,0.0,0.0,0.0,0.0,0.0,0.0,0.0,0.0,0.0,0.0,0.0,0.0,0.0,0.0,0.0,0.0,0.0,0.0,0.0,0.0,0.0,0.0,0.0,0.0,0.0,0.0,0.0,0.0,0.0,0.0,0.0,0.0,0.0,0.0,0.0,0.0,0.0,0.0,0.0,0.0,0.0,0.0,0.0,0.0,0.0,0.0,0.0,0.0,0.0,0.0,0.0,0.0,0.0,0.0,0.0,0.0,0.0,0.0,0.0,0.0,0.0,-1.1392,-1.0702,-1.0082,-0.9026,-0.7534,-0.7197,-0.5419,-0.1335,0.0,0.0,0.0,0.0,0.0,0.0,0.0,0.0,0.0,0.0,0.0,0.0,0.0,0.0,0.0,0.0,0.0,0.0,0.0,0.0,0.0,0.0,0.0,0.0,0.0,0.0,0.0,0.0,0.0,0.0,0.0,0.0,0.0,0.0,0.0,0.0,0.0,0.0,0.0,0.0,0.0,0.0,0.0,0.0,0.0,0.0,0.0,0.0,0.0,0.0,0.0,0.0,0.0,0.0,0.0,0.0,0.0,0.0,0.0,0.0,0.0,0.0,0.0,0.0,0.0,0.0,0.0,0.0,0.0,0.0,0.0,0.0,0.0,0.0,0.0,0.0,0.0,0.0,0.0,0.0,0.0,0.0,0.0,0.0,0.0,0.0,0.0,0.0,0.0,0.0,0.0,0.0,0.0,0.0,0.0,0.0,0.0,0.0,0.0,0.0,0.0,0.0,0.0,0.0,-1.0712,-1.0611,-1.0524,-0.9913,-0.8707,-0.772,-0.676,-0.6094,0.0,0.0,0.0,0.0,0.0,0.0,0.0,0.0,0.0,0.0,0.0,0.0,0.0,0.0,0.0,0.0,0.0,0.0,0.0,0.0,0.0,0.0,0.0,0.0,0.0,0.0,0.0,0.0,0.0,0.0,0.0,0.0,0.0,0.0,0.0,0.0,0.0,0.0,0.0,0.0,0.0,0.0,0.0,0.0,0.0,0.0,0.0,0.0,0.0,0.0,0.0,0.0,0.0,0.0,0.0,0.0,0.0,0.0,0.0,0.0,0.0,0.0,0.0,0.0,0.0,0.0,0.0,0.0,0.0,0.0,0.0,0.0,0.0,0.0,0.0,0.0,0.0,0.0,0.0,0.0,0.0,0.0,0.0,0.0,0.0,0.0,0.0,0.0,0.0,0.0,0.0,0.0,0.0,0.0,0.0,0.0,0.0,0.0,0.0,0.0,0.0,0.0,0.0,-1.4105,-1.3981,-1.3406,-1.3322,-1.2644,-1.0864,-0.9639,-0.8424,-0.7221,-0.3827,0.0,0.0,0.0,0.0,0.0,0.0,0.0,0.0,0.0,0.0,0.0,0.0,0.0,0.0,0.0,0.0,0.0,0.0,0.0,0.0,0.0,0.0,0.0,0.0,0.0,0.0,0.0,0.0,0.0,0.0,0.0,0.0,0.0,0.0,0.0,0.0,0.0,0.0,0.0,0.0,0.0,0.0,0.0,0.0,0.0,0.0,0.0,0.0,0.0,0.0,0.0,0.0,0.0,0.0,0.0,0.0,0.0,0.0,0.0,0.0,0.0,0.0,0.0,0.0,0.0,0.0,0.0,0.0,0.0,0.0,0.0,0.0,0.0,0.0,0.0,0.0,0.0,0.0,0.0,0.0,0.0,0.0,0.0,0.0,0.0,0.0,0.0,0.0,0.0,0.0,0.0,0.0,0.0,0.0,0.0,0.0,0.0,0.0,0.0,0.0,0.0,0.0,-1.6764,-1.7009,-1.6191,-1.6108,-1.5184,-1.2911,-1.1884,-1.0144,-0.7264,-0.5422,0.0,0.0,0.0,0.0,0.0,0.0,0.0,0.0,0.0,0.0,0.0,0.0,0.0,0.0,0.0,0.0,0.0,0.0,0.0,0.0,0.0,0.0,0.0,0.0,0.0,0.0,0.0,0.0,0.0,0.0,0.0,0.0,0.0,0.0,0.0,0.0,0.0,0.0,0.0,0.0,0.0,0.0,0.0,0.0,0.0,0.0,0.0,0.0,0.0,0.0,0.0,0.0,0.0,0.0,0.0,0.0,0.0,0.0,0.0,0.0,0.0,0.0,0.0,0.0,0.0,0.0,0.0,0.0,0.0,0.0,0.0,0.0,0.0,0.0,0.0,0.0,0.0,0.0,0.0,0.0,0.0,0.0,0.0,0.0,0.0,0.0,0.0,0.0,0.0,0.0,0.0,0.0,0.0,0.0,0.0,0.0,0.0,0.0,0.0,0.0,0.0,0.0,-1.7253,-1.7253,-1.718,-1.7172,-1.6332,-1.4065,-1.3814,-1.1827,-0.7348,-0.6913,0.0,0.0,0.0,0.0,0.0,0.0,0.0,0.0,0.0,0.0,0.0,0.0,0.0,0.0,0.0,0.0,0.0,0.0,0.0,0.0,0.0,0.0,0.0,0.0,0.0,0.0,0.0,0.0,0.0,0.0,0.0,0.0,0.0,0.0,0.0,0.0,0.0,0.0,0.0,0.0,0.0,0.0,0.0,0.0,0.0,0.0,0.0,0.0,0.0,0.0,0.0,0.0,0.0,0.0,0.0,0.0,0.0,0.0,0.0,0.0,0.0,0.0,0.0,0.0,0.0,0.0,0.0,0.0,0.0,0.0,0.0,0.0,0.0,0.0,0.0,0.0,0.0,0.0,0.0,0.0,0.0,0.0,0.0,0.0,0.0,0.0,0.0,0.0,0.0,0.0,0.0,0.0,0.0,0.0,0.0,0.0,0.0,0.0,0.0,0.0,0.0,0.0,-1.8795,-1.9107,-1.839,-1.839,-1.7479,-1.526,-1.4406,-1.2614,-0.9456,0.0,0.0,0.0,0.0,0.0,0.0,0.0,0.0,0.0,0.0,0.0,0.0,0.0,0.0,0.0,0.0,0.0,0.0,0.0,0.0,0.0,0.0,0.0,0.0,0.0,0.0,0.0,0.0,0.0,0.0,0.0,0.0,0.0,0.0,0.0,0.0,0.0,0.0,0.0,0.0,0.0,0.0,0.0,0.0,0.0,0.0,0.0,0.0,0.0,0.0,0.0,0.0,0.0,0.0,0.0,0.0,0.0,0.0,0.0,0.0,0.0,0.0,0.0,0.0,0.0,0.0,0.0,0.0,0.0,0.0,0.0,0.0,0.0,0.0,0.0,0.0,0.0,0.0,0.0,0.0,0.0,0.0,0.0,0.0,0.0,0.0,0.0,0.0,0.0,0.0,0.0,0.0,0.0,0.0,0.0,0.0,0.0,0.0,0.0,0.0,0.0,0.0,-1.8831,-1.9899,-2.0323,-1.9599,-1.952,-1.8789,-1.6919,-1.5659,-1.3884,-1.1268,0.0,0.0,0.0,0.0,0.0,0.0,0.0,0.0,0.0,0.0,0.0,0.0,0.0,0.0,0.0,0.0,0.0,0.0,0.0,0.0,0.0,0.0,0.0,0.0,0.0,0.0,0.0,0.0,0.0,0.0,0.0,0.0,0.0,0.0,0.0,0.0,0.0,0.0,0.0,0.0,0.0,0.0,0.0,0.0,0.0,0.0,0.0,0.0,0.0,0.0,0.0,0.0,0.0,0.0,0.0,0.0,0.0,0.0,0.0,0.0,0.0,0.0,0.0,0.0,0.0,0.0,0.0,0.0,0.0,0.0,0.0,0.0,0.0,0.0,0.0,0.0,0.0,0.0,0.0,0.0,0.0,0.0,0.0,0.0,0.0,0.0,0.0,0.0,0.0,0.0,0.0,0.0,0.0,0.0,0.0,0.0,0.0,0.0,0.0,0.0,0.0,0.0,-1.9902,-2.0283,-2.0557,-2.0557,-2.0557,-2.0157,-1.9107,-1.798,-1.5883,0.0,0.0,0.0,0.0,0.0,0.0,0.0,0.0,0.0,0.0,0.0,0.0,0.0,0.0,0.0,0.0,0.0,0.0,0.0,0.0,0.0,0.0,0.0,0.0,0.0,0.0,0.0,0.0,0.0,0.0,0.0,0.0,0.0,0.0,0.0,0.0,0.0,0.0,0.0,0.0,0.0,0.0,0.0,0.0,0.0,0.0,0.0,0.0,0.0,0.0,0.0,0.0,0.0,0.0,0.0,0.0,0.0,0.0,0.0,0.0,0.0,0.0,0.0,0.0,0.0,0.0,0.0,0.0,0.0,0.0,0.0,0.0,0.0,0.0,0.0,0.0,0.0,0.0,0.0,0.0,0.0,0.0,0.0,0.0,0.0,0.0,0.0,0.0,0.0,0.0,0.0,0.0,0.0,0.0,0.0,0.0,0.0,0.0,0.0,0.0,0.0,0.0,0.0,-1.9014,-1.9394,-1.9668,-1.9668,-1.9932,-1.9631,-1.862,-1.7755,-1.6234,-1.362,0.0,0.0,0.0,0.0,0.0,0.0,0.0,0.0,0.0,0.0,0.0,0.0,0.0,0.0,0.0,0.0,0.0,0.0,0.0,0.0,0.0,0.0,0.0,0.0,0.0,0.0,0.0,0.0,0.0,0.0,0.0,0.0,0.0,0.0,0.0,0.0,0.0,0.0,0.0,0.0,0.0,0.0,0.0,0.0,0.0,0.0,0.0,0.0,0.0,0.0,0.0,0.0,0.0,0.0,0.0,0.0,0.0,0.0,0.0,0.0,0.0,0.0,0.0,0.0,0.0,0.0,0.0,0.0,0.0,0.0,0.0,0.0,0.0,0.0,0.0,0.0,0.0,0.0,0.0,0.0,0.0,0.0,0.0,0.0,0.0,0.0,0.0,0.0,0.0,0.0,0.0,0.0,0.0,0.0,0.0,0.0,0.0,0.0,0.0,0.0,0.0,0.0,-1.8633,-1.9014,-1.9287,-1.9287,-1.9512,-1.9428,-1.8965,-1.7778,-1.6338,-1.4781,0.0,0.0,0.0,0.0,0.0,0.0,0.0,0.0,0.0,0.0,0.0,0.0,0.0,0.0,0.0,0.0,0.0,0.0,0.0,0.0,0.0,0.0,0.0,0.0,0.0,0.0,0.0,0.0,0.0,0.0,0.0,0.0,0.0,0.0,0.0,0.0,0.0,0.0,0.0,0.0,0.0,0.0,0.0,0.0,0.0,0.0,0.0,0.0,0.0,0.0,0.0,0.0,0.0,0.0,0.0,0.0,0.0,0.0,0.0,0.0,0.0,0.0,0.0,0.0,0.0,0.0,0.0,0.0,0.0,0.0,0.0,0.0,0.0,0.0,0.0,0.0,0.0,0.0,0.0,0.0,0.0,0.0,0.0,0.0,0.0,0.0,0.0,0.0,0.0,0.0,0.0,0.0,0.0,0.0,0.0,0.0,0.0,0.0,0.0,0.0,0.0,0.0,-1.8774,-1.8997,-1.917,-1.917,-1.9209,-1.9385,-1.9766,-1.7956,-1.6452,-1.5769,0.0,0.0,0.0,0.0,0.0,0.0,0.0,0.0,0.0,0.0,0.0,0.0,0.0,0.0,0.0,0.0,0.0,0.0,0.0,0.0,0.0,0.0,0.0,0.0,0.0,0.0,0.0,0.0,0.0,0.0,0.0,0.0,0.0,0.0,0.0,0.0,0.0,0.0,0.0,0.0,0.0,0.0,0.0,0.0,0.0,0.0,0.0,0.0,0.0,0.0,0.0,0.0,0.0,0.0,0.0,0.0,0.0,0.0,0.0,0.0,-2.4253,-2.3514,0.0,0.0,0.0,0.0,0.0,0.0,0.0,0.0,0.0,0.0,0.0,0.0,0.0,0.0,0.0,0.0,0.0,0.0,0.0,0.0,0.0,0.0,0.0,0.0,0.0,0.0,0.0,0.0,0.0,0.0,0.0,0.0,0.0,0.0,0.0,0.0,0.0,0.0,0.0,0.0,-1.9189,-1.8614,-1.8281,-1.8281,-1.8574,-1.8809,-1.8906,-1.8018,-1.7209,-1.6523,-1.4367,0.0,0.0,0.0,0.0,0.0,0.0,0.0,0.0,0.0,0.0,0.0,0.0,0.0,0.0,0.0,0.0,0.0,0.0,0.0,0.0,0.0,0.0,0.0,0.0,0.0,0.0,0.0,0.0,0.0,0.0,0.0,0.0,0.0,0.0,0.0,0.0,0.0,0.0,0.0,0.0,0.0,0.0,0.0,0.0,0.0,0.0,0.0,0.0,0.0,0.0,0.0,0.0,0.0,0.0,0.0,0.0,0.0,0.0,0.0,-2.5545,-2.4909,0.0,0.0,0.0,0.0,0.0,0.0,0.0,0.0,0.0,0.0,0.0,0.0,0.0,0.0,0.0,0.0,0.0,0.0,0.0,0.0,0.0,0.0,0.0,0.0,0.0,0.0,0.0,0.0,0.0,0.0,0.0,0.0,0.0,0.0,0.0,0.0,0.0,0.0,0.0,0.0,-1.8721,-1.8269,-1.8008,-1.8008,-1.8203,-1.8418,-1.8553,-1.7814,-1.7129,-1.6484,-1.5004,0.0,0.0,0.0,0.0,0.0,0.0,0.0,0.0,0.0,0.0,0.0,0.0,0.0,0.0,0.0,0.0,0.0,0.0,0.0,0.0,0.0,0.0,0.0,0.0,0.0,0.0,0.0,0.0,0.0,0.0,0.0,0.0,0.0,0.0,0.0,0.0,0.0,0.0,0.0,0.0,0.0,0.0,0.0,0.0,0.0,0.0,0.0,0.0,0.0,0.0,0.0,0.0,0.0,-3.0524,-3.0072,-2.9254,-2.9254,-2.8748,-2.7855,-2.7229,-2.6782,-2.6533,-2.6533,0.0,0.0,0.0,0.0,0.0,0.0,0.0,0.0,0.0,0.0,0.0,0.0,0.0,0.0,0.0,0.0,0.0,0.0,0.0,0.0,0.0,0.0,-2.6533,-2.6533,-2.6445,-2.6314,-2.6314,0.0,0.0,0.0,0.0,0.0,0.0,0.0,0.0,0.0,0.0,0.0,-1.8529,-1.8202,-1.8008,-1.8008,-1.8008,-1.8154,-1.8496,-1.766,-1.6872,-1.6112,-1.5506,-1.4707,0.0,0.0,0.0,0.0,0.0,0.0,0.0,0.0,0.0,0.0,0.0,0.0,0.0,0.0,0.0,0.0,0.0,0.0,0.0,0.0,0.0,0.0,0.0,0.0,0.0,0.0,0.0,0.0,0.0,0.0,0.0,0.0,-3.2683,-3.2421,0.0,0.0,0.0,0.0,0.0,0.0,0.0,0.0,0.0,0.0,0.0,0.0,0.0,-3.2324,-3.2443,-3.1704,-3.1351,-3.1351,-3.1351,-3.0896,-3.0133,-3.0133,-2.9628,-2.8812,-2.8748,0.0,-2.6533,-2.6533,0.0,0.0,0.0,0.0,0.0,0.0,0.0,0.0,0.0,0.0,0.0,0.0,0.0,0.0,0.0,0.0,0.0,0.0,0.0,0.0,0.0,0.0,-2.6533,-2.6533,-2.6076,-2.5711,-2.5711,-2.5649,-2.546,-2.5008,-2.4354,-2.3879,0.0,0.0,0.0,0.0,0.0,0.0,-2.0204,-1.8911,-1.8008,-1.8008,-1.8008,-1.8037,-1.8086,-1.7949,-1.7259,-1.5741,-1.5593,-1.4919,-1.3621,-1.3681,0.0,0.0,0.0,0.0,0.0,0.0,0.0,0.0,0.0,0.0,0.0,0.0,0.0,0.0,0.0,0.0,0.0,0.0,0.0,0.0,0.0,0.0,0.0,0.0,0.0,0.0,0.0,0.0,0.0,-3.2387,-3.2947,-3.2748,-3.3591,-3.3829,0.0,0.0,0.0,0.0,0.0,0.0,0.0,0.0,0.0,-3.359,-3.2955,-3.2782,-3.3157,-3.2043,-3.1717,-3.2131,-3.1702,-3.1351,-3.097,-3.097,-3.0524,-2.9752,-2.9752,-2.9066,-2.7855,-2.7351,-2.7162,-2.7095,0.0,0.0,0.0,0.0,-2.6533,-2.6533,-2.6533,-2.6533,-2.6533,-2.6533,0.0,0.0,0.0,0.0,0.0,0.0,0.0,-2.6533,-2.6533,-2.6214,-2.5975,-2.5975,-2.5548,-2.5071,-2.477,-2.4695,-2.4632,-2.4406,-2.3904,-2.3514,-2.3514,-2.2219,0.0,0.0,0.0,-1.8721,-1.911,-1.8462,-1.8008,-1.8008,-1.8008,-1.8008,-1.8008,-1.8008,-1.7439,-1.6236,-1.5794,-1.5103,-1.3974,-1.3702,-1.3448,0.0,0.0,0.0,0.0,0.0,0.0,0.0,0.0,0.0,0.0,0.0,0.0,0.0,0.0,0.0,0.0,0.0,0.0,0.0,0.0,0.0,0.0,0.0,0.0,0.0,0.0,0.0,0.0,-3.2484,-3.2818,-3.2717,-3.3345,-3.3613,0.0,0.0,0.0,0.0,0.0,0.0,-3.3445,-3.3494,-3.3573,-3.3573,-3.3089,-3.3064,-3.3575,-3.2527,-3.2318,-3.2859,-3.23,-3.1932,-3.1747,-3.1799,-3.1364,-3.0584,-3.0584,-3.0269,-2.9566,-2.8247,-2.767,-2.7604,-2.6782,-2.6533,-2.6533,-2.6533,-2.6533,-2.6533,-2.6533,-2.6533,-2.6533,-2.6533,-2.6533,-2.6533,-2.6533,0.0,0.0,0.0,0.0,-2.6239,-2.6239,-2.5824,-2.5398,-2.5398,-2.4996,-2.4506,-2.4092,-2.3891,-2.3778,-2.3778,-2.3427,-2.3078,-2.3078,-2.1729,0.0,-2.091,-1.9243,-1.8076,-1.8269,-1.8134,-1.8008,-1.8008,-1.8008,-1.8008,-1.8008,-1.8008,-1.7579,-1.6636,-1.5905,-1.5096,-1.4238,-1.3717,-1.3487,-1.3641,0.0,0.0,0.0,0.0,0.0,0.0,0.0,0.0,0.0,0.0,0.0,0.0,0.0,0.0,0.0,0.0,0.0,0.0,0.0,0.0,0.0,0.0,0.0,0.0,0.0,0.0,0.0,0.0,0.0,-3.1897,-3.257,0.0,0.0,0.0,0.0,-3.3396,-3.3345,-3.3352,-3.3423,-3.3428,-3.3428,-3.3428,-3.3445,-3.3486,-3.3529,-3.3483,-3.3499,-3.356,-3.349,-3.3193,-3.2546,-3.2527,-3.216,-3.1409,-3.1409,-3.1409,-3.1161,-2.8748,-2.767,-2.7604,-2.6782,-2.6533,-2.6533,-2.6533,-2.6533,-2.6533,-2.6533,-2.6533,-2.6533,-2.6533,-2.6533,-2.6533,-2.6533,-2.6533,0.0,0.0,-2.6063,-2.5636,-2.5636,-2.5247,-2.4858,-2.4858,-2.4443,-2.4029,-2.4004,-2.3565,-2.3175,-2.3175,-2.309,-2.3078,-2.3078,0.0,-2.0846,-2.169,-1.9628,-1.8269,-1.911,-1.8529,-1.8008,-1.8008,-1.8008,-1.8008,-1.8008,-1.8008,-1.7579,-1.6636,-1.5745,-1.4913,-1.4231,-1.33,-1.306,-1.3552,-1.3572,0.0,0.0,0.0,0.0,0.0,0.0,0.0,0.0,0.0,0.0,0.0,0.0,0.0,0.0,0.0,0.0,0.0,0.0,0.0,0.0,0.0,0.0,0.0,0.0,0.0,0.0,0.0,0.0,-3.2663,-3.2406,0.0,-3.1998,-3.1986,-3.1998,-3.1998,-3.2412,-3.2667,-3.2696,-3.3134,-3.342,-3.342,-3.2991,-3.3,-3.3436,-3.2616,-3.2392,-3.2851,-3.2886,-3.2524,-3.1866,-3.2379,-3.2182,-3.1482,-3.1482,-3.1482,-3.1409,-2.995,-2.938,-2.9254,-2.7802,-2.7604,-2.7986,-2.6905,-2.7162,-2.792,-2.6837,-2.685,-2.7162,-2.6658,-2.6533,-2.6533,-2.6533,-2.6201,-2.59,-2.59,-2.5511,-2.5096,-2.5096,-2.4695,-2.4293,-2.4293,-2.3853,-2.3439,-2.3439,-2.3215,-2.3078,-2.3078,-2.3078,-2.2944,-2.2445,-2.1365,-2.0526,-2.0268,-1.8977,-1.8144,-1.8395,-1.8202,-1.8008,-1.8008,-1.8008,-1.8008,-1.8008,-1.8008,-1.7862,-1.7501,-1.6088,-1.5078,-1.4848,-1.4119,-1.3827,-1.398,-1.4381,-1.4388,0.0,0.0,0.0,0.0,0.0,0.0,0.0,0.0,0.0,0.0,0.0,0.0,0.0,0.0,0.0,0.0,0.0,0.0,0.0,0.0,0.0,0.0,0.0,0.0,0.0,-3.3014,-3.284,-3.3154,-3.2366,-3.1789,-3.1789,-3.1449,-3.119,-3.119,-3.1647,-3.1947,-3.1947,-3.2405,-3.265,-3.265,-3.2474,-3.2598,-3.3007,-3.2383,-3.2317,-3.2763,-3.2797,-3.243,-3.1758,-3.2089,-3.186,-3.1187,-3.1147,-3.118,-3.1138,-3.0808,-3.0703,-3.0524,-2.8812,-2.8298,-2.8427,-2.7284,-2.7417,-2.7986,-2.6905,-2.685,-2.7229,-2.6658,-2.6327,-2.6163,-2.6163,-2.5774,-2.5335,-2.5335,-2.4958,-2.4544,-2.4544,-2.413,-2.3703,-2.3703,-2.3414,-2.3078,-2.3078,-2.3078,-2.3078,-2.3078,-2.3078,-2.2823,-2.2075,-2.1175,-2.0333,-1.9431,-1.8596,-1.8008,-1.8008,-1.8008,-1.8008,-1.8008,-1.8008,-1.8008,-1.8008,-1.8008,-1.8008,-1.8008,-1.6507,-1.5649,-1.5649,-1.4961,-1.461,-1.4834,-1.552,-1.5652,-1.5137,0.0,0.0,0.0,0.0,0.0,0.0,0.0,0.0,0.0,0.0,0.0,0.0,0.0,0.0,0.0,0.0,0.0,0.0,0.0,0.0,0.0,0.0,0.0,-3.3842,-3.3447,-3.3214,-3.3214,-3.24,-3.1825,-3.1844,-3.1487,-3.123,-3.123,-3.123,-3.123,-3.119,-3.119,-3.119,-3.119,-3.1873,-3.2281,-3.2281,-3.2968,-3.3321,-3.3321,-3.3338,-3.2991,-3.2353,-3.1775,-3.1138,-3.0485,-3.0452,-3.0477,-3.0522,-3.1195,-3.1422,-3.1291,-2.9676,-2.8556,-2.7802,-2.7736,-2.7149,-2.6508,-2.6496,-2.6496,-2.6483,-2.6483,-2.6025,-2.5573,-2.5573,-2.5209,-2.4795,-2.4795,-2.4406,-2.3966,-2.3966,-2.3552,-2.3078,-2.3078,-2.3078,-2.3078,-2.3078,-2.3078,-2.3078,-2.3078,-2.3078,-2.2823,-2.2002,-2.1164,-2.0268,-1.9365,-1.8529,0.0,-1.8008,-1.8008,-1.8008,-1.8008,-1.8008,-1.8008,-1.8008,-1.8008,-1.8008,-1.8008,-1.7139,-1.6636,-1.6636,-1.5728,-1.5566,-1.6195,-1.6921,-1.6645,-1.5378,0.0,0.0,0.0,0.0,0.0,0.0,0.0,0.0,0.0,0.0,0.0,0.0,0.0,0.0,0.0,0.0,0.0,0.0,0.0,0.0,0.0,-3.4147,-3.4099,-3.3842,-3.3447,-3.3302,-3.3606,-3.2854,-3.2433,-3.2777,-3.2417,-3.2021,-3.166,-3.164,-3.1507,-3.123,-3.119,-3.119,-3.119,-3.1382,-3.1506,-3.1506,-3.1681,-3.1805,-3.1805,-3.2332,-3.2236,-3.1601,-3.1516,-3.115,-3.0454,-3.0053,-2.9834,-2.9849,-3.0043,-3.0118,-3.0097,-2.9968,-3.0133,-3.0208,-2.8363,-2.6891,-2.5958,-2.6543,-2.6101,-2.5272,-2.5272,-2.5172,-2.5034,-2.5034,-2.4657,-2.4217,-2.4217,-2.3816,-2.3376,-2.3376,-2.319,-2.3078,-2.3078,-2.3078,-2.3078,-2.3078,-2.3078,-2.3078,-2.3078,-2.3078,-2.2628,-2.1227,-2.0782,-2.0074,-1.8596,-1.8134,-1.8008,-1.8008,-1.8008,-1.8008,-1.8008,-1.8008,-1.8008,-1.8008,-1.8008,-1.8008,-1.8008,-1.7139,-1.6636,-1.6636,-1.6349,-1.6378,-1.6732,-1.6959,-1.6826,0.0,0.0,0.0,0.0,0.0,0.0,0.0,0.0,0.0,0.0,0.0,0.0,0.0,0.0,0.0,0.0,0.0,0.0,0.0,0.0,0.0,0.0,-3.4401,-3.4311,-3.4012,-3.3671,-3.355,-3.3762,-3.3196,-3.2921,-3.3184,-3.2777,-3.2316,-3.1861,-3.1986,-3.1897,-3.147,-3.1448,-3.1455,-3.1455,-3.1297,-3.119,-3.119,-3.119,-3.119,-3.1207,-3.163,-3.15,-3.0892,-3.0707,-3.0289,-2.9654,-2.9342,-2.916,-2.919,-2.946,-2.9579,-2.9654,0.0,0.0,0.0,0.0,-2.6887,-2.6229,-2.6419,-2.597,-2.5218,-2.4872,-2.4669,-2.4469,-2.4469,-2.4079,-2.364,-2.364,-2.3389,-2.3078,-2.3078,-2.3078,-2.3078,-2.3078,-2.3078,-2.3078,-2.3078,-2.3078,-2.3078,-2.3078,-2.3078,0.0,-2.091,-2.059,-2.0009,-1.8269,-1.8008,-1.8008,-1.8008,-1.8008,-1.8008,-1.8008,-1.8008,-1.8008,-1.8008,-1.8008,0.0,0.0,0.0,-1.7217,-1.7217,-1.7376,0.0,0.0,0.0,-1.7642,-1.6935,-1.8104,0.0,0.0,-1.9603,-2.0001,0.0,0.0,0.0,0.0,0.0,0.0,0.0,0.0,0.0,0.0,0.0,0.0,0.0,0.0,0.0,0.0,-3.4753,-3.4614,-3.4246,-3.4012,-3.3842,-3.3788,-3.3494,-3.3273,-3.3273,-3.2872,-3.2466,-3.1986,-3.2332,-3.2366,-3.188,-3.184,0.0,0.0,0.0,-3.119,-3.119,-3.119,-3.119,-3.119,-3.119,-3.0899,-3.0384,-2.9794,-2.9182,-2.859,-2.8596,-2.8524,-2.8532,-2.9116,-2.9355,-2.937,-2.952,-2.9042,-2.8211,-2.7402,-2.6992,-2.6699,-2.6047,0.0,0.0,-2.4798,-2.4305,-2.3904,-2.3904,-2.354,-2.3078,-2.3078,-2.3078,-2.3078,-2.3078,-2.3078,-2.3078,-2.3078,-2.3078,-2.3078,-2.3078,-2.3078,-2.3078,-2.3078,-2.3078,-2.2567,-2.091,-2.059,-2.0009,-1.8269,-1.8008,-1.8008,-1.8008,-1.8008,-1.8008,-1.8008,-1.8008,0.0,-1.8008,-1.8008,-1.8008,-1.8008,-1.8008,-1.8008,-1.8008,-1.8369,-1.7951,-1.6784,-1.8304,-1.8533,-1.7333,-1.8581,-1.9434,-1.9853,-2.0293,-2.0518,0.0,0.0,0.0,0.0,0.0,0.0,0.0,0.0,0.0,0.0,0.0,0.0,0.0,0.0,0.0,-3.4921,-3.5016,-3.4813,-3.4269,-3.4171,-3.4043,-3.3815,-3.3734,-3.368,-3.368,-3.3606,-3.339,-3.2965,-3.3014,-3.284,-3.2384,-3.2004,-3.1817,-3.1788,-3.1399,-3.119,-3.119,-3.119,-3.119,-3.119,-3.119,0.0,-3.1012,-3.0413,-2.9801,-2.9196,-2.8746,-2.824,-2.7784,-2.7904,-2.8015,-2.8068,-2.916,-2.9042,-2.8268,-2.814,-2.6934,-2.5428,-2.5308,-2.4525,-2.3621,-2.3464,-2.3389,-2.3301,-2.3301,-2.3165,0.0,-2.3078,-2.3078,-2.3078,-2.3078,-2.3078,-2.3078,-2.3078,-2.3078,-2.3078,-2.3078,-2.3078,-2.3078,-2.3078,-2.3078,-2.2567,-2.091,-2.059,-2.0009,-1.8269,-1.8008,-1.8008,-1.8008,-1.8008,-1.8008,-1.8008,-1.8008,-1.8008,-1.8008,-1.8008,-1.8008,-1.8008,-1.8008,-1.8008,-1.8008,-1.8086,-1.8018,-1.7725,-1.8095,-1.8309,-1.835,-1.8579,-1.8984,-1.9424,-1.9844,-2.0225,0.0,0.0,0.0,0.0,0.0,0.0,0.0,0.0,0.0,0.0,0.0,-3.2203,-3.3168,0.0,-3.4136,-3.4576,-3.4904,-3.4963,-3.451,-3.4445,-3.4284,-3.3842,-3.3807,-3.3807,-3.3807,-3.3807,-3.3634,-3.3243,-3.339,-3.3302,-3.2872,-3.2631,-3.2369,-3.2157,-3.1743,-3.1382,-3.119,-3.119,-3.119,-3.119,-3.119,-3.1033,-3.0712,-3.0109,-2.9688,-2.9361,-2.8448,-2.8042,-2.8042,-2.771,-2.7625,-2.7685,-2.8323,-2.8337,-2.7935,-2.7935,-2.7066,-2.574,-2.5398,-2.4575,-2.3649,-2.3245,-2.3078,-2.3078,-2.3078,-2.3078,-2.3078,-2.3078,-2.3078,-2.3078,-2.3078,-2.3078,-2.3078,-2.3078,-2.3078,-2.3078,-2.3078,-2.3078,-2.3078,-2.3078,-2.3078,-2.2567,-2.091,-2.059,-2.0009,-1.8269,-1.8008,-1.8008,-1.8008,-1.8008,-1.8008,-1.8008,-1.8008,-1.8008,-1.8008,-1.8008,-1.8008,-1.8008,-1.8008,-1.8008,-1.8008,-1.8008,-1.8008,-1.8008,-1.8008,-1.8115,-1.832,-1.832,-1.8745,-1.9586,-1.9798,-2.0325,0.0,0.0,0.0,0.0,0.0,0.0,0.0,-3.0234,-3.0535,-3.1016,-3.1289,-3.1698,-3.2526,-3.3237,-3.3757,-3.391,-3.4496,-3.4821,-3.4567,-3.4679,-3.4591,-3.4055,-3.3902,-3.3868,-3.3807,-3.3807,-3.368,-3.3332,-3.3625,-3.3652,-3.3332,-3.3232,-3.2975,-3.2499,-3.2029,-3.1613,-3.119,-3.119,-3.119,-3.119,-3.119,-3.0965,-3.0471,-2.9827,-2.9531,-2.9316,-2.8125,-2.786,-2.8286,-2.781,-2.7625,-2.7625,-2.7625,-2.7625,-2.7625,-2.7625,-2.7137,-2.6404,-2.5673,-2.4894,-2.4176,-2.3365,-2.3078,-2.3078,-2.3078,-2.3078,-2.3078,-2.3078,-2.3078,-2.3078,-2.3078,-2.3078,-2.3078,-2.3078,-2.3078,-2.3078,-2.3078,-2.3078,-2.3078,-2.3078,-2.3078,-2.2567,-2.091,-2.059,-2.0009,-1.8269,-1.8008,-1.8008,-1.8008,-1.8008,-1.8008,-1.8008,-1.8008,-1.8008,-1.8008,-1.8008,-1.8008,-1.8008,-1.8008,-1.8008,-1.8008,-1.8008,-1.8008,-1.8008,-1.8008,-1.8008,-1.8008,-1.8008,-1.8642,-1.9776,-1.998,-2.0546,-2.282,-2.512,-2.7272,-2.8783,-2.9447,-2.9827,0.0,-3.0386,-3.0417,-3.0501,-3.0521,-3.0814,-3.1679,-3.191,-3.2218,-3.2929,-3.3743,-3.4199,-3.3941,-3.4575,-3.4944,-3.4632,-3.4334,-3.4068,-3.3815,-3.3807,-3.3762,-3.3734,-3.3762,-3.378,-3.3734,-3.3382,-3.2973,-3.2511,-3.2022,-3.1613,-3.119,-3.119,-3.119,-3.119,-3.119,-3.1157,-3.1083,-3.0484,-2.9923,-2.9316,-2.8125,-2.7625,-2.771,-2.7625,-2.7625,-2.7625,-2.7625,-2.7625,-2.7625,-2.7625,-2.7137,-2.6404,-2.5673,-2.4894,-2.4176,-2.3365,-2.3078,-2.3078,-2.3078,-2.3078,-2.3078,-2.3078,-2.3078,-2.3078,-2.3078,-2.3078,-2.3078,-2.3078,-2.3078,-2.3078,-2.3078,-2.3078,-2.3078,-2.3078,-2.3078,-2.2567,-2.091,-2.059,-2.0009,-1.8269,-1.8008,-1.8008,-1.8008,-1.8008,-1.8008,-1.8008,-1.8008,-1.8008,-1.8008,-1.8008,-1.8008,-1.8008,-1.8008,-1.8008,-1.8008,-1.8008,-1.8008,-1.8008,-1.8008,-1.8008,-1.8008,-1.8008,-1.8482,-1.9383,-2.0151,-2.0997,-2.3953,-2.6195,-2.7944,-2.8727,-2.9408,-2.9934,-3.0125,-3.0299,-3.0398,-3.0398,-3.0398,-3.0513,-3.0891,-3.1371,-3.1814,-3.216,-3.2891,-3.3517,-3.3764,-3.4263,-3.4617,-3.4678,-3.4715,-3.4553,-3.4093,-3.3876,-3.3807,-3.3807,-3.3807,-3.3807,-3.3807,-3.3633,-3.3231,-3.2529,-3.2302,-3.1856,-3.1207,-3.119,-3.119,-3.119,-3.119,-3.119,-3.119,-3.0592,-2.9783,-2.8873,-2.8717,-2.8271,-2.7625,-2.7625,-2.7625,-2.7625,-2.7625,-2.7625,-2.7625,-2.7625,-2.7137,-2.6404,-2.5673,-2.4894,-2.4176,-2.3365,-2.3078,-2.3078,-2.3078,-2.3078,-2.3078,-2.3078,-2.3078,-2.3078,-2.3078,-2.3078,-2.3078,-2.3078,-2.3078,-2.3078,-2.3078,-2.3078,-2.3078,-2.3078,-2.3078,-2.2567,-2.091,-2.059,-2.0009,-1.8269,-1.8008,-1.8008,-1.8008,-1.8008,-1.8008,-1.8008,-1.8008,-1.8008,-1.8008,-1.8008,-1.8008,-1.8008,-1.8008,-1.8008,-1.8008,-1.8008,-1.8008,-1.8008,-1.8008,-1.8008,-1.8008,-1.8529,-1.9177,-2.0074,-2.0974,-2.1776,-2.5146,-2.7045,-2.8296,-2.8647,-2.9374,-3.0024,-3.0098,-3.0254,-3.0398,-3.0398,-3.0398,-3.0398,-3.0398,-3.0929,-3.1345,-3.1372,-3.203,-3.2731,-3.3173,-3.3588,-3.4026,-3.4507,-3.4674,-3.4641,-3.4364,-3.4068,-3.3876,-3.3807,-3.3807,-3.3807,-3.3807,-3.3807,-3.3386,-3.2529,-3.2494,-3.2088,-3.1207,-3.119,-3.119,-3.119,-3.119,-3.119,-3.1173,-3.0396,-2.9491,-2.8511,-2.8779,-2.84,-2.7625,-2.7625,-2.7625,-2.7625,-2.7625,-2.7625,-2.7625,-2.7625,-2.7255,-2.6669,-2.5728,-2.5063,-2.4452,-2.3424,-2.3078,-2.3078,-2.3078,-2.3078,-2.3078,-2.3078,-2.3078,-2.3078,-2.3078,-2.3078,-2.3078,-2.3078,-2.3078,-2.3078,-2.3078,-2.3078,-2.3078,-2.3078,-2.3078,-2.2567,-2.091,-2.059,-2.0009,-1.8269,-1.8008,-1.8008,-1.8008,-1.8008,-1.8008,-1.8008,-1.8008,-1.8008,-1.8008,-1.8008,-1.8008,-1.8008,-1.8008,-1.8008,-1.8008,-1.8008,-1.8008,-1.8008,-1.8008,-1.8144,-1.8327,-1.8977,-1.9879,-2.0974,-2.1616,-2.2322,-2.632,-2.7402,-2.827,-2.8532,-2.9314,-3.0075,-3.0323,-3.0398,-3.0398,-3.0398,-3.0398,-3.0398,-3.0398,-3.0417,-3.0455,-3.053,-3.1212,-3.1765,-3.1845,-3.2486,-3.3256,-3.4109,-3.3991,-3.4049,-3.4639,-3.4379,-3.4093,-3.3815,-3.3807,-3.3807,-3.3807,-3.3807,-3.3386,-3.2529,-3.2494,-3.2088,-3.1207,-3.119,-3.119,-3.119,-3.119,-3.119,-3.1134,-2.9955,-2.909,-2.8463,-2.791,-2.761,-2.7625,-2.7625,-2.7625,-2.7625,-2.7625,-2.7625,-2.7625,-2.7625,-2.7575,-2.7357,-2.5877,-2.5398,-2.5119,-2.359,-2.3078,-2.3078,-2.3078,-2.3078,-2.3078,-2.3078,-2.3078,-2.3078,-2.3078,-2.3078,-2.3078,-2.3078,-2.3078,-2.3078,-2.3078,-2.3078,-2.3078,-2.3078,-2.3078,-2.2567,-2.091,-2.059,-2.0009,-1.8269,-1.8008,-1.8008,-1.8008,-1.8008,-1.8008,-1.8008,-1.8008,-1.8008,-1.8008,-1.8008,-1.8008,-1.8008,-1.8008,-1.8008,-1.8008,-1.8008,-1.8008,-1.8008,-1.8008,-1.8395,-1.9243,-1.9299,-2.0204,-2.1877,-2.1877,-2.2322,-2.693,-2.8047,-2.883,-2.8908,-2.9585,-3.0254,-3.015,-3.0267,-3.0398,-3.0398,-3.0398,-3.0398,-3.0398,-3.0398,-3.0417,-3.05,-3.0733,-3.111,-3.1709,-3.201,-3.2469,-3.3231,-3.3761,-3.4087,-3.4087,-3.4172,-3.4093,-3.3815,-3.3807,-3.3807,-3.3807,-3.3807,-3.3386,-3.2529,-3.2494,-3.2088,-3.1207,-3.119,-3.119,-3.119,-3.119,-3.119,-3.119,-3.0377,-2.9665,-2.9061,-2.8444,-2.7944,-2.7625,-2.7625,-2.7625,-2.7625,-2.7625,-2.7625,-2.7625,-2.7625,-2.7625,-2.7408,-2.5892,-2.5063,-2.4509,-2.3424,-2.3078,-2.3078,-2.3078,-2.3078,-2.3078,-2.3078,-2.3078,-2.3078,-2.3078,-2.3078,-2.3078,-2.3078,-2.3078,-2.3078,-2.3078,-2.3078,-2.3078,-2.3078,-2.3078,-2.2763,-2.1678,-2.0974,-2.0009,-1.8269,-1.8008,-1.8008,-1.8008,-1.8008,-1.8008,-1.8008,-1.8008,-1.8008,-1.8008,-1.8008,-1.8008,-1.8008,-1.8008,-1.8008,-1.8008,-1.8008,-1.8008,-1.8008,-1.8008,-1.8462,-1.9299,-1.9879,-2.0782,-2.1877,-2.2445,-2.2823,-2.7338,-2.8337,-2.9116,-2.9232,-2.9829,-3.0355,-3.0182,-3.0286,-3.0398,-3.0398,-3.0398,-3.0398,-3.0398,-3.0406,-3.0452,-3.0521,-3.0537,-3.0843,-3.1753,-3.1829,-3.2097,-3.2883,-3.3429,-3.3623,-3.3356,-3.3772,-3.4036,-3.3963,-3.3931,-3.3917,-3.3807,-3.3807,-3.3386,-3.2529,-3.2652,-3.2264,-3.1207,-3.1331,-3.1331,-3.119,-3.119,-3.119,-3.1173,-3.0344,-2.9756,-2.9359,-2.8508,-2.7944,-2.7625,-2.7625,-2.7625,-2.7625,-2.7625,-2.7625,-2.7625,-2.7625,-2.7408,-2.7034,-2.5837,-2.5063,-2.4509,-2.3471,-2.3078,-2.3078,-2.3078,-2.3078,-2.3078,-2.3078,-2.3078,-2.3078,-2.3078,-2.3078,-2.3078,-2.3078,-2.3078,-2.3078,-2.3078,-2.3078,-2.3078,-2.3078,-2.3078,-2.2823,-2.2075,-2.091,-1.9628,-1.8202,-1.8008,-1.8008,-1.8008,-1.8008,-1.8008,-1.8008,-1.8008,-1.8008,-1.8008,-1.8008,-1.8008,-1.8008,-1.8008,-1.8008,-1.8008,-1.8008,-1.8008,-1.8008,-1.8008,-1.8596,-1.9759,-2.0333,-2.1164,-2.2322,-2.2884,-2.3078,-2.7564,-2.8361,-2.9193,-2.9471,-2.9971,-3.0398,-3.0398,-3.0398,-3.0398,-3.0398,-3.0398,-3.041,-3.039,-3.0452,-3.0521,-3.0594,-3.0611,-3.093,-3.1864,-3.1897,-3.2124,-3.2996,-3.2987,-3.2809,-3.2549,-3.3272,-3.3859,-3.4167,-3.4188,-3.4073,-3.3834,-3.3807,-3.3405,-3.2547,-3.2985,-3.2603,-3.1278,-3.1618,-3.1613,-3.119,-3.119,-3.1173,-3.114,-2.9967,-2.9417,-2.9281,-2.8164,-2.764,-2.7625,-2.7625,-2.7625,-2.7625,-2.7625,-2.7625,-2.7625,-2.7625,-2.7152,-2.6443,-2.5728,-2.5398,-2.5119,-2.359,-2.3078,-2.3078,-2.3078,-2.3078,-2.3078,-2.3078,-2.3078,-2.3078,-2.3078,-2.3078,-2.3078,-2.3078,-2.3078,-2.3078,-2.3078,-2.3078,-2.3078,-2.3078,-2.3078,-2.2823,-2.2002,-2.0462,-1.9044,-1.8134,-1.8008,-1.8008,-1.8008,-1.8008,-1.8008,-1.8008,-1.8008,-1.8008,-1.8008,-1.8008,-1.8008,-1.8008,-1.8008,-1.8008,-1.8008,-1.8008,-1.8008,-1.8008,-1.8008,-1.8854,-2.0526,-2.059,-2.1416,-2.3017,-2.3065,-2.3078,-2.7762,-2.8776,-2.9603,-2.982,-3.0131,-3.0398,-3.0398,-3.0398,-3.0398,-3.0398,-3.0398,-3.0425,-3.0472,-3.05,-3.0545,-3.0661,-3.0677,-3.0977,-3.1867,-3.1932,-3.2188,-3.3006,-3.2975,-3.2865,-3.2814,-3.3,-3.333,-3.3856,-3.4083,-3.4168,-3.4118,-3.3925,-3.356,-3.3048,-3.3143,-3.2857,-3.2188,-3.1912,-3.1613,-3.119,-3.119,-3.0982,-3.0527,-3.0213,-2.9599,-2.8728,-2.8384,-2.8017,-2.7625,-2.7625,-2.7625,-2.7625,-2.7625,-2.7625,-2.7625,-2.7625,-2.7458,-2.7188,-2.6496,-2.5508,-2.4394,-2.3424,-2.3078,-2.3078,-2.3078,-2.3078,-2.3078,-2.3078,-2.3078,-2.3078,-2.3078,-2.3078,-2.3078,-2.3078,-2.3078,-2.3078,-2.3078,-2.3078,-2.3078,-2.3078,-2.3078,-2.2628,-2.1164,-2.059,-1.9759,-1.8202,-1.8008,-1.8008,-1.8008,-1.8008,-1.8008,-1.8008,-1.8008,-1.8008,-1.8008,-1.8008,-1.8008,-1.8008,-1.8008,-1.8008,-1.8008,-1.8008,-1.8008,-1.8008,-1.8008,-1.8529,-1.9628,-2.0268,-2.1164,-2.2199,-2.2823,-2.3078,-2.8211,-2.9084,-2.9765,-2.9954,-3.0196,-3.0398,-3.0398,-3.0398,-3.0398,-3.0398,-3.0398,-3.0417,-3.05,-3.0521,-3.0581,-3.0684,-3.0745,-3.1221,-3.2434,-3.2567,-3.281,-3.3614,-3.3285,-3.2827,-3.2401,-3.2358,-3.2506,-3.2859,-3.3467,-3.3952,-3.4199,-3.3962,-3.3615,-3.3195,-3.3378,-3.3261,-3.2793,-3.2127,-3.1681,-3.1472,-3.1297,-3.1016,-3.0679,-3.0405,-2.9794,-2.8869,-2.8609,-2.8157,-2.7625,-2.7625,-2.7625,-2.7625,-2.7625,-2.7625,-2.7625,-2.7625,-2.7625,-2.7509,-2.6774,-2.5728,-2.4681,-2.3884,-2.3365,-2.3078,-2.3078,-2.3078,-2.3078,-2.3078,-2.3078,-2.3078,-2.3078,-2.3078,-2.3078,-2.3078,-2.3078,-2.3078,-2.3078,-2.3078,-2.3078,-2.3078,-2.3078,-2.2689,-2.1416,-2.0846,-2.0139,-1.8787,-1.8269,-1.8008,-1.8008,-1.8008,-1.8008,-1.8008,-1.8008,-1.8008,-1.8008,-1.8008,-1.8008,-1.8008,-1.8008,-1.8008,-1.8008,-1.8008,-1.8008,-1.8008,-1.8008,-1.8462,-1.9299,-2.0204,-2.1037,-2.1939,-2.2763,-2.3078,-2.8704,-2.9245,-2.978,-2.9954,-3.0196,-3.0398,-3.0398,-3.0398,-3.0398,-3.0398,-3.0402,-3.0419,-3.0498,-3.0568,-3.0643,-3.0716,-3.0817,-3.1445,-3.3027,-3.3266,-3.3589,-3.4411,-3.3682,-3.2781,-3.1954,-3.1677,-3.1569,-3.1696,-3.2577,-3.3424,-3.406,-3.3844,-3.3578,-3.3295,-3.3615,-3.3578,-3.3103,-3.2298,-3.185,-3.1698,-3.1365,-3.1157,-3.1061,-3.0631,-2.9993,-2.9258,-2.8811,-2.8253,-2.7625,-2.7625,-2.7625,-2.7625,-2.7625,-2.7625,-2.7625,-2.7625,-2.7524,-2.7357,-2.6721,-2.596,-2.5119,-2.4509,-2.3767,-2.3078,-2.3078,-2.3078,-2.3078,-2.3078,-2.3078,-2.3078,-2.3078,-2.3078,-2.3078,-2.3078,-2.3078,-2.3078,-2.3078,-2.3078,-2.3078,-2.3078,-2.3005,-2.2689,-2.1877,-2.1101,-2.0268,-1.9309,-1.8596,-1.8144,-1.8008,-1.8008,-1.8008,-1.8008,-1.8008,-1.8008,-1.8008,-1.8008,-1.8008,-1.8008,-1.8008,-1.8008,-1.8008,-1.8008,-1.8008,-1.8008,-1.8144,-1.8519,-1.9299,-2.0268,-2.1164,-2.1939,-2.2763,-2.3078,-2.8547,-2.9363,-2.9954,-2.9999,-3.0196,-3.0398,-3.0398,-3.0398,-3.0398,-3.0398,-3.0451,-3.0507,-3.0568,-3.0648,-3.0716,-3.0857,-3.0879,-3.125,-3.2266,-3.2929,-3.361,-3.4488,-3.3719,-3.3044,-3.2875,-3.1492,-3.0922,-3.1657,-3.1672,-3.2222,-3.3466,-3.3295,-3.3313,-3.3697,-3.377,-3.3405,-3.2629,-3.2472,-3.2036,-3.1314,-3.1224,-3.0926,-3.0454,-3.0848,-3.0168,-2.8685,-2.9077,-2.8632,-2.7625,-2.7625,-2.7625,-2.7625,-2.7625,-2.7625,-2.7625,-2.7625,-2.7188,-2.6669,-2.6563,-2.5618,-2.4452,-2.435,-2.3767,-2.3078,-2.3078,-2.3078,-2.3078,-2.3078,-2.3078,-2.3078,-2.3078,-2.3078,-2.3078,-2.3078,-2.3078,-2.3078,-2.3078,-2.3078,-2.3078,-2.3078,-2.2567,-2.1815,-2.0974,-2.0719,-2.0074,-1.8462,-1.8721,-1.8787,-1.8076,-1.8008,-1.8008,-1.8008,-1.8008,-1.8008,-1.8008,-1.8008,-1.8008,-1.8008,-1.8008,-1.8008,-1.8008,-1.8008,-1.8008,-1.8008,-1.8721,-1.9177,-1.9299,-2.091,-2.1753,-2.1939,-2.2763,-2.3078,-2.9087,-2.9621,-2.9999,-2.9999,-3.0196,-3.0398,-3.0398,-3.0398,-3.0398,-3.0398,-3.0442,-3.0513,-3.0587,-3.0642,-3.0745,-3.0879,-3.0898,-3.1191,-3.207,-3.25,-3.3027,-3.3828,-3.3095,-3.2493,-3.2436,-3.1241,-3.0602,-3.0999,-3.0902,-3.1388,-3.2713,-3.2802,-3.2912,-3.3158,-3.3578,-3.3597,-3.3176,-3.2742,-3.2284,-3.1856,-3.1438,-3.105,-3.0769,-3.105,-3.0387,-2.8979,-2.925,-2.8743,-2.7625,-2.7625,-2.7625,-2.7625,-2.7625,-2.7625,-2.7625,-2.7625,-2.713,-2.6529,-2.6472,-2.5508,-2.4292,-2.4292,-2.3767,-2.3078,-2.3078,-2.3078,-2.3078,-2.3078,-2.3078,-2.3078,-2.3078,-2.3078,-2.3078,-2.3078,-2.3078,-2.3078,-2.3078,-2.3078,-2.3078,-2.3078,-2.2823,-2.2249,-2.1428,-2.091,-2.0139,-1.8854,-1.8654,-1.8462,-1.8076,-1.8008,-1.8008,-1.8008,-1.8008,-1.8008,-1.8008,-1.8008,-1.8008,-1.8008,-1.8008,-1.8008,-1.8008,-1.8008,-1.8008,-1.8008,-1.8854,-1.9299,-1.9299,-2.1037,-2.1877,-2.1939,-2.2763,-2.3078,-2.9731,-2.9908,-3.0089,-3.0089,-3.0254,-3.0398,-3.0398,-3.0398,-3.039,-3.0425,-3.0472,-3.0545,-3.0617,-3.0696,-3.0771,-3.0879,-3.0898,-3.1133,-3.1836,-3.207,-3.2422,-3.3008,-3.2422,-3.1953,-3.1823,-3.102,-3.0467,-3.0398,-3.034,-3.0784,-3.1867,-3.2176,-3.2352,-3.2346,-3.2948,-3.3258,-3.3158,-3.2555,-3.2176,-3.2105,-3.1489,-3.119,-3.119,-3.119,-3.0594,-2.957,-2.947,-2.8789,-2.778,-2.7655,-2.7625,-2.7625,-2.7625,-2.7625,-2.7625,-2.7625,-2.7027,-2.6289,-2.6258,-2.5272,-2.406,-2.406,-2.3603,-2.3078,-2.3078,-2.3078,-2.3078,-2.3078,-2.3078,-2.3078,-2.3078,-2.3078,-2.3078,-2.3078,-2.3078,-2.3078,-2.3078,-2.3078,-2.3078,-2.3078,-2.2944,-2.2628,-2.2002,-2.1175,-2.0333,-1.9431,-1.8721,-1.8202,-1.8008,-1.8008,-1.8008,-1.8008,-1.8008,-1.8008,-1.8008,-1.8008,-1.8008,-1.8008,-1.8008,-1.8008,-1.8008,-1.8212,-1.8269,-1.8269,-1.9299,-1.9879,-1.9879,-2.1428,-2.2137,-2.2199,-2.2823,-2.3078,-2.9969,-3.015,-3.0367,-3.0367,-3.0379,-3.0398,-3.0398,-3.0398,-3.0425,-3.0482,-3.0533,-3.0617,-3.068,-3.0792,-3.0898,-3.0898,-3.0898,-3.0937,-3.1016,-3.1699,-3.2226,-3.2285,-3.2129,-3.1972,-3.1891,-3.1057,-3.0467,-3.0398,-3.0167,-3.0323,-3.099,-3.1316,-3.1513,-3.151,-3.1583,-3.1447,-3.1066,-3.1292,-3.1207,-3.0769,-3.105,-3.119,-3.119,-3.119,-3.0842,-3.0179,-2.9627,-2.9027,-2.8379,-2.781,-2.7625,-2.7625,-2.7625,-2.7625,-2.7625,-2.7625,-2.6731,-2.5509,-2.5522,-2.4495,-2.3185,-2.3185,-2.3125,-2.3078,-2.3078,-2.3078,-2.3078,-2.3078,-2.3078,-2.3078,-2.3078,-2.3078,-2.3078,-2.3078,-2.3078,-2.3078,-2.3078,-2.3078,-2.3078,-2.3078,-2.2506,-2.2002,-2.1877,-2.1175,-2.0333,-1.9431,-1.9243,-1.8911,-1.8076,-1.8008,-1.8008,-1.8008,-1.8008,-1.8008,-1.8008,-1.8008,-1.8008,-1.8008,-1.8008,-1.8008,-1.8008,-1.8787,-1.9177,-1.9177,-2.0782,-2.169,-2.1678,-2.2567,-2.3005,-2.3005,-2.3078,-2.3078,-3.0196,-3.0311,-3.0398,-3.0398,-3.0439,-3.0462,-3.0402,-3.0439,-3.0482,-3.049,-3.0547,-3.0628,-3.0687,-3.0814,-3.0898,-3.0898,-3.0898,-3.0898,-3.0898,-3.1191,-3.1426,-3.1426,-3.1367,-3.1309,-3.1191,-3.08,-3.0525,-3.0398,-3.0148,-3.0094,-3.0335,-3.0704,-3.0825,-3.0681,-3.1152,-3.1323,-3.117,-3.0812,-3.0535,-3.0377,-3.0017,-3.0129,-3.0544,-3.0544,-3.0437,-3.0275,-3.0051,-2.9404,-2.8505,-2.8253,-2.7921,-2.7625,-2.7625,-2.7625,-2.7625,-2.7625,-2.6672,-2.5379,-2.5411,-2.4403,-2.3078,-2.3078,-2.3078,-2.3078,-2.3078,-2.3078,-2.3078,-2.3078,-2.3078,-2.3078,-2.3078,-2.3078,-2.3078,-2.3078,-2.3078,-2.3078,-2.3078,-2.3078,-2.3078,-2.3078,-2.2823,-2.2445,-2.2002,-2.1175,-2.0333,-1.9431,-1.8854,-1.8395,-1.8008,-1.8008,-1.8008,-1.8008,-1.8008,-1.8008,-1.8008,-1.8008,-1.8008,-1.8008,-1.8008,-1.8008,-1.8008,-1.8337,-1.8787,-1.9299,-2.0526,-2.1365,-2.1877,-2.2689,-2.3078,-2.3078,-2.3078,-2.3078,-3.0375,-3.0439,-3.0419,-3.0442,-3.049,-3.0524,-3.0482,-3.0509,-3.0525,-3.0523,-3.0575,-3.0622,-3.0697,-3.0781,-3.0857,-3.0898,-3.0898,-3.0898,-3.0898,-3.0898,-3.0898,-3.0898,-3.0898,-3.0859,-3.0703,-3.0625,-3.0525,-3.0398,-3.0225,-3.009,-3.0002,-3.0215,-3.0213,-2.9978,-3.0425,-3.0692,-3.0692,-3.0133,-2.9836,-2.9833,-2.9279,-2.9285,-2.9765,-2.976,-2.9827,-2.9895,-2.9755,-2.9248,-2.8404,-2.8271,-2.8001,-2.7625,-2.7625,-2.7625,-2.7625,-2.7625,-2.6811,-2.5734,-2.5716,-2.4713,-2.3457,-2.3457,-2.3273,-2.3078,-2.3078,-2.3078,-2.3078,-2.3078,-2.3078,-2.3078,-2.3078,-2.3078,-2.3078,-2.3078,-2.3078,-2.3078,-2.3078,-2.3078,-2.3078,-2.3078,-2.3078,-2.2944,-2.2384,-2.1353,-2.0398,-1.9759,-1.8721,-1.8008,-1.8008,-1.8008,-1.8008,-1.8008,-1.8008,-1.8008,-1.8008,-1.8008,-1.8008,-1.8008,-1.8008,-1.8008,-1.8008,-1.8269,-1.8654,-1.9299,-2.0398,-2.1302,-2.1877,-2.2689,-2.3078,-2.3078,-2.3078,-2.3078,-3.0482,-3.0498,-3.0505,-3.0581,-3.06,-3.06,-3.06,-3.06,-3.0604,-3.0603,-3.0605,-3.0623,-3.0684,-3.0693,-3.0749,-3.0878,-3.0898,-3.0898,-3.0898,-3.0898,-3.0898,-3.0898,-3.0898,-3.0859,-3.0703,-3.0586,-3.0467,-3.0398,-3.0398,-3.0283,-3.0002,-2.9817,-2.9623,-2.9416,-2.9163,-2.9012,-2.9012,-2.9035,-2.9001,-2.9025,-2.899,-2.8982,-2.8991,-2.8999,-2.9013,-2.8988,-2.8506,-2.8292,-2.8256,-2.7796,-2.7625,-2.7625,-2.7625,-2.7625,-2.7625,-2.7625,-2.714,-2.6484,-2.6516,-2.5508,-2.4296,-2.4296,-2.3764,-2.3078,-2.3078,-2.3078,-2.3078,-2.3078,-2.3078,-2.3078,-2.3078,-2.3078,-2.3078,-2.3078,-2.3078,-2.3078,-2.3078,-2.3078,-2.3078,-2.3078,-2.3078,-2.3078,-2.3078,-2.1729,-2.059,-2.059,-1.911,-1.8008,-1.8008,-1.8008,-1.8008,-1.8008,-1.8008,-1.8008,-1.8008,-1.8008,-1.8008,-1.8008,-1.8008,-1.8008,-1.8008,-1.8854,-1.9299,-1.9299,-2.0974,-2.1877,-2.1877,-2.2689,-2.3078,-2.3078,-2.3078,-2.3078,-3.049,-3.0537,-3.0568,-3.06,-3.0624,-3.0634,-3.0556,-3.0579,-3.0581,-3.054,-3.0564,-3.0622,-3.068,-3.0701,-3.0719,-3.0762,-3.0723,-3.0684,-3.0684,-3.0723,-3.0762,-3.0762,-3.084,-3.0859,-3.0703,-3.0625,-3.0544,-3.0467,-3.0417,-3.0359,-3.0283,-3.004,-2.9753,-2.9416,-2.9145,-2.8994,-2.8994,-2.8731,-2.8478,-2.8247,-2.799,-2.798,-2.8197,-2.8195,-2.8463,-2.8969,-2.8464,-2.801,-2.7585,-2.704,-2.6905,-2.692,-2.692,-2.7184,-2.7625,-2.7625,-2.714,-2.6505,-2.6505,-2.5856,-2.5064,-2.5023,-2.4533,-2.3901,-2.3901,-2.3555,-2.3078,-2.3078,-2.3078,-2.3078,-2.3078,-2.3078,-2.3078,-2.3078,-2.3078,-2.3078,-2.3078,-2.3078,-2.3078,-2.3078,-2.2628,-2.2261,-2.2261,-2.0846,-1.9694,-1.9694,-1.8721,-1.8008,-1.8008,-1.8008,-1.8008,-1.8008,-1.8008,-1.8008,-1.8008,-1.8008,-1.8008,-1.8008,-1.8008,-1.8008,-1.8008,-1.8269,-1.8721,-1.9299,-1.9814,-2.0398,-2.1037,-2.1877,-2.2567,-2.3078,-2.3078,-2.3078,-3.0545,-3.0587,-3.0652,-3.0693,-3.0706,-3.0682,-3.0584,-3.0583,-3.0579,-3.0511,-3.0533,-3.0586,-3.0613,-3.0613,-3.0637,-3.0657,-3.0637,-3.0618,-3.0637,-3.0676,-3.0723,-3.0761,-3.0859,-3.0859,-3.0703,-3.0657,-3.0604,-3.0498,-3.0467,-3.0417,-3.0398,-3.0148,-2.9884,-2.9626,-2.9336,-2.9108,-2.8994,-2.8476,-2.8106,-2.7885,-2.7344,-2.7178,-2.7402,-2.7402,-2.7655,-2.8129,-2.7827,-2.7411,0.0,-2.6555,-2.6357,-2.6231,-2.6208,-2.6468,-2.6825,-2.6825,-2.6562,-2.614,-2.614,-2.5864,-2.5408,-2.5094,-2.4464,-2.3876,-2.3876,-2.3482,-2.3078,-2.3078,-2.3078,-2.3078,-2.3078,-2.3078,-2.3078,-2.3078,-2.3078,-2.3078,-2.3078,-2.2884,-2.2641,-2.2641,-2.2002,-2.1428,-2.1428,-2.0268,-1.9299,-1.9299,-1.8596,-1.8008,-1.8008,-1.8008,-1.8008,-1.8008,-1.8008,-1.8008,-1.8008,-1.8008,-1.8008,-1.8008,-1.8008,-1.8008,-1.8008,-1.8008,-1.8269,-1.8787,-1.911,-1.9562,-2.0139,-2.1302,-2.2322,-2.3078,-2.3078,-2.3078,0.0,-3.0661,-3.0745,-3.0859,-3.0793,-3.0693,-3.0687,-3.0648,0.0,-3.0507,-3.0496,-3.0498,-3.0497,-3.0501,-3.0525,-3.0583,-3.0583,-3.0602,-3.066,-3.0694,-3.0746,-3.0876,-3.0898,-3.0859,-3.0703,-3.0703,-3.0651,-3.0528,-3.051,-3.0467,-3.0398,-3.0167,-3.0021,-3.0002,-2.9626,-2.9292,-2.9035,-2.8327,-2.7942,-2.7888,-2.7137,-2.6758,-2.6691,-2.6691,-2.6691,-2.6708,-2.6817,-2.6554,-2.6149,-2.6244,-2.5946,-2.5505,-2.552,-2.5537,-2.5617,-2.5617,-2.5617,-2.5617,-2.5617,-2.5523,-2.5336,-2.4538,-2.3712,-2.3053,-2.2967,-2.3053,-2.3078,-2.3078,-2.3078,-2.3078,-2.3078,-2.3078,-2.3078,-2.3078,-2.3078,-2.3078,-2.3078,-2.2506,-2.1939,-2.1877,-2.1175,-2.059,-2.0526,-1.9748,-1.9233,-1.9233,-1.8529,-1.8008,-1.8008,-1.8008,-1.8008,-1.8008,-1.8008,-1.8008,-1.8008,-1.8008,-1.8008,-1.8008,-1.8008,-1.8008,-1.8008,-1.8008,-1.8008,-1.8008,-1.8787,-1.9233,-1.9299,-2.0974,-2.2187,-2.3005,-2.3078,-2.3078,-3.0669,0.0,-3.084,-3.0751,-3.0721,-3.0677,0.0,-3.0537,-3.0507,-3.043,-3.0466,-3.0497,-3.0509,-3.0494,-3.0506,-3.0525,-3.0487,-3.0448,-3.0467,-3.0555,-3.065,-3.0742,-3.084,-3.0859,-3.0703,-3.0703,-3.0662,-3.0582,-3.0524,-3.0467,-3.0398,-3.034,-3.0206,-3.0002,-2.9907,-2.9693,-2.9297,-2.8942,-2.846,-2.7911,-2.7718,-2.7303,-2.6691,-2.6691,-2.6691,-2.6691,-2.6351,-2.5913,-2.5412,-2.5035,-2.4835,-2.4841,-2.4836,-2.5168,-2.562,-2.562,-2.562,-2.562,-2.562,-2.5288,-2.4665,-2.3429,-2.2879,-2.2637,-2.2055,-2.2455,-2.3078,-2.3078,-2.3078,-2.3078,-2.3078,-2.3078,-2.3078,-2.3078,-2.3078,-2.3078,-2.3078,-2.2944,-2.2641,-2.2002,-2.1175,-2.0398,-1.9694,-1.8844,-1.8337,-1.8337,-1.8144,-1.8008,-1.8008,-1.8008,-1.8008,-1.8008,-1.8008,-1.8008,-1.8008,-1.8008,-1.8008,-1.8008,-1.8008,-1.8008,-1.8008,-1.8008,-1.8008,-1.8008,-1.8202,-1.8654,-1.9299,-2.0398,-2.1365,-2.2199,-2.2823,-2.3078,-3.0762,-3.0801,-3.0792,-3.0718,-3.065,-3.0592,-3.051,-3.0491,-3.0451,-3.0402,-3.0417,-3.0448,-3.0448,-3.0448,-3.0448,-3.0448,-3.0417,-3.0398,-3.0448,-3.0541,-3.0625,-3.0684,-3.0765,-3.0806,-3.0781,-3.0781,-3.0742,-3.0644,-3.0579,-3.0525,-3.0448,-3.0417,-3.0321,-3.0186,-3.0071,-2.9813,-2.9412,-2.9072,-2.864,-2.8118,-2.7795,-2.7402,-2.6962,-2.6792,-2.6691,-2.6691,-2.6421,-2.6034,-2.5529,-2.4986,-2.4661,-2.4468,-2.4245,-2.4349,-2.4676,-2.4676,-2.4676,-2.4676,-2.4676,-2.4283,-2.3612,-2.2855,-2.2385,-2.2008,-2.1619,-2.1901,-2.2344,-2.2365,-2.239,-2.2434,-2.2673,-2.2755,-2.2824,-2.3015,-2.3078,-2.3017,-2.2628,-2.2249,-2.1729,-2.0846,-2.0009,-1.9243,-1.8787,-1.8337,-1.8008,-1.8008,-1.8008,-1.8008,-1.8008,-1.8008,-1.8008,-1.8008,-1.8008,-1.8008,-1.8008,-1.8008,-1.8008,-1.8008,-1.8008,-1.8008,-1.8008,-1.8008,-1.8008,-1.8008,-1.8008,-1.8462,-1.9299,-1.9748,-2.0462,-2.1302,-2.2187,-2.2567,-3.0817,-3.0776,-3.0682,-3.0687,-3.0584,-3.0498,-3.0485,-3.0404,-3.034,-3.0379,-3.0359,-3.034,-3.0379,-3.0359,-3.034,-3.034,-3.034,-3.0379,-3.0487,-3.0561,-3.0614,-3.0653,-3.0691,-3.0734,-3.0839,-3.0879,-3.084,-3.0703,-3.0652,-3.0576,-3.0506,-3.0448,-3.0398,-3.0398,-3.0186,-2.9855,-2.9453,-2.9089,-2.8732,-2.8393,-2.7707,-2.7362,-2.73,-2.6894,-2.6691,-2.6691,-2.6691,-2.6421,-2.5949,-2.5409,-2.4898,-2.4349,-2.3816,-2.3595,-2.3595,-2.3595,-2.3595,-2.3595,-2.3492,-2.3026,-2.2477,-2.2385,-2.1822,-2.125,-2.125,-2.125,-2.1224,-2.1244,-2.1342,-2.1612,-2.2083,-2.2188,-2.2301,-2.2765,-2.2915,-2.276,-2.1944,-2.1244,-2.0526,-1.9497,-1.8721,-1.8134,-1.8008,-1.8008,-1.8008,-1.8008,-1.8008,-1.8008,-1.8008,-1.8008,-1.8008,-1.8008,-1.8008,-1.8008,-1.8008,-1.8008,-1.8008,-1.8008,-1.8008,-1.8008,-1.8008,-1.8008,-1.8008,-1.8008,-1.8008,-1.8327,-1.911,-1.9233,-1.9694,-2.0398,-2.1302,-2.169,-3.0719,-3.0664,-3.062,-3.0613,-3.0567,-3.0489,-3.0432,-3.0229,-3.0129,-3.034,-3.0225,-3.0129,-3.0359,-3.0206,-3.0071,-3.0071,-3.0071,-3.0167,-3.0467,-3.0507,-3.052,-3.054,-3.0633,-3.0697,-3.0644,-3.0801,-3.084,-3.0703,-3.0698,-3.0628,-3.051,-3.0487,-3.0467,-3.0398,-3.0359,-3.0119,-2.9658,-2.9415,-2.8994,-2.8393,-2.7997,-2.7634,-2.73,-2.6894,-2.6691,-2.6691,-2.6691,-2.6421,-2.595,-2.5425,-2.4866,-2.4349,-2.3816,-2.3595,-2.3595,-2.3595,-2.3595,-2.3522,-2.3008,-2.2419,-2.1731,-2.125,-2.0617,-2.0066,-2.0066,-2.0066,-2.0053,-2.0045,-2.0768,-2.1509,-2.1574,-2.1624,-2.1646,-2.1733,-2.206,-2.2188,-2.1308,-2.1422,-2.1239,-1.9617,-1.9166,-1.8854,-1.8144,-1.8008,-1.8008,-1.8008,-1.8008,-1.8008,-1.8008,-1.8008,-1.8008,-1.8008,-1.8008,-1.8008,-1.8008,-1.8008,-1.8008,-1.8008,-1.8008,-1.8008,-1.8008,-1.8008,-1.8008,-1.8008,-1.8008,-1.8076,-1.8202,-1.8911,-1.9365,-1.9497,-2.0398,-2.0782,-3.068,-3.0625,-3.0559,-3.0545,-3.05,-3.0405,-3.0221,-3.009,-2.9998,-3.0011,-2.9923,-2.9906,-3.0148,-3.009,-3.0052,-3.0186,-3.0225,-3.0263,-3.0417,-3.0448,-3.0467,-3.0506,-3.0546,-3.0609,-3.0644,-3.0742,-3.0801,-3.0801,-3.0742,-3.0675,-3.0608,-3.053,-3.0487,-3.0467,-3.0417,-3.0167,-2.9713,-2.9607,-2.9278,-2.8714,-2.8169,-2.779,-2.7606,-2.6979,-2.6691,-2.6691,-2.6691,-2.6573,-2.6303,-2.5531,-2.5051,-2.4765,-2.3919,-2.3595,-2.3595,-2.3595,-2.3389,-2.3008,-2.2381,-2.1749,-2.1118,-2.0474,-2.0066,-1.9798,-1.9798,-1.9798,-1.9798,-1.9798,-2.0168,-2.0643,-2.0985,-2.1069,-2.1138,-2.1461,-2.1718,-2.1606,-2.0746,-2.0624,-2.0375,-1.9115,-1.8746,-1.8462,-1.8076,-1.8008,-1.8008,-1.8008,-1.8008,-1.8008,-1.8008,-1.8008,-1.8008,-1.8008,-1.8008,-1.8008,-1.8008,-1.8008,-1.8008,-1.8008,-1.8008,-1.8008,-1.8008,-1.8008,-1.8008,-1.8008,-1.8008,-1.8008,-1.8008,-1.8395,-1.8596,-1.8586,-1.9497,-1.989,-3.0676,-3.0599,-3.0505,-3.0423,-3.034,-3.0244,-3.0052,-2.9928,-2.9826,-2.9724,-2.9645,-2.9675,-2.988,-2.9922,-3.0002,-3.0206,-3.0283,-3.0321,-3.0379,-3.0398,-3.0417,-3.0467,-3.0487,-3.0539,-3.0669,-3.0682,-3.0762,-3.0898,-3.0801,-3.0723,-3.0703,-3.0594,-3.0516,-3.0506,-3.0417,-3.017,-2.9698,-2.9698,-2.9467,-2.8975,-2.8338,-2.7978,-2.7895,-2.7182,-2.6792,-2.6691,-2.6691,-2.664,-2.6455,-2.5581,-2.5137,-2.4915,-2.3993,-2.3595,-2.358,-2.3419,-2.3096,-2.2585,-2.1941,-2.131,-2.0731,-2.0217,-1.9913,-1.9798,-1.9798,-1.9798,-1.9798,-1.9798,-1.9798,-1.99,-2.0348,-2.0502,-2.0591,-2.1008,-2.1078,-2.0814,-1.996,-1.9533,-1.9054,-1.8269,-1.7945,-1.7861,-1.7861,-1.7949,-1.8008,-1.8008,-1.8008,-1.8008,-1.8008,-1.8008,-1.8008,-1.8008,-1.8008,-1.8008,-1.8008,-1.8008,-1.8008,-1.8008,-1.8008,-1.8008,-1.8008,-1.8008,-1.8008,-1.8008,-1.8008,-1.8008,-1.8008,-1.8008,-1.8008,-1.8008,-1.8654,-1.8977,-3.0615,-3.0612,-3.0494,-3.014,-3.0021,-3.0021,-3.0002,-2.9712,-2.9484,-2.9655,-2.9554,-2.9488,-2.9677,-2.972,-2.9733,-2.9752,-2.9906,-3.0129,-3.0359,-3.0398,-3.0398,-3.0398,-3.0467,-3.053,-3.0606,-3.0667,-3.0762,-3.0898,-3.0898,-3.082,-3.0703,-3.0626,-3.056,-3.0487,-3.0417,-3.0169,-2.9691,-2.9702,-2.9467,-2.8975,-2.8562,-2.821,-2.7895,-2.747,-2.7063,-2.6691,-2.6691,-2.6438,-2.6017,-2.543,-2.4917,-2.4422,-2.3816,-2.3595,-2.3522,-2.2978,-2.2759,-2.2586,-2.1929,-2.1286,-2.0771,-2.0733,-2.0322,-1.9798,-1.9798,-1.9798,-1.9798,-1.9798,-1.9798,-1.9811,-1.9875,-1.9875,-1.9888,-1.9886,-1.9809,-1.9504,-1.8612,-1.8264,-1.7864,-1.702,-1.7129,-1.7432,-1.7432,-1.7754,-1.8008,-1.8008,-1.8008,-1.8008,-1.8008,-1.8008,-1.8008,-1.8008,-1.8008,-1.8008,-1.8008,-1.8008,-1.8008,-1.8008,-1.8008,-1.8008,-1.8008,-1.8008,-1.8008,-1.8008,-1.8008,-1.8008,-1.8008,-1.8008,-1.8008,-1.8008,-1.8076,-1.8076,-3.0618,-3.054,-3.0407,-3.0091,-2.9908,-2.9795,-2.9664,-2.9514,-2.937,-2.9278,-2.9182,-2.9242,-2.9485,-2.972,-2.9851,-2.9718,-3.0008,-3.0227,-3.0163,-3.0279,-3.0398,-3.0398,-3.0417,-3.0469,-3.0529,-3.0608,-3.069,-3.0769,-3.0857,-3.0879,-3.082,-3.0721,-3.0628,-3.056,-3.051,-3.0213,-2.9696,-2.9701,-2.9468,-2.8994,-2.8581,-2.8214,-2.7897,-2.748,-2.708,-2.6691,-2.6691,-2.6421,-2.5967,-2.5422,-2.4895,-2.4349,-2.3816,-2.3595,-2.358,-2.3359,-2.2783,-2.2021,-2.1789,-2.1043,-2.0168,-2.0168,-1.9989,-1.9798,-1.9798,-1.9798,-1.9798,-1.9798,-1.9798,-1.9709,-1.9265,-1.9113,-1.9013,-1.8533,-1.8401,-1.8285,-1.7944,-1.7676,-1.7395,-1.7093,-1.6984,-1.7061,-1.7334,-1.7519,-1.7705,-1.7969,-1.8008,-1.8008,-1.8008,-1.8008,-1.8008,-1.8008,-1.8008,-1.8008,-1.8008,-1.8008,-1.8008,-1.8008,-1.8008,-1.8008,-1.8008,-1.8008,-1.8008,-1.8008,-1.8008,-1.8008,-1.8008,-1.8008,-1.8008,-1.8008,-1.8008,-1.8008,-3.0612,-3.0488,-3.0314,-3.0058,-2.9811,-2.9559,-2.9448,-2.9333,-2.92,-2.9053,-2.8994,-2.9072,-2.9242,-2.9561,-2.9776,-2.9644,-2.994,-3.0109,-2.9924,-3.0122,-3.0267,-3.0267,-3.0355,-3.0428,-3.049,-3.0554,-3.0633,-3.0693,-3.0817,-3.0898,-3.0898,-3.0771,-3.0673,-3.0606,-3.0537,-3.0265,-2.9806,-2.9734,-2.951,-2.9134,-2.876,-2.8341,-2.7886,-2.7609,-2.7199,-2.6691,-2.6691,-2.6336,-2.5716,-2.5356,-2.478,-2.4111,-2.3522,-2.3301,-2.3271,-2.2861,-2.2147,-2.1377,-2.1182,-2.0527,-1.9798,-1.9798,-1.9798,-1.9798,-1.9798,-1.9798,-1.9798,-1.9798,-1.9633,-1.9278,-1.8533,-1.8718,-1.8857,-1.8105,-1.7765,-1.7533,-1.7283,-1.6906,-1.6611,-1.6611,-1.6577,-1.6611,-1.6914,-1.708,-1.7324,-1.7744,-1.7812,-1.7861,-1.7988,-1.7725,-1.7432,-1.7148,-1.7157,-1.7157,-1.7157,-1.7157,-1.7157,-1.7157,-1.7157,-1.7373,-1.8008,-1.8008,-1.8008,-1.8008,-1.8008,-1.8008,-1.8008,-1.8008,-1.8008,-1.8008,-1.8008,-1.8008,-3.0646,-3.0448,-3.0246,-3.0043,-2.9696,-2.9412,-2.9412,-2.9182,-2.8994,-2.8994,-2.8994,-2.8994,-2.8994,-2.9214,-2.94,-2.9394,-2.957,-2.9696,-2.9696,-2.9877,-2.9999,-2.9999,-3.0222,-3.0428,-3.0481,-3.0554,-3.0633,-3.069,-3.0816,-3.0898,-3.0898,-3.0771,-3.0673,-3.0606,-3.0537,-3.0334,-3.0013,-2.9796,-2.9607,-2.9392,-2.9134,-2.8626,-2.7886,-2.7881,-2.747,-2.6691,-2.6691,-2.6123,-2.5192,-2.5201,-2.4557,-2.3522,-2.2964,-2.2701,-2.2541,-2.1283,-2.0811,-2.072,-2.0023,-1.9811,-1.9798,-1.9798,-1.9798,-1.9798,-1.9798,-1.9798,-1.9798,-1.9798,-1.9278,-1.8521,-1.7796,-1.8701,-1.9587,-1.8859,-1.8101,-1.735,-1.6674,-1.5898,-1.541,-1.541,-1.5762,-1.6115,-1.6125,-1.6436,-1.6875,-1.7314,-1.7383,-1.7539,-1.7959,-1.7207,-1.6219,-1.5305,-1.5234,-1.5234,-1.5234,-1.5234,-1.5234,-1.5234,-1.5234,-1.6018,-1.794,-1.8008,-1.8008,-1.8008,-1.8008,-1.8008,-1.8008,-1.8008,-1.8008,-1.8008,-1.8008,-1.8008,-3.0568,-3.0479,-3.036,-3.0061,-2.9789,-2.9578,-2.9421,-2.8961,-2.8577,-2.859,-2.8804,-2.8994,-2.8994,-2.9228,-2.9334,-2.9156,-2.9436,-2.9643,-2.9513,-2.9661,-2.978,-2.978,-2.9969,-3.0131,-3.0145,-3.0385,-3.0554,-3.0614,-3.071,-3.0793,-3.0898,-3.0858,-3.079,-3.0677,-3.0611,-3.043,-3.0145,-2.9858,-2.9607,-2.9392,-2.9134,-2.8626,-2.7897,-2.7918,-2.7476,-2.6691,-2.6691,-2.6145,-2.5126,-2.4394,-2.3904,-2.3522,-2.2964,-2.2706,-2.2588,-2.1771,-2.1144,-2.0779,-2.0565,-2.0168,-1.9798,-1.9798,-1.9798,-1.9798,-1.9798,-1.9798,-1.9798,-1.9798,-1.9278,-1.8634,-1.8449,-1.8293,-1.793,-1.6684,-1.6201,-1.5966,-1.58,-1.5566,-1.541,-1.541,-1.5518,-1.5703,-1.6066,-1.6172,-1.6416,-1.6855,-1.7187,-1.7539,-1.7959,-1.7207,-1.6775,-1.7148,-1.6018,-1.5455,-1.6097,-1.5596,-1.5234,-1.5234,-1.5234,-1.5728,-1.6922,-1.7001,-1.7354,-1.8008,-1.8008,-1.8008,-1.8008,-1.8008,-1.8008,-1.8008,-1.8008,-1.8008,-3.0521,-3.0467,-3.0378,-3.0202,-2.9876,-2.9488,-2.9101,-2.8816,-2.8647,-2.8641,-2.8828,-2.8952,-2.8773,-2.8879,-2.8902,-2.8608,-2.88,-2.899,-2.8997,-2.9198,-2.94,-2.957,-2.9746,-2.9877,-2.9877,-3.017,-3.0404,-3.0427,-3.0578,-3.07,-3.0782,-3.0811,-3.0762,-3.0618,-3.0604,-3.0455,-3.012,-2.9842,-2.9607,-2.9392,-2.8962,-2.8464,-2.7897,-2.7897,-2.7439,-2.6691,-2.628,-2.5753,-2.5104,-2.4013,-2.3595,-2.3522,-2.2964,-2.2526,-2.2215,-2.16,-2.0952,-2.0412,-2.0412,-2.0156,-1.9798,-1.9798,-1.9798,-1.9798,-1.9798,-1.9798,-1.9722,-1.9455,-1.8848,-1.8213,-1.7898,-1.726,-1.6595,-1.5966,-1.582,-1.5732,-1.5488,-1.541,-1.5294,-1.4991,-1.4932,-1.489,-1.4893,-1.4878,-1.5017,-1.5431,-1.5974,-1.6346,-1.6323,-1.5799,-1.5508,-1.572,-1.4728,-1.4307,-1.4816,-1.4378,-1.4019,-1.4019,-1.4019,-1.4442,-1.5438,-1.586,-1.6289,-1.6872,-1.6872,-1.6872,-1.6872,-1.6872,-1.6872,-1.6872,-1.6872,-1.7079,-3.0521,-3.0414,-3.0324,-3.0389,-2.9915,-2.9251,-2.8597,-2.8749,-2.8994,-2.8952,-2.8952,-2.8839,-2.8471,-2.8394,-2.8264,-2.7954,-2.7897,-2.7992,-2.8316,-2.8548,-2.8874,-2.9251,-2.9495,-2.9624,-2.9661,-2.9952,-3.0163,-3.0155,-3.0419,-3.0568,-3.0574,-3.0646,-3.064,-3.0506,-3.057,-3.041,-3.0037,-2.9813,-2.9607,-2.9414,-2.8766,-2.8264,-2.7897,-2.7869,-2.7426,-2.6657,-2.5635,-2.5221,-2.5144,-2.4032,-2.358,-2.3477,-2.2861,-2.2179,-2.1531,-2.0914,-2.0335,-1.9798,-1.9798,-1.9798,-1.9798,-1.9798,-1.9798,-1.9798,-1.9722,-1.9709,-1.9544,-1.8785,-1.8064,-1.7353,-1.6686,-1.5956,-1.5566,-1.6212,-1.6369,-1.6212,-1.5566,-1.5352,-1.505,-1.4332,-1.4145,-1.3846,-1.313,-1.3009,-1.3133,-1.3551,-1.4189,-1.4425,-1.3863,-1.3723,-1.3382,-1.2666,-1.2445,-1.2305,-1.2445,-1.2378,-1.2305,-1.2305,-1.2305,-1.2666,-1.3528,-1.4522,-1.5092,-1.5234,-1.5234,-1.5234,-1.5234,-1.5234,-1.5234,-1.5234,-1.5234,-1.5649,-3.0456,-3.0484,-3.0463,-3.0477,-3.0046,-2.9495,-2.8984,-2.8929,-2.8905,-2.859,-2.854,-2.8496,-2.842,-2.8183,-2.7964,-2.7926,-2.7897,-2.7926,-2.801,-2.8057,-2.8228,-2.8578,-2.8833,-2.9116,-2.9435,-2.9677,-2.9832,-2.9879,-3.014,-3.0298,-3.0358,-3.0585,-3.0653,-3.0585,-3.0587,-3.0528,-3.0385,-2.9931,-2.9678,-2.9625,-2.9123,-2.8533,-2.7897,-2.756,-2.7147,-2.6657,-2.5635,-2.5221,-2.5144,-2.4032,-2.3301,-2.2847,-2.2178,-2.1555,-2.0927,-2.0241,-1.99,-1.9798,-1.9798,-1.9798,-1.9798,-1.9798,-1.9798,-1.9709,-1.9113,-1.8937,-1.8773,-1.8033,-1.733,-1.6722,-1.6533,-1.5956,-1.542,-1.5576,-1.5644,-1.5576,-1.542,-1.4874,-1.4392,-1.4204,-1.3666,-1.3191,-1.3009,-1.3009,-1.3133,-1.3551,-1.3982,-1.4262,-1.4478,-1.4001,-1.3954,-1.4522,-1.323,-1.2592,-1.3317,-1.2732,-1.2305,-1.2305,-1.2305,-1.2372,-1.2586,-1.3528,-1.4386,-1.5163,-1.5234,-1.5234,-1.5234,-1.5234,-1.5234,-1.5234,-1.5234,-1.5305,-3.0325,-3.0428,-3.0438,-3.0175,-2.9901,-2.957,-2.9115,-2.8994,-2.8929,-2.8725,-2.854,-2.8368,-2.8183,-2.7851,-2.753,-2.7365,-2.7334,-2.7378,-2.7607,-2.7619,-2.7823,-2.8342,-2.8535,-2.8772,-2.9181,-2.9415,-2.957,-2.96,-2.9923,-3.0113,-3.016,-3.0432,-3.0598,-3.0559,-3.0545,-3.049,-3.0356,-2.9931,-2.9643,-2.9551,-2.8993,-2.8334,-2.7589,-2.721,-2.6774,-2.6332,-2.5524,-2.5051,-2.4736,-2.3636,-2.2981,-2.2613,-2.1951,-2.1338,-2.0765,-2.0435,-2.0079,-1.9734,-1.9379,-1.9278,-1.9202,-1.8861,-1.8761,-1.8685,-1.8283,-1.8148,-1.8041,-1.7301,-1.6797,-1.6437,-1.6055,-1.541,-1.4809,-1.4809,-1.5109,-1.5294,-1.4911,-1.4469,-1.3965,-1.3174,-1.2687,-1.2328,-1.1903,-1.1849,-1.1962,-1.2285,-1.248,-1.2766,-1.3316,-1.3048,-1.3071,-1.3715,-1.2492,-1.1761,-1.2265,-1.1385,-1.0875,-1.0875,-1.0875,-1.0875,-1.0875,-1.1304,-1.2258,-1.3803,-1.3803,-1.3803,-1.3803,-1.3803,-1.3803,-1.3803,-1.3803,-1.4019,-3.018,-3.0357,-3.038,-2.9909,-2.9746,-2.9588,-2.916,-2.9021,-2.8994,-2.8905,-2.8633,-2.829,-2.7964,-2.756,-2.7178,-2.6758,-2.6691,-2.6825,-2.7147,-2.721,-2.7452,-2.8139,-2.8219,-2.8368,-2.8767,-2.9012,-2.9166,-2.9209,-2.9568,-2.9839,-2.9954,-3.0279,-3.0462,-3.0498,-3.0505,-3.0422,-3.0243,-2.9931,-2.9643,-2.9454,-2.8676,-2.7946,-2.7303,-2.6873,-2.6436,-2.5961,-2.5411,-2.491,-2.4307,-2.3172,-2.2629,-2.2484,-2.1799,-2.1198,-2.0617,-2.0617,-2.0258,-1.9709,-1.9101,-1.879,-1.8601,-1.8008,-1.7705,-1.7606,-1.7455,-1.7413,-1.7249,-1.6359,-1.6113,-1.5956,-1.5187,-1.4492,-1.401,-1.3992,-1.4492,-1.4831,-1.4156,-1.3881,-1.3416,-1.2074,-1.171,-1.1406,-1.0681,-1.0624,-1.0705,-1.0882,-1.0962,-1.1102,-1.151,-1.1733,-1.1957,-1.1978,-1.1286,-1.0783,-1.0783,-0.9895,-0.9296,-0.9296,-0.9296,-0.9296,-0.9296,-0.9296,-1.0051,-1.1774,-1.1922,-1.215,-1.2305,-1.2305,-1.2305,-1.2305,-1.2305,-1.2732,-3.0061,-3.0353,-3.0442,-3.0188,-2.9912,-2.9625,-2.9394,-2.9178,-2.8905,-2.854,-2.8446,-2.829,-2.7964,-2.756,-2.7178,-2.6758,-2.6691,-2.6725,-2.6774,-2.6791,-2.6971,-2.7409,-2.7439,-2.7601,-2.801,-2.8075,-2.8237,-2.8504,-2.8792,-2.9186,-2.9712,-3.0068,-3.0333,-3.0495,-3.0505,-3.0487,-3.0461,-3.0132,-2.9861,-2.9643,-2.8499,-2.7736,-2.7303,-2.6873,-2.6436,-2.5961,-2.5411,-2.491,-2.4307,-2.3172,-2.2334,-2.1759,-2.1161,-2.0495,-1.9913,-1.9913,-1.9888,-1.9798,-1.9709,-1.9203,-1.8668,-1.8588,-1.8145,-1.7478,-1.6838,-1.6638,-1.6359,-1.4887,-1.4501,-1.4338,-1.3535,-1.3241,-1.3185,-1.3161,-1.323,-1.3306,-1.3189,-1.2634,-1.2074,-1.1826,-1.1226,-1.0744,-1.0624,-1.0624,-1.0638,-1.0672,-1.0828,-1.0751,-1.0086,-1.1133,-1.1592,-1.0906,-1.0807,-1.0783,-1.0783,-0.9895,-0.9296,-0.9296,-0.9296,-0.9296,-0.9296,-0.9296,-0.9448,-0.9674,-1.0565,-1.1465,-1.2305,-1.2305,-1.2305,-1.2305,-1.2305,-1.2372,-2.9995,-3.0342,-3.0447,-3.0249,-3.0027,-2.978,-2.9474,-2.931,-2.9138,-2.8797,-2.8565,-2.8219,-2.7678,-2.7241,-2.6906,-2.6725,-2.6691,-2.6691,-2.6691,-2.6691,-2.6841,-2.7241,-2.7303,-2.7439,-2.7869,-2.7897,-2.802,-2.8376,-2.8646,-2.9058,-2.9678,-2.9946,-3.0237,-3.055,-3.0486,-3.0473,-3.0567,-3.0201,-2.9845,-2.9532,-2.8417,-2.7643,-2.7151,-2.659,-2.6033,-2.554,-2.5297,-2.4521,-2.3376,-2.2515,-2.1779,-2.1149,-2.0484,-2.0067,-1.9734,-1.9354,-1.9189,-1.9101,-1.8259,-1.7739,-1.7379,-1.7005,-1.6616,-1.629,-1.5966,-1.5888,-1.5732,-1.5041,-1.4846,-1.4714,-1.3883,-1.3353,-1.2907,-1.246,-1.2011,-1.1677,-1.163,-1.1757,-1.1549,-1.0577,-1.0091,-0.9722,-0.9256,-0.9128,-0.9128,-0.9128,-0.9221,-0.9211,-0.9019,-0.9559,-0.9875,-0.9807,-0.9264,-0.8996,-0.9125,-0.8232,-0.7629,-0.7629,-0.7629,-0.7629,-0.7629,-0.7629,-0.7859,-0.8466,-0.9442,-1.0196,-1.0645,-1.0645,-1.0645,-1.0645,-1.0645,-1.0645,-2.986,-3.0264,-3.0396,-3.0296,-3.016,-2.9965,-2.957,-2.9434,-2.9291,-2.8915,-2.854,-2.8084,-2.7409,-2.7051,-2.6808,-2.6725,-2.6691,-2.6691,-2.6691,-2.6691,-2.6808,-2.7115,-2.7147,-2.7272,-2.7577,-2.7607,-2.7794,-2.8237,-2.8467,-2.8883,-2.9588,-2.9813,-3.0113,-3.0503,-3.0431,-3.0456,-3.0606,-3.0151,-2.9693,-2.9233,-2.8332,-2.7643,-2.7116,-2.6352,-2.5598,-2.4941,-2.4823,-2.3971,-2.2649,-2.1819,-2.121,-2.0746,-2.0055,-1.9798,-1.9722,-1.9189,-1.8863,-1.8549,-1.7463,-1.6835,-1.6396,-1.5887,-1.5566,-1.541,-1.541,-1.541,-1.5294,-1.4932,-1.4799,-1.4559,-1.3547,-1.2846,-1.2239,-1.1643,-1.1059,-1.0555,-1.0338,-1.0746,-1.0732,-0.9244,-0.9,-0.8748,-0.8091,-0.8027,-0.8027,-0.8027,-0.8027,-0.8022,-0.7984,-0.8255,-0.8417,-0.8541,-0.7947,-0.755,-0.7694,-0.6846,-0.6338,-0.6338,-0.6338,-0.6338,-0.6338,-0.6338,-0.6644,-0.7403,-0.8161,-0.877,-0.9296,-0.9296,-0.9296,-0.9296,-0.9296,-0.9296,-2.9627,-3.0008,-3.026,-3.0437,-3.0331,-3.0101,-2.9761,-2.9551,-2.9209,-2.8572,-2.8156,-2.7811,-2.7378,-2.7286,-2.7147,-2.6758,-2.6691,-2.6691,-2.6691,-2.6691,-2.6725,-2.6725,-2.6725,-2.6758,-2.6758,-2.6758,-2.7083,-2.7869,-2.7954,-2.8376,-2.9353,-2.9607,-2.9904,-3.0305,-3.0378,-3.0456,-3.0606,-3.0016,-2.942,-2.8815,-2.8201,-2.7678,-2.7255,-2.6402,-2.5347,-2.4234,-2.38,-2.326,-2.2603,-2.1369,-2.0845,-2.0746,-2.0055,-1.9798,-1.9798,-1.9786,-1.9318,-1.8677,-1.8596,-1.7651,-1.6512,-1.6485,-1.5966,-1.541,-1.541,-1.541,-1.505,-1.3545,-1.3094,-1.2749,-1.116,-1.0788,-1.0701,-1.0694,-1.0624,-1.0345,-0.956,-0.9424,-0.9145,-0.8249,-0.8071,-0.8027,-0.8027,-0.8027,-0.8027,-0.8027,-0.8027,-0.7702,-0.6863,-0.7755,-0.8097,-0.7313,-0.7355,-0.7499,-0.7508,-0.6779,-0.6338,-0.6338,-0.6338,-0.6338,-0.6338,-0.6338,-0.6338,-0.6416,-0.6416,-0.7403,-0.9296,-0.9296,-0.9296,-0.9296,-0.9296,-0.9296,-2.9139,-2.9634,-3.0128,-3.032,-3.0345,-3.023,-2.9856,-2.9672,-2.9359,-2.856,-2.8129,-2.7783,-2.7378,-2.7083,-2.6873,-2.6725,-2.6691,-2.6691,-2.6691,-2.6691,-2.6691,-2.6691,-2.6691,-2.6691,-2.6691,-2.6691,-2.6939,-2.747,-2.7736,-2.8228,-2.8964,-2.9457,-2.9889,-3.0296,-3.0378,-3.0342,-3.021,-2.9628,-2.9148,-2.8792,-2.7921,-2.7251,-2.6737,-2.5452,-2.4427,-2.3701,-2.2352,-2.1677,-2.1465,-2.0993,-2.056,-2.0156,-1.9901,-1.9527,-1.9032,-1.8543,-1.7924,-1.7224,-1.6743,-1.6212,-1.5703,-1.521,-1.4842,-1.4538,-1.4003,-1.3865,-1.3735,-1.3147,-1.2981,-1.2736,-1.1675,-1.1344,-1.108,-1.0008,-0.974,-0.939,-0.7955,-0.8522,-0.9034,-0.8172,-0.7572,-0.6985,-0.6404,-0.6338,-0.6338,-0.6338,-0.6346,-0.6218,-0.5881,-0.6203,-0.6423,-0.6192,-0.6246,-0.6406,-0.6537,-0.6392,-0.6322,-0.6268,-0.6264,-0.6338,-0.6338,-0.6338,-0.6338,-0.6338,-0.6338,-0.6644,-0.7403,-0.7403,-0.7403,-0.7403,-0.7403,-0.7403,-2.8333,-2.9003,-2.9667,-2.9858,-3.0118,-3.0232,-2.9882,-2.9843,-2.9673,-2.9013,-2.8594,-2.8247,-2.7857,-2.7472,-2.7029,-2.6556,-2.6487,-2.6401,-2.6229,-2.621,-2.621,-2.621,-2.621,-2.621,-2.621,-2.621,-2.642,-2.6982,-2.74,-2.7968,-2.875,-2.9362,-2.9898,-3.0321,-3.0351,-3.0224,-2.9889,-2.9288,-2.8876,-2.8646,-2.7543,-2.672,-2.615,-2.4665,-2.3428,-2.2403,-2.1046,-2.0584,-2.0795,-2.0547,-2.0207,-1.9798,-1.9527,-1.915,-1.8596,-1.789,-1.7136,-1.6371,-1.5628,-1.5186,-1.484,-1.4056,-1.3787,-1.3673,-1.3133,-1.2985,-1.2944,-1.265,-1.2613,-1.2328,-1.1281,-1.0758,-1.0296,-0.949,-0.9092,-0.8554,-0.7399,-0.7832,-0.8143,-0.7279,-0.6671,-0.6079,-0.5502,-0.5369,-0.5369,-0.5372,-0.5379,-0.5176,-0.4556,-0.5036,-0.542,-0.5515,-0.5576,-0.5403,-0.4919,-0.5087,-0.556,-0.6283,-0.6328,-0.6274,-0.6274,-0.6274,-0.6274,-0.6274,-0.6274,-0.6274,-0.6274,-0.6264,-0.6338,-0.6338,-0.6338,-0.6338,0.0,0.0,0.0,-2.9042,-2.9611,-3.0087,-2.9839,-2.9963,-3.0081,-2.9826,-2.9513,-2.9174,-2.8861,-2.8494,-2.7753,-2.6284,-2.6016,-2.5835,-2.5297,-2.5221,-2.5221,-2.5221,-2.5221,-2.5221,-2.5221,-2.5221,-2.555,-2.6404,-2.6862,-2.7582,-2.8709,-2.9382,-2.9932,-3.039,-3.0339,-3.0102,-2.9695,-2.9101,-2.8627,-2.835,-2.7068,-2.615,-2.5527,-2.4081,-2.2388,-2.0518,-1.9902,-2.0092,-2.0696,-1.9991,-1.9747,-1.9643,-1.8939,-1.8661,-1.8555,-1.7786,-1.7081,-1.63,-1.5524,-1.4743,-1.4057,-1.3233,-1.2936,-1.2932,-1.294,-1.2944,-1.2757,-1.1958,-1.171,-1.1329,-0.9709,-0.8613,-0.8221,-0.9011,-0.8549,-0.7962,-0.7962,-0.7288,-0.6394,-0.5568,-0.5428,-0.5369,-0.5389,-0.5386,-0.5382,-0.5393,-0.5396,-0.4776,-0.2947,-0.4164,-0.5259,-0.5326,-0.5388,-0.4694,-0.2931,-0.2926,-0.3925,-0.6006,-0.6133,-0.621,-0.6213,-0.6213,-0.6213,-0.6213,-0.6213,-0.6213,-0.6213,-0.6271,-0.6264,-0.6264,-0.6264,-0.6264,-2.6601,0.0,0.0,0.0,0.0,0.0,-2.9136,-2.9168,-2.9179,-2.9085,-2.9007,-2.8897,-2.8745,-2.864,-2.8296,-2.7486,-2.6805,-2.6232,-2.5835,-2.5449,-2.5221,-2.5221,-2.5221,-2.5221,-2.5221,-2.5221,-2.547,-2.609,-2.6736,-2.7467,-2.8323,-2.9491,-3.0226,-3.039,-3.0339,-3.0102,-2.9695,-2.8791,-2.8066,-2.7461,-2.6065,-2.5126,-2.4516,-2.2864,-2.182,-2.1227,-1.9622,-1.9073,-1.923,-1.8489,-1.8232,-1.8167,-1.795,-1.7578,-1.7024,-1.6239,-1.5486,-1.47,-1.3939,-1.3502,-1.318,-1.2397,-1.2151,-1.205,-1.1442,-1.1247,-1.1108,-1.0212,-1.0021,-0.9767,-0.8672,-0.8156,-0.7897,-0.7502,-0.7242,-0.6915,-0.6272,-0.5958,-0.5907,-0.6254,-0.5841,-0.5428,-0.5369,-0.5389,-0.5403,-0.5406,-0.5406,-0.4718,-0.2947,-0.2008,-0.2009,-0.3284,-0.4613,-0.5167,-0.47,-0.2338,-0.1088,-0.1732,-0.3192,-0.3997,-0.3986,-0.3988,-0.3988,-0.3988,-0.3988,-0.3988,-0.3988,-0.5569,-0.6285,-0.6285,-0.6285,-0.6285,-2.518,-2.5965,-2.6809,-2.7179,0.0,0.0,-2.7992,-2.8227,-2.842,-2.8428,-2.8597,-2.8706,-2.8521,-2.8626,-2.8574,-2.8095,-2.7546,-2.6908,-2.6135,-2.5785,-2.5419,-2.4918,-2.4871,-2.4792,-2.4552,-2.4552,-2.4855,-2.5615,-2.6234,-2.715,-2.8548,-2.9781,-3.0424,-3.0446,-3.011,-2.9767,-2.9457,-2.8131,-2.7148,-2.6469,-2.5072,-2.3747,-2.26,-2.1356,-2.0328,-1.9393,-1.827,-1.7622,-1.728,-1.6486,-1.6532,-1.7036,-1.6388,-1.5887,-1.539,-1.4622,-1.4058,-1.3606,-1.2757,-1.2251,-1.1811,-1.1017,-1.0508,-1.0123,-0.964,-0.9518,-0.939,-0.8877,-0.8484,-0.8156,-0.8027,-0.7442,-0.6854,-0.6719,-0.6396,-0.6009,-0.5491,-0.5428,-0.5564,-0.6047,-0.5771,-0.5428,-0.5428,-0.5386,-0.4861,-0.337,-0.3167,-0.276,-0.1678,-0.0671,-0.0403,-0.1476,-0.2488,-0.3121,-0.3172,-0.1183,-0.0,-0.0,-0.112,-0.1824,-0.1771,-0.179,-0.2192,-0.3056,-0.3134,-0.3134,-0.3134,-0.4387,-0.4937,-0.4937,-0.4937,-0.4937,-2.3404,-2.438,-2.5456,-2.553,-2.5915,0.0,-2.6464,-2.6979,-2.7455,-2.753,-2.7952,-2.8173,-2.7915,-2.8173,-2.8269,-2.7926,-2.794,-2.7586,-2.6452,-2.6224,-2.5781,-2.4798,-2.4594,-2.4374,-2.3891,-2.3779,-2.4199,-2.5221,-2.576,-2.7005,-2.9151,-3.0066,-3.0498,-3.0479,-2.9734,-2.9181,-2.888,-2.7239,-2.6048,-2.5314,-2.3928,-2.2238,-2.026,-1.9737,-1.8324,-1.6348,-1.6301,-1.5843,-1.5216,-1.4323,-1.4808,-1.6038,-1.4517,-1.3996,-1.3886,-1.3036,-1.2696,-1.2565,-1.1695,-1.0871,-1.011,-0.9384,-0.8613,-0.8027,-0.8027,-0.8027,-0.7962,-0.7897,-0.7242,-0.6719,-0.7502,-0.6535,-0.5624,-0.6396,-0.5947,-0.5428,-0.5432,-0.5432,-0.5365,-0.5163,-0.5229,-0.5428,-0.5428,-0.5379,-0.4311,-0.1078,-0.027,-0.0,-0.0,-0.0,-0.0,-0.0,-0.0,-0.0,-0.0,-0.0,-0.0,-0.0,-0.0,-0.0,-0.0,-0.0,-0.0862,-0.2753,-0.2755,-0.2755,-0.2755,-0.274,-0.2734,-0.2734,-0.2734,-0.2734,-2.2711,-2.2922,-2.3225,-2.3701,-2.3871,0.0,-2.4376,-2.4558,-2.4811,-2.5302,-2.5501,-2.5628,-2.576,-2.5846,-2.5878,-2.5801,-2.6601,-2.7284,-2.7533,-2.7036,-2.6586,-2.6368,-2.5848,-2.5505,-2.5378,-2.508,-2.5128,-2.5815,-2.703,-2.8294,-2.9604,-2.9858,-3.0056,-3.0249,-2.945,-2.8521,-2.751,-2.6343,-2.5024,-2.3559,-2.2496,-2.0885,-1.8858,-1.8218,-1.7038,-1.5407,-1.4809,-1.4477,-1.425,-1.2846,-1.3218,-1.4542,-1.3588,-1.3226,-1.3045,-1.1549,-1.0989,-1.0795,-0.9291,-0.8661,-0.8468,-0.8285,-0.8156,-0.8027,-0.8027,-0.8027,-0.7827,-0.7177,-0.6334,-0.5686,-0.5885,-0.5624,-0.5428,-0.562,-0.5498,-0.5379,-0.5386,-0.5389,-0.4986,-0.3507,-0.4434,-0.5428,-0.5428,-0.5379,-0.5132,-0.4476,-0.189,-0.0,-0.0,-0.0,-0.0,-0.0,-0.0,-0.0,-0.0,-0.0,-0.0,-0.0,-0.0,-0.0,-0.0,-0.0,-0.0154,-0.0628,-0.0628,-0.0628,-0.0628,-0.0628,-0.0627,-0.0627,-0.0627,-0.0627,-2.1739,-2.1876,-2.2186,-2.2403,-2.2493,0.0,0.0,-2.2992,-2.3185,-2.3117,-2.3323,-2.3406,-2.3199,-2.361,-2.3927,-2.3652,-2.4945,-2.5949,-2.5992,-2.6864,-2.7456,-2.7359,-2.6821,-2.6422,-2.6316,-2.5965,-2.5976,-2.6505,-2.7921,-2.9007,-2.9565,-2.9883,-3.0121,-3.0256,-2.9174,-2.8288,-2.7647,-2.5458,-2.3788,-2.2643,-2.0518,-1.8341,-1.6224,-1.5515,-1.432,-1.2802,-1.2421,-1.2255,-1.2134,-1.1009,-1.0954,-1.169,-1.1757,-1.1531,-1.108,-1.0199,-0.9615,-0.9163,-0.828,-0.7702,-0.7372,-0.7372,-0.7051,-0.6728,-0.6728,-0.6728,-0.6597,-0.6207,-0.5756,-0.5369,-0.5369,-0.5372,-0.5379,-0.5379,-0.5382,-0.5183,-0.4231,-0.3351,-0.241,-0.1543,-0.1337,-0.1934,-0.3761,-0.3286,-0.2679,-0.269,-0.0403,0.1007,0.0134,-0.0,-0.0,-0.0,-0.0,-0.0,-0.0,-0.0,-0.0,-0.0,-0.0,-0.0,-0.0,-0.0,0.0978,0.3088,0.3125,0.2591,0.1565,0.1565,0.1019,-0.0,-0.0,-0.0,-2.0729,-2.0966,-2.1315,-2.1156,-2.1218,-2.1266,0.0,0.0,0.0,-2.0818,-2.1009,-2.1115,-2.0529,-2.1181,-2.1655,-2.124,-2.2663,-2.3724,-2.3407,-2.5419,-2.7112,-2.7591,-2.7407,-2.721,-2.7091,-2.6906,-2.6988,-2.751,-2.8518,-2.9197,-2.9393,-2.9687,-2.9761,-2.9582,-2.8415,-2.7469,-2.6807,-2.3998,-2.2014,-2.0805,-1.8182,-1.5664,-1.3271,-1.2598,-1.1478,-1.0071,-0.9995,-0.9926,-0.9876,-0.9325,-0.9076,-0.9018,-0.9831,-0.9728,-0.9157,-0.8958,-0.8506,-0.7922,-0.7587,-0.706,-0.647,-0.647,-0.5951,-0.5369,-0.5369,-0.5369,-0.5369,-0.5369,-0.5376,-0.5312,-0.497,-0.4906,-0.4779,-0.4434,-0.4367,-0.3961,-0.2474,-0.0734,0.0601,0.1002,0.2207,0.221,-0.1076,-0.0469,0.0668,0.1002,0.2274,0.2679,0.1206,0.0402,-0.0,-0.0,-0.0,0.027,0.101,0.101,0.0876,0.0538,0.055,0.0488,0.0491,0.0503,0.2133,0.5513,0.6017,0.5372,0.3728,0.3728,0.2647,0.0627,0.0627,0.0627,-1.997,-1.994,-1.9876,-1.9218,-1.9554,-1.9658,-1.8359,0.0,-1.8931,-1.8174,0.0,-1.8086,-1.8032,0.0,0.0,-1.81,-1.917,-2.0201,-2.0665,-2.1732,-2.352,-2.6403,-2.7374,-2.7897,-2.8113,-2.8346,-2.8688,-2.9115,-2.8683,-2.871,-2.9355,-2.8627,-2.7811,-2.7036,-2.6293,-2.4585,-2.183,-2.1115,-1.9132,-1.5898,-1.5568,-1.3705,-1.0698,-1.0636,-0.9982,-0.8927,-0.8484,-0.8291,-0.8317,-0.8668,-0.8538,-0.8127,-0.8231,-0.8511,-0.8749,-0.7695,-0.7659,-0.7758,-0.6262,-0.5652,-0.5522,-0.5522,-0.5456,-0.5393,-0.5393,-0.5393,-0.5393,-0.5393,-0.5393,-0.5049,-0.3418,-0.3013,-0.2609,-0.0999,-0.06,-0.0534,-0.0333,0.1134,0.288,0.4503,0.4982,0.4439,0.241,0.2275,0.2947,0.4573,0.4982,0.4989,0.4794,0.2012,-0.0,-0.0,-0.0,0.128,0.4523,0.4797,0.411,0.2479,0.2418,0.2382,0.2371,0.2363,0.2619,0.3065,0.4927,0.5899,0.595,0.595,0.4844,0.2734,0.2734,0.2734,-1.9148,-1.906,-1.898,-1.8232,-1.8274,-1.834,-1.7743,-1.7852,-1.7852,-1.7079,0.0,0.0,0.0,0.0,0.0,0.0,-1.706,-1.7577,-1.742,-1.9132,-2.1407,-2.4189,-2.4944,-2.5786,-2.7237,-2.7918,-2.8142,-2.7858,-2.7514,-2.7166,-2.681,-2.6395,-2.5985,-2.5639,-2.4554,-2.3102,-2.1292,-1.8908,-1.6718,-1.4702,-1.2662,-1.0856,-0.9382,-0.8756,-0.7832,-0.6775,-0.5467,-0.5536,-0.637,-0.4452,-0.3577,-0.3379,-0.3368,-0.5377,-0.8139,-0.663,-0.5557,-0.4827,-0.4092,-0.3825,-0.3687,-0.2606,-0.2945,-0.362,-0.2603,-0.3008,-0.3756,-0.3413,-0.2809,-0.2072,-0.1336,-0.0334,0.0601,0.1401,0.2339,0.3147,0.3145,0.3751,0.4495,0.5249,0.5379,0.5169,0.442,0.4284,0.4556,0.5306,0.5376,0.5379,0.5393,0.3485,0.194,0.161,0.1543,0.2214,0.3696,0.4785,0.5059,0.43,0.43,0.4255,0.4238,0.4281,0.4341,0.4409,0.5281,0.5795,0.5995,0.5995,0.5615,0.482,0.49,0.4937,-1.8552,-1.844,-1.8406,-1.7501,-1.7468,-1.7512,-1.7079,-1.7135,-1.709,-1.6368,-1.6208,0.0,0.0,0.0,-1.5284,-1.5099,0.0,-1.5533,-1.4789,-1.6377,-1.8635,-2.1338,-2.2442,-2.3659,-2.5437,-2.6231,-2.6364,-2.5792,-2.5523,-2.5014,-2.4173,-2.3944,-2.3735,-2.3396,-2.2393,-2.1108,-1.9439,-1.6658,-1.4354,-1.2663,-1.0252,-0.8586,-0.7727,-0.6482,-0.5708,-0.5262,-0.2947,-0.2139,-0.2342,-0.0666,0.0599,0.1466,0.1464,-0.0597,-0.3652,-0.3791,-0.2732,-0.1202,-0.1202,-0.1202,-0.1001,0.0333,0.02,-0.0334,0.0466,0.02,-0.0467,-0.0533,0.0067,0.0868,0.1336,0.2476,0.342,0.3418,0.4434,0.5389,0.5386,0.5379,0.5372,0.5372,0.5432,0.5428,0.5428,0.5428,0.5428,0.5428,0.5428,0.5432,0.5376,0.4628,0.3951,0.3485,0.342,0.3418,0.3416,0.4637,0.5389,0.5386,0.5386,0.5386,0.5386,0.5423,0.5477,0.561,0.5688,0.5708,0.58,0.5844,0.5942,0.6095,0.6183,0.6244,-1.835,-1.8304,-1.801,-1.6825,-1.709,-1.7246,-1.5806,-1.6036,-1.6322,-1.5584,-1.541,-1.541,-1.541,-1.541,-1.5167,-1.4392,-1.4264,0.0,0.0,-1.3174,-1.4473,-1.7838,-2.0542,-2.2316,-2.2792,-2.3143,-2.3329,-2.3312,-2.265,-2.2232,-2.218,-2.1583,-2.0731,-1.9621,-1.9509,-1.7804,-1.4243,-1.4096,-1.204,-0.8142,-0.8533,-0.7591,-0.5442,-0.3682,-0.3761,-0.5205,-0.1602,0.1871,0.4791,0.1401,0.2068,0.5256,0.5256,0.6133,0.6862,0.173,0.0999,0.2542,0.2542,0.2542,0.2542,0.2609,0.3758,0.4846,0.3147,0.3825,0.4779,0.3013,0.2609,0.3013,0.4779,0.5259,0.5322,0.5312,0.5379,0.5376,0.5432,0.5428,0.5428,0.5428,0.5428,0.5428,0.5428,0.5428,0.5428,0.5428,0.5428,0.5432,0.5376,0.5379,0.5316,0.5326,0.5326,0.5322,0.5312,0.5379,0.5376,0.5428,0.5428,0.5428,0.5428,0.5432,0.5369,0.5435,0.5518,0.5664,0.58,0.5949,0.6101,0.6251,0.6105,0.6118,-1.7873,-1.7801,-1.7687,-1.6536,-1.6414,-1.6392,-1.5585,-1.5584,-1.569,-1.5468,-1.541,-1.5235,-1.4688,-1.4145,-1.3726,-1.3425,-1.2931,-1.2504,0.0,-1.2205,-1.2821,-1.4531,-1.7087,-1.8862,-1.9224,-2.0826,-2.138,-2.0316,-2.0282,-1.996,-1.9166,-1.8904,-1.8078,-1.659,-1.605,-1.4458,-1.1555,-1.0843,-0.9458,-0.7335,-0.6758,-0.6113,-0.5333,-0.2275,0.0067,0.1743,0.1805,0.3149,0.5333,0.409,0.4752,0.6448,0.5708,0.6102,0.6824,0.4483,0.3949,0.4478,0.4498,0.4503,0.4503,0.4498,0.4909,0.5256,0.4691,0.4903,0.5256,0.4634,0.4495,0.4631,0.5246,0.5379,0.5372,0.5369,0.5432,0.5432,0.5428,0.5428,0.5428,0.5428,0.5428,0.5428,0.5428,0.5428,0.5428,0.5428,0.5428,0.5428,0.5432,0.5888,0.6276,0.628,0.628,0.628,0.6276,0.5756,0.541,0.5508,0.5511,0.5555,0.5647,0.6271,0.6684,0.6684,0.7364,0.771,0.7774,0.7842,0.7984,0.811,0.7381,0.6708,-1.7553,-1.7268,-1.6904,-1.6057,-1.5589,-1.529,-1.5194,-1.4902,-1.4736,-1.4961,-1.4756,-1.4392,-1.3855,-1.3373,-1.2887,-1.2634,-1.2143,-1.171,0.0,-1.1344,-1.1593,-1.2089,-1.4163,-1.5801,-1.6256,-1.7468,-1.793,-1.7164,-1.7368,-1.7071,-1.6001,-1.5914,-1.533,-1.3961,-1.3152,-1.1639,-0.9487,-0.8965,-0.7927,-0.6511,-0.5729,-0.4718,-0.3357,0.0267,0.3222,0.5336,0.4164,0.4295,0.5389,0.5376,0.5837,0.6436,0.5697,0.5947,0.6593,0.5704,0.5369,0.5418,0.5376,0.5382,0.5382,0.5376,0.5376,0.5379,0.5432,0.5372,0.5382,0.5376,0.5372,0.5372,0.5372,0.5432,0.5428,0.5428,0.5428,0.5428,0.5428,0.5624,0.5881,0.5881,0.6145,0.6338,0.6338,0.6338,0.621,0.5881,0.5881,0.5947,0.6272,0.6789,0.7046,0.6719,0.6719,0.6618,0.6356,0.5823,0.5765,0.6212,0.6216,0.6398,0.6857,0.7491,0.7845,0.7845,0.8553,0.8877,0.8877,0.8959,0.9078,0.9153,0.8486,0.7886]},{"header":{"parameterUnit":"m.s-1","parameterCategory":1,"la1":30.6,"la2":29.2853,"lo1":-89.7004,"lo2":-87.6739,"dy":0.0162,"dx":0.0183,"nx":112,"ny":82,"refTime":"2023-06-06T06:00:00:Z","depth":0,"parameterNumber":3,"parameterNumberName":"V-component_of_WINDS"},"data":[0.0,0.0,0.0,0.0,0.0,0.0,0.0,0.0,0.0,0.0,0.0,0.0,0.0,0.0,0.0,0.0,0.0,0.0,0.0,0.0,0.0,0.0,0.0,0.0,0.0,0.0,0.0,0.0,0.0,0.0,0.0,0.0,0.0,0.0,0.0,0.0,0.0,0.0,0.0,0.0,0.0,0.0,0.0,0.0,0.0,0.0,0.0,0.0,0.0,0.0,0.0,0.0,0.0,0.0,0.0,0.0,0.0,0.0,0.0,0.0,0.0,0.0,0.0,0.0,0.0,0.0,0.0,0.0,0.0,0.0,0.0,0.0,0.0,0.0,0.0,0.0,0.0,0.0,0.0,0.0,0.0,0.0,0.0,0.0,0.0,0.0,0.0,0.0,0.0,0.0,-3.9727,-3.9595,-3.9697,-3.989,-4.0159,-4.03,-4.0479,-4.0779,0.0,0.0,0.0,0.0,0.0,0.0,0.0,0.0,0.0,0.0,0.0,0.0,0.0,0.0,0.0,0.0,0.0,0.0,0.0,0.0,0.0,0.0,0.0,0.0,0.0,0.0,0.0,0.0,0.0,0.0,0.0,0.0,0.0,0.0,0.0,0.0,0.0,0.0,0.0,0.0,0.0,0.0,0.0,0.0,0.0,0.0,0.0,0.0,0.0,0.0,0.0,0.0,0.0,0.0,0.0,0.0,0.0,0.0,0.0,0.0,0.0,0.0,0.0,0.0,0.0,0.0,0.0,0.0,0.0,0.0,0.0,0.0,0.0,0.0,0.0,0.0,0.0,0.0,0.0,0.0,0.0,0.0,0.0,0.0,0.0,0.0,0.0,0.0,0.0,0.0,0.0,0.0,0.0,0.0,0.0,0.0,0.0,0.0,0.0,0.0,0.0,0.0,0.0,0.0,-3.9632,-3.9599,-3.9622,-3.9759,-4.0101,-4.0183,-4.0395,-4.0777,0.0,0.0,0.0,0.0,0.0,0.0,0.0,0.0,0.0,0.0,0.0,0.0,0.0,0.0,0.0,0.0,0.0,0.0,0.0,0.0,0.0,0.0,0.0,0.0,0.0,0.0,0.0,0.0,0.0,0.0,0.0,0.0,0.0,0.0,0.0,0.0,0.0,0.0,0.0,0.0,0.0,0.0,0.0,0.0,0.0,0.0,0.0,0.0,0.0,0.0,0.0,0.0,0.0,0.0,0.0,0.0,0.0,0.0,0.0,0.0,0.0,0.0,0.0,0.0,0.0,0.0,0.0,0.0,0.0,0.0,0.0,0.0,0.0,0.0,0.0,0.0,0.0,0.0,0.0,0.0,0.0,0.0,0.0,0.0,0.0,0.0,0.0,0.0,0.0,0.0,0.0,0.0,0.0,0.0,0.0,0.0,0.0,0.0,0.0,0.0,0.0,0.0,0.0,-3.8493,-3.8414,-3.8659,-3.8689,-3.8915,-3.951,-3.9766,-4.0061,-4.0434,-4.068,0.0,0.0,0.0,0.0,0.0,0.0,0.0,0.0,0.0,0.0,0.0,0.0,0.0,0.0,0.0,0.0,0.0,0.0,0.0,0.0,0.0,0.0,0.0,0.0,0.0,0.0,0.0,0.0,0.0,0.0,0.0,0.0,0.0,0.0,0.0,0.0,0.0,0.0,0.0,0.0,0.0,0.0,0.0,0.0,0.0,0.0,0.0,0.0,0.0,0.0,0.0,0.0,0.0,0.0,0.0,0.0,0.0,0.0,0.0,0.0,0.0,0.0,0.0,0.0,0.0,0.0,0.0,0.0,0.0,0.0,0.0,0.0,0.0,0.0,0.0,0.0,0.0,0.0,0.0,0.0,0.0,0.0,0.0,0.0,0.0,0.0,0.0,0.0,0.0,0.0,0.0,0.0,0.0,0.0,0.0,0.0,0.0,0.0,0.0,0.0,0.0,0.0,-3.7433,-3.7323,-3.7685,-3.772,-3.8059,-3.8869,-3.9175,-3.958,-4.0169,-4.0498,0.0,0.0,0.0,0.0,0.0,0.0,0.0,0.0,0.0,0.0,0.0,0.0,0.0,0.0,0.0,0.0,0.0,0.0,0.0,0.0,0.0,0.0,0.0,0.0,0.0,0.0,0.0,0.0,0.0,0.0,0.0,0.0,0.0,0.0,0.0,0.0,0.0,0.0,0.0,0.0,0.0,0.0,0.0,0.0,0.0,0.0,0.0,0.0,0.0,0.0,0.0,0.0,0.0,0.0,0.0,0.0,0.0,0.0,0.0,0.0,0.0,0.0,0.0,0.0,0.0,0.0,0.0,0.0,0.0,0.0,0.0,0.0,0.0,0.0,0.0,0.0,0.0,0.0,0.0,0.0,0.0,0.0,0.0,0.0,0.0,0.0,0.0,0.0,0.0,0.0,0.0,0.0,0.0,0.0,0.0,0.0,0.0,0.0,0.0,0.0,0.0,0.0,-3.721,-3.721,-3.7266,-3.7248,-3.756,-3.8383,-3.8474,-3.8988,-4.0134,-4.0231,0.0,0.0,0.0,0.0,0.0,0.0,0.0,0.0,0.0,0.0,0.0,0.0,0.0,0.0,0.0,0.0,0.0,0.0,0.0,0.0,0.0,0.0,0.0,0.0,0.0,0.0,0.0,0.0,0.0,0.0,0.0,0.0,0.0,0.0,0.0,0.0,0.0,0.0,0.0,0.0,0.0,0.0,0.0,0.0,0.0,0.0,0.0,0.0,0.0,0.0,0.0,0.0,0.0,0.0,0.0,0.0,0.0,0.0,0.0,0.0,0.0,0.0,0.0,0.0,0.0,0.0,0.0,0.0,0.0,0.0,0.0,0.0,0.0,0.0,0.0,0.0,0.0,0.0,0.0,0.0,0.0,0.0,0.0,0.0,0.0,0.0,0.0,0.0,0.0,0.0,0.0,0.0,0.0,0.0,0.0,0.0,0.0,0.0,0.0,0.0,0.0,0.0,-3.6104,-3.6316,-3.6684,-3.6684,-3.7061,-3.8008,-3.8277,-3.8822,-3.977,0.0,0.0,0.0,0.0,0.0,0.0,0.0,0.0,0.0,0.0,0.0,0.0,0.0,0.0,0.0,0.0,0.0,0.0,0.0,0.0,0.0,0.0,0.0,0.0,0.0,0.0,0.0,0.0,0.0,0.0,0.0,0.0,0.0,0.0,0.0,0.0,0.0,0.0,0.0,0.0,0.0,0.0,0.0,0.0,0.0,0.0,0.0,0.0,0.0,0.0,0.0,0.0,0.0,0.0,0.0,0.0,0.0,0.0,0.0,0.0,0.0,0.0,0.0,0.0,0.0,0.0,0.0,0.0,0.0,0.0,0.0,0.0,0.0,0.0,0.0,0.0,0.0,0.0,0.0,0.0,0.0,0.0,0.0,0.0,0.0,0.0,0.0,0.0,0.0,0.0,0.0,0.0,0.0,0.0,0.0,0.0,0.0,0.0,0.0,0.0,0.0,0.0,-3.5046,-3.5351,-3.5739,-3.6097,-3.6139,-3.6481,-3.7342,-3.7803,-3.8407,-3.9295,0.0,0.0,0.0,0.0,0.0,0.0,0.0,0.0,0.0,0.0,0.0,0.0,0.0,0.0,0.0,0.0,0.0,0.0,0.0,0.0,0.0,0.0,0.0,0.0,0.0,0.0,0.0,0.0,0.0,0.0,0.0,0.0,0.0,0.0,0.0,0.0,0.0,0.0,0.0,0.0,0.0,0.0,0.0,0.0,0.0,0.0,0.0,0.0,0.0,0.0,0.0,0.0,0.0,0.0,0.0,0.0,0.0,0.0,0.0,0.0,0.0,0.0,0.0,0.0,0.0,0.0,0.0,0.0,0.0,0.0,0.0,0.0,0.0,0.0,0.0,0.0,0.0,0.0,0.0,0.0,0.0,0.0,0.0,0.0,0.0,0.0,0.0,0.0,0.0,0.0,0.0,0.0,0.0,0.0,0.0,0.0,0.0,0.0,0.0,0.0,0.0,0.0,-3.4472,-3.5131,-3.5605,-3.5605,-3.5605,-3.581,-3.6316,-3.6865,-3.7646,0.0,0.0,0.0,0.0,0.0,0.0,0.0,0.0,0.0,0.0,0.0,0.0,0.0,0.0,0.0,0.0,0.0,0.0,0.0,0.0,0.0,0.0,0.0,0.0,0.0,0.0,0.0,0.0,0.0,0.0,0.0,0.0,0.0,0.0,0.0,0.0,0.0,0.0,0.0,0.0,0.0,0.0,0.0,0.0,0.0,0.0,0.0,0.0,0.0,0.0,0.0,0.0,0.0,0.0,0.0,0.0,0.0,0.0,0.0,0.0,0.0,0.0,0.0,0.0,0.0,0.0,0.0,0.0,0.0,0.0,0.0,0.0,0.0,0.0,0.0,0.0,0.0,0.0,0.0,0.0,0.0,0.0,0.0,0.0,0.0,0.0,0.0,0.0,0.0,0.0,0.0,0.0,0.0,0.0,0.0,0.0,0.0,0.0,0.0,0.0,0.0,0.0,0.0,-3.2933,-3.3592,-3.4066,-3.4066,-3.4523,-3.5053,-3.5578,-3.6605,-3.756,-3.846,0.0,0.0,0.0,0.0,0.0,0.0,0.0,0.0,0.0,0.0,0.0,0.0,0.0,0.0,0.0,0.0,0.0,0.0,0.0,0.0,0.0,0.0,0.0,0.0,0.0,0.0,0.0,0.0,0.0,0.0,0.0,0.0,0.0,0.0,0.0,0.0,0.0,0.0,0.0,0.0,0.0,0.0,0.0,0.0,0.0,0.0,0.0,0.0,0.0,0.0,0.0,0.0,0.0,0.0,0.0,0.0,0.0,0.0,0.0,0.0,0.0,0.0,0.0,0.0,0.0,0.0,0.0,0.0,0.0,0.0,0.0,0.0,0.0,0.0,0.0,0.0,0.0,0.0,0.0,0.0,0.0,0.0,0.0,0.0,0.0,0.0,0.0,0.0,0.0,0.0,0.0,0.0,0.0,0.0,0.0,0.0,0.0,0.0,0.0,0.0,0.0,0.0,-3.2273,-3.2933,-3.3406,-3.3406,-3.3795,-3.4338,-3.4929,-3.605,-3.7131,-3.8008,0.0,0.0,0.0,0.0,0.0,0.0,0.0,0.0,0.0,0.0,0.0,0.0,0.0,0.0,0.0,0.0,0.0,0.0,0.0,0.0,0.0,0.0,0.0,0.0,0.0,0.0,0.0,0.0,0.0,0.0,0.0,0.0,0.0,0.0,0.0,0.0,0.0,0.0,0.0,0.0,0.0,0.0,0.0,0.0,0.0,0.0,0.0,0.0,0.0,0.0,0.0,0.0,0.0,0.0,0.0,0.0,0.0,0.0,0.0,0.0,0.0,0.0,0.0,0.0,0.0,0.0,0.0,0.0,0.0,0.0,0.0,0.0,0.0,0.0,0.0,0.0,0.0,0.0,0.0,0.0,0.0,0.0,0.0,0.0,0.0,0.0,0.0,0.0,0.0,0.0,0.0,0.0,0.0,0.0,0.0,0.0,0.0,0.0,0.0,0.0,0.0,0.0,-3.2032,-3.2739,-3.3203,-3.3203,-3.3271,-3.3575,-3.4235,-3.524,-3.631,-3.7376,0.0,0.0,0.0,0.0,0.0,0.0,0.0,0.0,0.0,0.0,0.0,0.0,0.0,0.0,0.0,0.0,0.0,0.0,0.0,0.0,0.0,0.0,0.0,0.0,0.0,0.0,0.0,0.0,0.0,0.0,0.0,0.0,0.0,0.0,0.0,0.0,0.0,0.0,0.0,0.0,0.0,0.0,0.0,0.0,0.0,0.0,0.0,0.0,0.0,0.0,0.0,0.0,0.0,0.0,0.0,0.0,0.0,0.0,0.0,0.0,-3.3077,-3.3582,0.0,0.0,0.0,0.0,0.0,0.0,0.0,0.0,0.0,0.0,0.0,0.0,0.0,0.0,0.0,0.0,0.0,0.0,0.0,0.0,0.0,0.0,0.0,0.0,0.0,0.0,0.0,0.0,0.0,0.0,0.0,0.0,0.0,0.0,0.0,0.0,0.0,0.0,0.0,0.0,-3.0709,-3.1288,-3.1664,-3.1664,-3.2171,-3.2577,-3.2747,-3.3886,-3.5089,-3.6256,-3.7184,0.0,0.0,0.0,0.0,0.0,0.0,0.0,0.0,0.0,0.0,0.0,0.0,0.0,0.0,0.0,0.0,0.0,0.0,0.0,0.0,0.0,0.0,0.0,0.0,0.0,0.0,0.0,0.0,0.0,0.0,0.0,0.0,0.0,0.0,0.0,0.0,0.0,0.0,0.0,0.0,0.0,0.0,0.0,0.0,0.0,0.0,0.0,0.0,0.0,0.0,0.0,0.0,0.0,0.0,0.0,0.0,0.0,0.0,0.0,-3.2114,-3.261,0.0,0.0,0.0,0.0,0.0,0.0,0.0,0.0,0.0,0.0,0.0,0.0,0.0,0.0,0.0,0.0,0.0,0.0,0.0,0.0,0.0,0.0,0.0,0.0,0.0,0.0,0.0,0.0,0.0,0.0,0.0,0.0,0.0,0.0,0.0,0.0,0.0,0.0,0.0,0.0,-3.0699,-3.1015,-3.119,-3.119,-3.1529,-3.1901,-3.2297,-3.3154,-3.4169,-3.5349,-3.6447,0.0,0.0,0.0,0.0,0.0,0.0,0.0,0.0,0.0,0.0,0.0,0.0,0.0,0.0,0.0,0.0,0.0,0.0,0.0,0.0,0.0,0.0,0.0,0.0,0.0,0.0,0.0,0.0,0.0,0.0,0.0,0.0,0.0,0.0,0.0,0.0,0.0,0.0,0.0,0.0,0.0,0.0,0.0,0.0,0.0,0.0,0.0,0.0,0.0,0.0,0.0,0.0,0.0,-2.7484,-2.792,-2.8748,-2.8748,-2.9254,-3.0133,-3.0777,-3.1219,-3.1482,-3.1482,0.0,0.0,0.0,0.0,0.0,0.0,0.0,0.0,0.0,0.0,0.0,0.0,0.0,0.0,0.0,0.0,0.0,0.0,0.0,0.0,0.0,0.0,-3.1482,-3.1482,-3.1377,-3.136,-3.136,0.0,0.0,0.0,0.0,0.0,0.0,0.0,0.0,0.0,0.0,0.0,-3.0838,-3.1055,-3.119,-3.119,-3.119,-3.1444,-3.2036,-3.2526,-3.3293,-3.4553,-3.5661,-3.663,0.0,0.0,0.0,0.0,0.0,0.0,0.0,0.0,0.0,0.0,0.0,0.0,0.0,0.0,0.0,0.0,0.0,0.0,0.0,0.0,0.0,0.0,0.0,0.0,0.0,0.0,0.0,0.0,0.0,0.0,0.0,0.0,-1.6563,-1.9193,0.0,0.0,0.0,0.0,0.0,0.0,0.0,0.0,0.0,0.0,0.0,0.0,0.0,-2.6528,-2.6507,-2.6603,-2.6658,-2.6658,-2.6658,-2.7095,-2.7855,-2.7855,-2.8363,-2.9192,-2.9254,0.0,-3.1482,-3.1482,0.0,0.0,0.0,0.0,0.0,0.0,0.0,0.0,0.0,0.0,0.0,0.0,0.0,0.0,0.0,0.0,0.0,0.0,0.0,0.0,0.0,0.0,-3.1482,-3.1482,-3.1076,-3.0642,-3.0642,-3.0567,-3.0342,-2.9804,-2.9282,-2.8839,0.0,0.0,0.0,0.0,0.0,0.0,-2.9673,-3.0559,-3.119,-3.119,-3.119,-3.1241,-3.1326,-3.1404,-3.2121,-3.3756,-3.4018,-3.5148,-3.7422,-3.7588,0.0,0.0,0.0,0.0,0.0,0.0,0.0,0.0,0.0,0.0,0.0,0.0,0.0,0.0,0.0,0.0,0.0,0.0,0.0,0.0,0.0,0.0,0.0,0.0,0.0,0.0,0.0,0.0,0.0,-1.5709,-1.5627,-1.6866,-1.8238,-1.9335,0.0,0.0,0.0,0.0,0.0,0.0,0.0,0.0,0.0,-2.3194,-2.3183,-2.4258,-2.6493,-2.6532,-2.6496,-2.6487,-2.6483,-2.6658,-2.704,-2.704,-2.7484,-2.8233,-2.8233,-2.8939,-3.0133,-3.0644,-3.0837,-3.0896,0.0,0.0,0.0,0.0,-3.1482,-3.1482,-3.1482,-3.1482,-3.1482,-3.1482,0.0,0.0,0.0,0.0,0.0,0.0,0.0,-3.1482,-3.1482,-3.124,-3.0956,-3.0956,-3.0447,-2.9879,-2.952,-2.943,-2.9355,-2.9086,-2.8487,-2.8023,-2.8023,-2.8568,0.0,0.0,0.0,-3.0699,-3.0435,-3.0878,-3.119,-3.119,-3.119,-3.119,-3.119,-3.119,-3.1623,-3.2564,-3.33,-3.4324,-3.5703,-3.6893,-3.7713,0.0,0.0,0.0,0.0,0.0,0.0,0.0,0.0,0.0,0.0,0.0,0.0,0.0,0.0,0.0,0.0,0.0,0.0,0.0,0.0,0.0,0.0,0.0,0.0,0.0,0.0,0.0,0.0,-1.5234,-1.5303,-1.5518,-1.6899,-1.8156,0.0,0.0,0.0,0.0,0.0,0.0,-2.0595,-2.0626,-2.0573,-2.0573,-2.0576,-2.2512,-2.6469,-2.5527,-2.5477,-2.649,-2.6156,-2.6206,-2.6521,-2.6213,-2.6552,-2.7417,-2.7417,-2.7736,-2.8427,-2.9766,-3.0329,-3.0389,-3.1219,-3.1482,-3.1482,-3.1482,-3.1482,-3.1482,-3.1482,-3.1482,-3.1482,-3.1482,-3.1482,-3.1482,-3.1482,0.0,0.0,0.0,0.0,-3.127,-3.127,-3.0776,-3.0268,-3.0268,-2.9789,-2.9205,-2.8712,-2.8472,-2.8338,-2.8338,-2.7919,-2.7625,-2.7625,-2.8575,0.0,-2.918,-3.0351,-3.1151,-3.1015,-3.1095,-3.119,-3.119,-3.119,-3.119,-3.119,-3.119,-3.1389,-3.1789,-3.2792,-3.3708,-3.4375,-3.5969,-3.7055,-3.7477,0.0,0.0,0.0,0.0,0.0,0.0,0.0,0.0,0.0,0.0,0.0,0.0,0.0,0.0,0.0,0.0,0.0,0.0,0.0,0.0,0.0,0.0,0.0,0.0,0.0,0.0,0.0,0.0,0.0,-1.6428,-1.6955,0.0,0.0,0.0,0.0,-1.8991,-1.8483,-1.887,-2.0481,-2.0585,-2.0585,-2.0585,-2.0595,-2.248,-2.6432,-2.2798,-2.2809,-2.6457,-2.5236,-2.524,-2.6473,-2.5527,-2.5581,-2.6589,-2.6589,-2.6589,-2.685,-2.9254,-3.0329,-3.0389,-3.1219,-3.1482,-3.1482,-3.1482,-3.1482,-3.1482,-3.1482,-3.1482,-3.1482,-3.1482,-3.1482,-3.1482,-3.1482,-3.1482,0.0,0.0,-3.1061,-3.0552,-3.0552,-3.0088,-2.9624,-2.9624,-2.9131,-2.8637,-2.8607,-2.8083,-2.7619,-2.7619,-2.764,-2.7625,-2.7625,0.0,-2.9225,-2.8654,-3.0081,-3.1015,-3.0435,-3.0838,-3.119,-3.119,-3.119,-3.119,-3.119,-3.119,-3.1389,-3.1789,-3.2283,-3.3105,-3.4357,-3.4874,-3.5881,-3.7489,-3.7544,0.0,0.0,0.0,0.0,0.0,0.0,0.0,0.0,0.0,0.0,0.0,0.0,0.0,0.0,0.0,0.0,0.0,0.0,0.0,0.0,0.0,0.0,0.0,0.0,0.0,0.0,0.0,0.0,-1.4799,-1.5981,0.0,-1.7283,-1.7913,-1.8288,-1.8288,-1.8151,-1.8295,-1.8877,-1.8938,-1.8908,-1.8908,-1.8951,-2.0124,-2.2659,-2.1282,-2.1338,-2.2684,-2.2182,-2.288,-2.4563,-2.5525,-2.6177,-2.6533,-2.6533,-2.6533,-2.6589,-2.8051,-2.862,-2.8748,-3.0208,-3.0389,-3.0011,-3.1087,-3.0837,-3.0072,-3.1146,-3.1161,-3.0837,-3.1351,-3.1482,-3.1482,-3.1482,-3.1225,-3.0866,-3.0866,-3.0402,-2.9909,-2.9909,-2.943,-2.8951,-2.8951,-2.8427,-2.7934,-2.7934,-2.779,-2.7625,-2.7625,-2.7625,-2.771,-2.8091,-2.8873,-2.9451,-2.9629,-3.0518,-3.1112,-3.0918,-3.1055,-3.119,-3.119,-3.119,-3.119,-3.119,-3.119,-3.1252,-3.1411,-3.2092,-3.2707,-3.3155,-3.4086,-3.4879,-3.549,-3.6508,-3.7239,0.0,0.0,0.0,0.0,0.0,0.0,0.0,0.0,0.0,0.0,0.0,0.0,0.0,0.0,0.0,0.0,0.0,0.0,0.0,0.0,0.0,0.0,0.0,0.0,0.0,-1.4099,-1.445,-1.3818,-1.5438,-1.6636,-1.6636,-1.7432,-1.8008,-1.8008,-1.7996,-1.7983,-1.7983,-1.7963,-1.8005,-1.8005,-1.8,-1.8537,-1.9735,-1.9748,-1.9707,-1.9686,-1.9706,-2.0561,-2.2134,-2.4401,-2.5456,-2.5481,-2.602,-2.6163,-2.6244,-2.7018,-2.7284,-2.7484,-2.9192,-2.969,-2.9566,-3.0703,-3.0584,-3.0011,-3.1087,-3.1161,-3.0777,-3.1351,-3.1375,-3.118,-3.118,-3.0717,-3.0193,-3.0193,-2.9744,-2.925,-2.925,-2.8757,-2.8248,-2.8248,-2.7904,-2.7625,-2.7625,-2.7625,-2.7625,-2.7625,-2.7625,-2.781,-2.8383,-2.9012,-2.9585,-3.0208,-3.0797,-3.119,-3.119,-3.119,-3.119,-3.119,-3.119,-3.119,-3.119,-3.119,-3.119,-3.119,-3.1878,-3.2264,-3.2264,-3.3212,-3.4006,-3.4526,-3.6123,-3.6874,-3.6772,0.0,0.0,0.0,0.0,0.0,0.0,0.0,0.0,0.0,0.0,0.0,0.0,0.0,0.0,0.0,0.0,0.0,0.0,0.0,0.0,0.0,0.0,0.0,-1.215,-1.3091,-1.3673,-1.3673,-1.5367,-1.6567,-1.6489,-1.7364,-1.794,-1.794,-1.794,-1.794,-1.8008,-1.8008,-1.8008,-1.8008,-1.8033,-1.7986,-1.7986,-1.7993,-1.7998,-1.7998,-1.8007,-1.8476,-1.9344,-2.2043,-2.3358,-2.3604,-2.4992,-2.5573,-2.5611,-2.6176,-2.6483,-2.6607,-2.8285,-2.9442,-3.0208,-3.0269,-3.0822,-3.1452,-3.1437,-3.1437,-3.1422,-3.1422,-3.1016,-3.0477,-3.0477,-3.0043,-2.9549,-2.9549,-2.9086,-2.8562,-2.8562,-2.8068,-2.7625,-2.7625,-2.7625,-2.7625,-2.7625,-2.7625,-2.7625,-2.7625,-2.7625,-2.781,-2.8415,-2.8996,-2.9629,-3.0251,-3.0838,0.0,-3.119,-3.119,-3.119,-3.119,-3.119,-3.119,-3.119,-3.119,-3.119,-3.119,-3.1565,-3.1789,-3.1789,-3.2248,-3.3191,-3.473,-3.6288,-3.6951,-3.6672,0.0,0.0,0.0,0.0,0.0,0.0,0.0,0.0,0.0,0.0,0.0,0.0,0.0,0.0,0.0,0.0,0.0,0.0,0.0,0.0,0.0,-1.1013,-1.1162,-1.215,-1.3091,-1.3455,-1.2732,-1.4371,-1.5296,-1.4593,-1.5376,-1.6228,-1.6922,-1.7001,-1.7285,-1.794,-1.8008,-1.8008,-1.8008,-1.8027,-1.8007,-1.8007,-1.8016,-1.7995,-1.7995,-1.8014,-1.8145,-1.8429,-2.0466,-2.2117,-2.358,-2.4554,-2.5034,-2.5046,-2.5209,-2.5272,-2.5479,-2.7341,-2.7855,-2.7802,-2.9628,-3.0529,-3.0663,-3.0133,-3.0026,-3.0118,-3.0118,-2.9998,-2.9834,-2.9834,-2.9385,-2.8861,-2.8861,-2.8382,-2.7859,-2.7859,-2.776,-2.7625,-2.7625,-2.7625,-2.7625,-2.7625,-2.7625,-2.7625,-2.7625,-2.7625,-2.7944,-2.895,-2.9271,-2.9761,-3.0797,-3.1095,-3.119,-3.119,-3.119,-3.119,-3.119,-3.119,-3.119,-3.119,-3.119,-3.119,-3.119,-3.1565,-3.1789,-3.1789,-3.1915,-3.2492,-3.356,-3.4014,-3.4884,0.0,0.0,0.0,0.0,0.0,0.0,0.0,0.0,0.0,0.0,0.0,0.0,0.0,0.0,0.0,0.0,0.0,0.0,0.0,0.0,0.0,0.0,-1.019,-1.049,-1.1545,-1.2505,-1.2879,-1.2372,-1.3665,-1.4314,-1.3745,-1.4593,-1.5587,-1.6498,-1.621,-1.6428,-1.7354,-1.7793,-1.7978,-1.7978,-1.7979,-1.8008,-1.8008,-1.8008,-1.8008,-1.8018,-1.7987,-1.837,-1.9116,-2.0133,-2.1406,-2.2858,-2.3974,-2.4469,-2.4494,-2.472,-2.482,-2.4883,0.0,0.0,0.0,0.0,-2.9086,-2.9131,-2.8958,-2.897,-2.9138,-2.951,-2.94,-2.916,-2.916,-2.8697,-2.8173,-2.8173,-2.7874,-2.7625,-2.7625,-2.7625,-2.7625,-2.7625,-2.7625,-2.7625,-2.7625,-2.7625,-2.7625,-2.7625,-2.7625,0.0,-2.918,-2.9406,-2.9805,-3.1015,-3.119,-3.119,-3.119,-3.119,-3.119,-3.119,-3.119,-3.119,-3.119,-3.119,0.0,0.0,0.0,-3.1545,-3.1545,-3.1836,0.0,0.0,0.0,-3.371,-3.4723,-3.4592,0.0,0.0,-3.5917,-3.5898,0.0,0.0,0.0,0.0,0.0,0.0,0.0,0.0,0.0,0.0,0.0,0.0,0.0,0.0,0.0,0.0,-0.915,-0.9518,-1.0634,-1.1545,-1.215,-1.2298,-1.3025,-1.3528,-1.3528,-1.4378,-1.5226,-1.621,-1.5508,-1.5438,-1.6419,-1.7288,0.0,0.0,0.0,-1.8008,-1.8008,-1.8008,-1.8008,-1.8008,-1.8008,-1.8843,-2.0302,-2.0477,-2.1008,-2.1839,-2.3157,-2.3829,-2.3941,-2.4431,-2.4632,-2.4644,-2.477,-2.5358,-2.6193,-2.6927,-2.7228,-2.7407,-2.8054,0.0,0.0,-2.9163,-2.8966,-2.8487,-2.8487,-2.8053,-2.7625,-2.7625,-2.7625,-2.7625,-2.7625,-2.7625,-2.7625,-2.7625,-2.7625,-2.7625,-2.7625,-2.7625,-2.7625,-2.7625,-2.7625,-2.7993,-2.918,-2.9406,-2.9805,-3.1015,-3.119,-3.119,-3.119,-3.119,-3.119,-3.119,-3.119,0.0,-3.119,-3.119,-3.119,-3.119,-3.119,-3.119,-3.119,-3.1816,-3.2054,-3.1733,-3.2684,-3.3093,-3.2945,-3.3179,-3.366,-3.4387,-3.5148,-3.5537,0.0,0.0,0.0,0.0,0.0,0.0,0.0,0.0,0.0,0.0,0.0,0.0,0.0,0.0,0.0,-0.8062,-0.8084,-0.8761,-1.0559,-1.0938,-1.1391,-1.2224,-1.2445,-1.2592,-1.2592,-1.2732,-1.3237,-1.4163,-1.4099,-1.445,-1.5446,-1.6131,-1.6917,-1.7985,-1.8037,-1.8008,-1.8008,-1.8008,-1.8008,-1.8008,-1.8008,0.0,-1.8542,-1.994,-2.0673,-2.0921,-2.1859,-2.2665,-2.3314,-2.3414,-2.3403,-2.3552,-2.4469,-2.5358,-2.6131,-2.6241,-2.6817,-2.7508,-2.7619,-2.772,-2.778,-2.7964,-2.7874,-2.7769,-2.7769,-2.773,0.0,-2.7625,-2.7625,-2.7625,-2.7625,-2.7625,-2.7625,-2.7625,-2.7625,-2.7625,-2.7625,-2.7625,-2.7625,-2.7625,-2.7625,-2.7993,-2.918,-2.9406,-2.9805,-3.1015,-3.119,-3.119,-3.119,-3.119,-3.119,-3.119,-3.119,-3.119,-3.119,-3.119,-3.119,-3.119,-3.119,-3.119,-3.119,-3.1326,-3.1365,-3.1329,-3.1501,-3.1873,-3.2434,-3.2507,-3.2882,-3.3643,-3.437,-3.503,0.0,0.0,0.0,0.0,0.0,0.0,0.0,0.0,0.0,0.0,0.0,-0.7065,-0.6748,0.0,-0.679,-0.6878,-0.7419,-0.8313,-0.9814,-1.004,-1.0645,-1.215,-1.2305,-1.2305,-1.2305,-1.2305,-1.2659,-1.36,-1.3237,-1.3455,-1.4378,-1.4871,-1.5613,-1.6562,-1.7505,-1.8027,-1.8008,-1.8008,-1.8008,-1.8008,-1.8008,-1.8007,-1.8091,-1.9834,-2.0596,-2.0655,-2.1928,-2.2506,-2.2506,-2.2944,-2.3078,-2.3128,-2.3766,-2.4202,-2.4606,-2.4606,-2.513,-2.5966,-2.6301,-2.6701,-2.7086,-2.7458,-2.7625,-2.7625,-2.7625,-2.7625,-2.7625,-2.7625,-2.7625,-2.7625,-2.7625,-2.7625,-2.7625,-2.7625,-2.7625,-2.7625,-2.7625,-2.7625,-2.7625,-2.7625,-2.7625,-2.7993,-2.918,-2.9406,-2.9805,-3.1015,-3.119,-3.119,-3.119,-3.119,-3.119,-3.119,-3.119,-3.119,-3.119,-3.119,-3.119,-3.119,-3.119,-3.119,-3.119,-3.119,-3.119,-3.119,-3.119,-3.1376,-3.1732,-3.1732,-3.1982,-3.2436,-3.2787,-3.3495,0.0,0.0,0.0,0.0,0.0,0.0,0.0,-0.6083,-0.5659,-0.6451,-0.6082,-0.5589,-0.5735,-0.5861,-0.5952,-0.5979,-0.6783,-0.7799,-0.8779,-0.8969,-0.9674,-1.1477,-1.1922,-1.2077,-1.2305,-1.2305,-1.2592,-1.3382,-1.2739,-1.2666,-1.3382,-1.3935,-1.4338,-1.464,-1.6851,-1.7977,-1.8008,-1.8008,-1.8008,-1.8008,-1.8008,-1.7968,-1.8038,-1.9836,-2.0582,-2.0719,-2.2372,-2.2763,-2.2199,-2.2823,-2.3078,-2.3078,-2.3078,-2.3078,-2.3078,-2.3078,-2.359,-2.4408,-2.5119,-2.5892,-2.6616,-2.7357,-2.7625,-2.7625,-2.7625,-2.7625,-2.7625,-2.7625,-2.7625,-2.7625,-2.7625,-2.7625,-2.7625,-2.7625,-2.7625,-2.7625,-2.7625,-2.7625,-2.7625,-2.7625,-2.7625,-2.7993,-2.918,-2.9406,-2.9805,-3.1015,-3.119,-3.119,-3.119,-3.119,-3.119,-3.119,-3.119,-3.119,-3.119,-3.119,-3.119,-3.119,-3.119,-3.119,-3.119,-3.119,-3.119,-3.119,-3.119,-3.119,-3.119,-3.119,-3.118,-3.1193,-3.1063,-3.179,-1.7196,-1.3781,-1.1019,-0.8389,-0.7274,-0.6681,0.0,-0.5495,-0.5432,-0.5516,-0.5519,-0.5433,-0.5586,-0.5627,-0.5681,-0.5806,-0.6026,-0.657,-0.7525,-0.7824,-0.8389,-0.9523,-1.0415,-1.1316,-1.2224,-1.2305,-1.2372,-1.2445,-1.2372,-1.2378,-1.2445,-1.3572,-1.3742,-1.2643,-1.614,-1.7977,-1.8008,-1.8008,-1.8008,-1.8008,-1.8008,-1.7988,-1.8037,-1.9796,-2.0565,-2.0719,-2.2372,-2.3078,-2.2944,-2.3078,-2.3078,-2.3078,-2.3078,-2.3078,-2.3078,-2.3078,-2.359,-2.4408,-2.5119,-2.5892,-2.6616,-2.7357,-2.7625,-2.7625,-2.7625,-2.7625,-2.7625,-2.7625,-2.7625,-2.7625,-2.7625,-2.7625,-2.7625,-2.7625,-2.7625,-2.7625,-2.7625,-2.7625,-2.7625,-2.7625,-2.7625,-2.7993,-2.918,-2.9406,-2.9805,-3.1015,-3.119,-3.119,-3.119,-3.119,-3.119,-3.119,-3.119,-3.119,-3.119,-3.119,-3.119,-3.119,-3.119,-3.119,-3.119,-3.119,-3.119,-3.119,-3.119,-3.119,-3.119,-3.119,-3.0912,-3.0425,-2.9874,-3.0408,-1.6005,-1.2989,-1.0309,-0.9612,-0.7742,-0.609,-0.6129,-0.5752,-0.5428,-0.5428,-0.5428,-0.5449,-0.5447,-0.5532,-0.561,-0.5671,-0.58,-0.6288,-0.7331,-0.7049,-0.7358,-0.913,-0.914,-0.9664,-1.1242,-1.1996,-1.2305,-1.2305,-1.2305,-1.2305,-1.2305,-1.2826,-1.2839,-1.2324,-1.6017,-1.8023,-1.8018,-1.8008,-1.8008,-1.8008,-1.8008,-1.8008,-1.8008,-1.8747,-1.9901,-2.1365,-2.1542,-2.2187,-2.3078,-2.3078,-2.3078,-2.3078,-2.3078,-2.3078,-2.3078,-2.3078,-2.359,-2.4408,-2.5119,-2.5892,-2.6616,-2.7357,-2.7625,-2.7625,-2.7625,-2.7625,-2.7625,-2.7625,-2.7625,-2.7625,-2.7625,-2.7625,-2.7625,-2.7625,-2.7625,-2.7625,-2.7625,-2.7625,-2.7625,-2.7625,-2.7625,-2.7993,-2.918,-2.9406,-2.9805,-3.1015,-3.119,-3.119,-3.119,-3.119,-3.119,-3.119,-3.119,-3.119,-3.119,-3.119,-3.119,-3.119,-3.119,-3.119,-3.119,-3.119,-3.119,-3.119,-3.119,-3.119,-3.119,-3.0838,-3.0393,-2.9761,-2.9134,-2.9029,-1.541,-1.3118,-1.065,-1.0145,-0.7871,-0.5836,-0.626,-0.5881,-0.5428,-0.5428,-0.5428,-0.5428,-0.5428,-0.5454,-0.5456,-0.518,-0.5504,-0.5919,-0.6523,-0.6225,-0.6537,-0.8205,-0.8005,-0.8397,-1.0179,-1.1316,-1.1996,-1.2305,-1.2305,-1.2305,-1.2305,-1.2305,-1.2317,-1.2324,-1.6024,-1.797,-1.8018,-1.8008,-1.8008,-1.8008,-1.8008,-1.8008,-1.7998,-1.8354,-1.9705,-2.1877,-2.1491,-2.199,-2.3078,-2.3078,-2.3078,-2.3078,-2.3078,-2.3078,-2.3078,-2.3078,-2.3484,-2.4118,-2.5063,-2.5728,-2.6336,-2.7306,-2.7625,-2.7625,-2.7625,-2.7625,-2.7625,-2.7625,-2.7625,-2.7625,-2.7625,-2.7625,-2.7625,-2.7625,-2.7625,-2.7625,-2.7625,-2.7625,-2.7625,-2.7625,-2.7625,-2.7993,-2.918,-2.9406,-2.9805,-3.1015,-3.119,-3.119,-3.119,-3.119,-3.119,-3.119,-3.119,-3.119,-3.119,-3.119,-3.119,-3.119,-3.119,-3.119,-3.119,-3.119,-3.119,-3.119,-3.119,-3.1112,-3.0958,-3.0518,-2.9892,-2.9134,-2.8685,-2.8189,-1.5426,-1.3588,-1.1207,-0.927,-0.7718,-0.6461,-0.562,-0.5428,-0.5428,-0.5428,-0.5428,-0.5428,-0.5428,-0.5432,-0.5096,-0.4223,-0.4944,-0.5316,-0.4405,-0.5145,-0.5864,-0.6091,-0.6916,-0.8018,-0.92,-1.0265,-1.1242,-1.2224,-1.2305,-1.2305,-1.2305,-1.2305,-1.2317,-1.2324,-1.6024,-1.797,-1.8018,-1.8008,-1.8008,-1.8008,-1.8008,-1.8008,-1.8066,-1.9175,-2.0464,-2.1939,-2.2702,-2.3065,-2.3078,-2.3078,-2.3078,-2.3078,-2.3078,-2.3078,-2.3078,-2.3078,-2.3138,-2.3365,-2.4881,-2.5398,-2.5673,-2.7137,-2.7625,-2.7625,-2.7625,-2.7625,-2.7625,-2.7625,-2.7625,-2.7625,-2.7625,-2.7625,-2.7625,-2.7625,-2.7625,-2.7625,-2.7625,-2.7625,-2.7625,-2.7625,-2.7625,-2.7993,-2.918,-2.9406,-2.9805,-3.1015,-3.119,-3.119,-3.119,-3.119,-3.119,-3.119,-3.119,-3.119,-3.119,-3.119,-3.119,-3.119,-3.119,-3.119,-3.119,-3.119,-3.119,-3.119,-3.119,-3.0918,-3.0351,-3.0293,-2.9673,-2.8511,-2.8511,-2.8189,-1.4168,-1.1905,-0.9857,-0.9184,-0.7445,-0.5881,-0.6203,-0.5815,-0.5428,-0.5428,-0.5428,-0.5428,-0.5428,-0.5428,-0.509,-0.4151,-0.4319,-0.4441,-0.4245,-0.4499,-0.4997,-0.5785,-0.6257,-0.6935,-0.8026,-0.9718,-1.1242,-1.2224,-1.2305,-1.2305,-1.2305,-1.2305,-1.2317,-1.2324,-1.6024,-1.797,-1.8018,-1.8008,-1.8008,-1.8008,-1.8008,-1.8008,-1.8008,-1.9166,-2.0388,-2.1602,-2.2123,-2.2628,-2.3078,-2.3078,-2.3078,-2.3078,-2.3078,-2.3078,-2.3078,-2.3078,-2.3078,-2.3305,-2.4894,-2.5728,-2.6283,-2.7306,-2.7625,-2.7625,-2.7625,-2.7625,-2.7625,-2.7625,-2.7625,-2.7625,-2.7625,-2.7625,-2.7625,-2.7625,-2.7625,-2.7625,-2.7625,-2.7625,-2.7625,-2.7625,-2.7625,-2.786,-2.8638,-2.9134,-2.9805,-3.1015,-3.119,-3.119,-3.119,-3.119,-3.119,-3.119,-3.119,-3.119,-3.119,-3.119,-3.119,-3.119,-3.119,-3.119,-3.119,-3.119,-3.119,-3.119,-3.119,-3.0878,-3.0293,-2.9892,-2.9271,-2.8511,-2.8091,-2.781,-1.3408,-1.1091,-0.911,-0.8798,-0.7024,-0.5557,-0.6141,-0.5818,-0.5428,-0.5428,-0.5428,-0.5428,-0.5428,-0.5156,-0.4619,-0.368,-0.3547,-0.3446,-0.3197,-0.3767,-0.444,-0.5135,-0.5669,-0.646,-0.7548,-0.8577,-0.984,-1.1446,-1.1601,-1.1761,-1.2305,-1.2305,-1.2317,-1.2324,-1.6014,-1.7976,-1.8018,-1.7998,-1.7998,-1.8008,-1.8008,-1.8008,-1.7998,-1.8777,-1.9976,-2.1429,-2.2073,-2.2628,-2.3078,-2.3078,-2.3078,-2.3078,-2.3078,-2.3078,-2.3078,-2.3078,-2.3305,-2.3708,-2.4951,-2.5728,-2.6283,-2.724,-2.7625,-2.7625,-2.7625,-2.7625,-2.7625,-2.7625,-2.7625,-2.7625,-2.7625,-2.7625,-2.7625,-2.7625,-2.7625,-2.7625,-2.7625,-2.7625,-2.7625,-2.7625,-2.7625,-2.781,-2.8383,-2.918,-3.0081,-3.1055,-3.119,-3.119,-3.119,-3.119,-3.119,-3.119,-3.119,-3.119,-3.119,-3.119,-3.119,-3.119,-3.119,-3.119,-3.119,-3.119,-3.119,-3.119,-3.119,-3.0797,-2.9995,-2.9585,-2.8996,-2.8189,-2.776,-2.7625,-1.3074,-1.1029,-0.8925,-0.8035,-0.6576,-0.5428,-0.5428,-0.5428,-0.5428,-0.5428,-0.5428,-0.5362,-0.5359,-0.4619,-0.368,-0.2811,-0.2611,-0.2299,-0.1391,-0.2931,-0.4087,-0.4198,-0.5225,-0.6452,-0.7739,-0.6921,-0.7352,-0.9878,-1.0289,-1.0989,-1.2231,-1.2305,-1.2324,-1.2331,-1.5999,-1.7887,-1.7696,-1.7889,-1.7977,-1.8008,-1.8008,-1.7998,-1.7978,-1.8006,-1.9287,-2.1568,-2.2604,-2.309,-2.3078,-2.3078,-2.3078,-2.3078,-2.3078,-2.3078,-2.3078,-2.3078,-2.3603,-2.4337,-2.5063,-2.5398,-2.5673,-2.7137,-2.7625,-2.7625,-2.7625,-2.7625,-2.7625,-2.7625,-2.7625,-2.7625,-2.7625,-2.7625,-2.7625,-2.7625,-2.7625,-2.7625,-2.7625,-2.7625,-2.7625,-2.7625,-2.7625,-2.781,-2.8415,-2.9496,-3.0477,-3.1095,-3.119,-3.119,-3.119,-3.119,-3.119,-3.119,-3.119,-3.119,-3.119,-3.119,-3.119,-3.119,-3.119,-3.119,-3.119,-3.119,-3.119,-3.119,-3.119,-3.0617,-2.9451,-2.9406,-2.881,-2.7675,-2.761,-2.7625,-1.2506,-1.019,-0.8071,-0.7228,-0.6199,-0.5428,-0.5428,-0.5428,-0.5428,-0.5428,-0.5428,-0.516,-0.4486,-0.4151,-0.348,-0.1942,-0.1675,-0.1556,-0.1322,-0.1953,-0.2745,-0.3615,-0.4781,-0.5721,-0.6008,-0.5967,-0.6328,-0.7274,-1.0096,-1.1932,-1.2249,-1.2264,-1.2298,-1.2274,-1.5986,-1.6651,-1.3746,-1.6612,-1.7977,-1.8008,-1.8008,-1.7978,-1.7982,-1.7975,-1.9684,-2.2648,-2.2985,-2.3095,-2.3078,-2.3078,-2.3078,-2.3078,-2.3078,-2.3078,-2.3078,-2.3078,-2.3245,-2.3531,-2.4279,-2.5287,-2.639,-2.7306,-2.7625,-2.7625,-2.7625,-2.7625,-2.7625,-2.7625,-2.7625,-2.7625,-2.7625,-2.7625,-2.7625,-2.7625,-2.7625,-2.7625,-2.7625,-2.7625,-2.7625,-2.7625,-2.7625,-2.7944,-2.8996,-2.9406,-2.9995,-3.1055,-3.119,-3.119,-3.119,-3.119,-3.119,-3.119,-3.119,-3.119,-3.119,-3.119,-3.119,-3.119,-3.119,-3.119,-3.119,-3.119,-3.119,-3.119,-3.119,-3.0838,-3.0081,-2.9629,-2.8996,-2.8286,-2.781,-2.7625,-1.1613,-0.9591,-0.7767,-0.6915,-0.6075,-0.5428,-0.5428,-0.5428,-0.5428,-0.5428,-0.5428,-0.509,-0.4151,-0.368,-0.2945,-0.1541,-0.1006,-0.0749,-0.0708,-0.1422,-0.2294,-0.3237,-0.4826,-0.5714,-0.5422,-0.556,-0.5732,-0.5868,-0.8267,-1.0461,-1.2195,-1.2277,-1.2318,-1.2328,-1.434,-1.4462,-1.2342,-1.6105,-1.8016,-1.7988,-1.7979,-1.7997,-1.8071,-1.9557,-2.0477,-2.0974,-2.2452,-2.3108,-2.3078,-2.3078,-2.3078,-2.3078,-2.3078,-2.3078,-2.3078,-2.3078,-2.3078,-2.3185,-2.4002,-2.5063,-2.6122,-2.6878,-2.7357,-2.7625,-2.7625,-2.7625,-2.7625,-2.7625,-2.7625,-2.7625,-2.7625,-2.7625,-2.7625,-2.7625,-2.7625,-2.7625,-2.7625,-2.7625,-2.7625,-2.7625,-2.7625,-2.7894,-2.881,-2.9225,-2.9717,-3.0658,-3.1015,-3.119,-3.119,-3.119,-3.119,-3.119,-3.119,-3.119,-3.119,-3.119,-3.119,-3.119,-3.119,-3.119,-3.119,-3.119,-3.119,-3.119,-3.119,-3.0878,-3.0293,-2.9673,-2.9088,-2.8463,-2.786,-2.7625,-1.0732,-0.9221,-0.7632,-0.6915,-0.6075,-0.5428,-0.5428,-0.5428,-0.5428,-0.5428,-0.5292,-0.4954,-0.4015,-0.3078,-0.221,-0.1274,-0.0471,0.0,0.0,-0.1016,-0.2054,-0.2633,-0.4809,-0.6076,-0.5491,-0.5372,-0.5424,-0.5375,-0.5891,-0.7947,-1.2061,-1.2318,-1.2304,-1.2283,-1.2318,-1.2304,-1.2294,-1.5579,-1.7473,-1.8025,-1.8018,-1.7988,-1.8114,-2.1052,-2.0807,-1.8194,-2.1612,-2.3084,-2.3078,-2.3078,-2.3078,-2.3078,-2.3078,-2.3078,-2.3078,-2.3078,-2.3198,-2.3365,-2.406,-2.4851,-2.5673,-2.6283,-2.6982,-2.7625,-2.7625,-2.7625,-2.7625,-2.7625,-2.7625,-2.7625,-2.7625,-2.7625,-2.7625,-2.7625,-2.7625,-2.7625,-2.7625,-2.7625,-2.7625,-2.7625,-2.766,-2.7894,-2.8511,-2.9042,-2.9629,-3.0309,-3.0797,-3.1112,-3.119,-3.119,-3.119,-3.119,-3.119,-3.119,-3.119,-3.119,-3.119,-3.119,-3.119,-3.119,-3.119,-3.119,-3.119,-3.119,-3.1112,-3.0821,-3.0293,-2.9629,-2.8996,-2.8463,-2.786,-2.7625,-1.0816,-0.8768,-0.6915,-0.6719,-0.6075,-0.5428,-0.5428,-0.5428,-0.5428,-0.5428,-0.4755,-0.3949,-0.3078,-0.2143,-0.1274,-0.0337,-0.0067,0.0,0.0,-0.0216,-0.044,-0.0527,-0.3916,-0.605,-0.5428,-0.5411,-0.5383,-0.5369,-0.5513,-0.7513,-1.2098,-1.2283,-1.229,-1.2265,-1.2291,-1.2324,-1.2281,-1.2955,-1.4854,-1.7988,-1.8027,-1.8035,-1.8029,-1.8627,-1.8578,-1.8187,-2.1614,-2.3082,-2.3078,-2.3078,-2.3078,-2.3078,-2.3078,-2.3078,-2.3078,-2.3078,-2.3531,-2.4118,-2.4234,-2.5175,-2.6336,-2.6457,-2.6982,-2.7625,-2.7625,-2.7625,-2.7625,-2.7625,-2.7625,-2.7625,-2.7625,-2.7625,-2.7625,-2.7625,-2.7625,-2.7625,-2.7625,-2.7625,-2.7625,-2.7625,-2.7993,-2.8559,-2.9134,-2.9316,-2.9761,-3.0878,-3.0699,-3.0658,-3.1151,-3.119,-3.119,-3.119,-3.119,-3.119,-3.119,-3.119,-3.119,-3.119,-3.119,-3.119,-3.119,-3.119,-3.119,-3.119,-3.0699,-3.0393,-3.0293,-2.918,-2.8606,-2.8463,-2.786,-2.7625,-0.9521,-0.8006,-0.6719,-0.6719,-0.6075,-0.5428,-0.5428,-0.5428,-0.5428,-0.5428,-0.4686,-0.3747,-0.2878,-0.1941,-0.1006,-0.0135,0.0,0.0,0.0,0.0,0.0,0.0,-0.1807,-0.363,-0.521,-0.5368,-0.5396,-0.5396,-0.5379,-0.6386,-0.8613,-1.0975,-1.2305,-1.2315,-1.2304,-1.2311,-1.2322,-1.4237,-1.6184,-1.8023,-1.7968,-1.8017,-1.8034,-1.8017,-1.7989,-1.8196,-2.1644,-2.3069,-2.3078,-2.3078,-2.3078,-2.3078,-2.3078,-2.3078,-2.3078,-2.3078,-2.3688,-2.4416,-2.4363,-2.5287,-2.651,-2.651,-2.6982,-2.7625,-2.7625,-2.7625,-2.7625,-2.7625,-2.7625,-2.7625,-2.7625,-2.7625,-2.7625,-2.7625,-2.7625,-2.7625,-2.7625,-2.7625,-2.7625,-2.7625,-2.781,-2.8222,-2.8826,-2.918,-2.9717,-3.0617,-3.074,-3.0878,-3.1151,-3.119,-3.119,-3.119,-3.119,-3.119,-3.119,-3.119,-3.119,-3.119,-3.119,-3.119,-3.119,-3.119,-3.119,-3.119,-3.0617,-3.0293,-3.0293,-2.9088,-2.8511,-2.8463,-2.786,-2.7625,-0.7897,-0.7111,-0.6396,-0.6396,-0.5881,-0.5428,-0.5428,-0.5428,-0.5359,-0.516,-0.435,-0.348,-0.2544,-0.1676,-0.0806,-0.0135,0.0,0.0,0.0,0.0,0.0,0.0,0.0,-0.1116,-0.3978,-0.4913,-0.5372,-0.5428,-0.5418,-0.5706,-0.6483,-0.9991,-1.2016,-1.2255,-1.2319,-1.227,-1.2315,-1.5267,-1.7199,-1.798,-1.7997,-1.8008,-1.8008,-1.8008,-1.8022,-1.8209,-2.1608,-2.3105,-2.3105,-2.3103,-2.3078,-2.3078,-2.3078,-2.3078,-2.3078,-2.3078,-2.3598,-2.4302,-2.4593,-2.5605,-2.6721,-2.6721,-2.7152,-2.7625,-2.7625,-2.7625,-2.7625,-2.7625,-2.7625,-2.7625,-2.7625,-2.7625,-2.7625,-2.7625,-2.7625,-2.7625,-2.7625,-2.7625,-2.7625,-2.7625,-2.771,-2.7944,-2.8415,-2.9012,-2.9585,-3.0208,-3.0699,-3.1055,-3.119,-3.119,-3.119,-3.119,-3.119,-3.119,-3.119,-3.119,-3.119,-3.119,-3.119,-3.119,-3.119,-3.1072,-3.1015,-3.1015,-3.0293,-2.9892,-2.9892,-2.8826,-2.8334,-2.8286,-2.781,-2.7625,-0.685,-0.6203,-0.5491,-0.5491,-0.5425,-0.5428,-0.5428,-0.5428,-0.516,-0.4284,-0.3411,-0.2544,-0.1608,-0.0739,-0.0067,0.0,0.0,0.0,0.0,0.0,0.0,0.0,0.0,-0.014,-0.0487,-0.347,-0.5372,-0.5428,-0.5387,-0.6792,-0.992,-1.0554,-1.1237,-1.2253,-1.2282,-1.2308,-1.2316,-1.2643,-1.4552,-1.8034,-1.8017,-1.8008,-1.8008,-1.8008,-1.7986,-1.8223,-2.1624,-2.3089,-2.3084,-2.313,-2.3078,-2.3078,-2.3078,-2.3078,-2.3078,-2.3078,-2.3134,-2.3477,-2.53,-2.6615,-2.7509,-2.7509,-2.756,-2.7625,-2.7625,-2.7625,-2.7625,-2.7625,-2.7625,-2.7625,-2.7625,-2.7625,-2.7625,-2.7625,-2.7625,-2.7625,-2.7625,-2.7625,-2.7625,-2.7625,-2.8042,-2.8415,-2.8511,-2.9012,-2.9585,-3.0208,-3.0351,-3.0559,-3.1151,-3.119,-3.119,-3.119,-3.119,-3.119,-3.119,-3.119,-3.119,-3.119,-3.119,-3.119,-3.119,-3.0658,-3.0393,-3.0393,-2.9271,-2.8654,-2.8638,-2.7993,-2.766,-2.766,-2.7625,-2.7625,-0.6075,-0.5686,-0.5428,-0.5428,-0.4957,-0.4688,-0.5292,-0.4957,-0.442,-0.4082,-0.3278,-0.241,-0.1474,-0.0605,0.0,0.0,0.0,0.0,0.0,0.0,0.0,0.0,0.0,0.0,0.0,-0.3305,-0.5382,-0.5428,-0.5384,-0.5986,-0.7423,-0.9461,-1.084,-1.1243,-1.1261,-1.1246,-1.1268,-1.2215,-1.4239,-1.7187,-1.7069,-1.7307,-1.7992,-1.7992,-1.8019,-1.8101,-1.9422,-2.1168,-2.3083,-2.3084,-2.3119,-2.3078,-2.3078,-2.3078,-2.3078,-2.3078,-2.3083,-2.3358,-2.508,-2.6515,-2.7625,-2.7625,-2.7625,-2.7625,-2.7625,-2.7625,-2.7625,-2.7625,-2.7625,-2.7625,-2.7625,-2.7625,-2.7625,-2.7625,-2.7625,-2.7625,-2.7625,-2.7625,-2.7625,-2.7625,-2.781,-2.8091,-2.8415,-2.9012,-2.9585,-3.0208,-3.0617,-3.0918,-3.119,-3.119,-3.119,-3.119,-3.119,-3.119,-3.119,-3.119,-3.119,-3.119,-3.119,-3.119,-3.119,-3.0975,-3.0658,-3.0293,-2.9451,-2.8873,-2.8511,-2.7894,-2.7625,-2.7625,-2.7625,-2.7625,-0.5219,-0.4957,-0.4954,-0.4686,-0.4082,-0.3816,-0.442,-0.4084,-0.3478,-0.2939,-0.2339,-0.1605,-0.0603,0.0134,0.0404,0.0067,0.0,0.0,0.0,0.0,0.0,0.0,0.0,0.0,0.0,-0.3286,-0.5382,-0.5428,-0.5397,-0.5373,-0.5425,-0.7744,-0.9526,-1.0542,-1.0625,-1.0568,-1.0568,-1.2175,-1.4072,-1.6114,-1.623,-1.6738,-1.7621,-1.7705,-1.7745,-1.7785,-1.8503,-1.9821,-2.1696,-2.269,-2.3083,-2.3078,-2.3078,-2.3078,-2.3078,-2.3078,-2.3102,-2.3375,-2.5382,-2.6734,-2.7586,-2.7586,-2.7614,-2.7625,-2.7625,-2.7625,-2.7625,-2.7625,-2.7625,-2.7625,-2.7625,-2.7625,-2.7625,-2.7625,-2.7625,-2.7625,-2.7625,-2.7625,-2.7625,-2.7625,-2.7625,-2.771,-2.814,-2.8857,-2.954,-2.9995,-3.0699,-3.119,-3.119,-3.119,-3.119,-3.119,-3.119,-3.119,-3.119,-3.119,-3.119,-3.119,-3.119,-3.119,-3.119,-3.1015,-3.074,-3.0293,-2.954,-2.8919,-2.8511,-2.7894,-2.7625,-2.7625,-2.7625,-2.7625,-0.4284,-0.4015,-0.3813,-0.2945,-0.2744,-0.2744,-0.2744,-0.2744,-0.2207,-0.0401,-0.0067,0.0334,0.1541,0.1743,0.141,0.0202,0.0,0.0,0.0,0.0,0.0,0.0,0.0,0.0,0.0,-0.3282,-0.5372,-0.5428,-0.5428,-0.5408,-0.5425,-0.5459,-0.7044,-1.0489,-1.0615,-1.0631,-1.0631,-1.2175,-1.36,-1.4709,-1.5823,-1.6481,-1.6738,-1.6997,-1.709,-1.7246,-1.9592,-1.9627,-1.835,-2.1716,-2.3078,-2.3078,-2.3078,-2.3078,-2.3078,-2.3078,-2.3077,-2.3534,-2.6516,-2.7594,-2.7583,-2.7583,-2.758,-2.7625,-2.7625,-2.7625,-2.7625,-2.7625,-2.7625,-2.7625,-2.7625,-2.7625,-2.7625,-2.7625,-2.7625,-2.7625,-2.7625,-2.7625,-2.7625,-2.7625,-2.7625,-2.7625,-2.7625,-2.8575,-2.9406,-2.9406,-3.0435,-3.119,-3.119,-3.119,-3.119,-3.119,-3.119,-3.119,-3.119,-3.119,-3.119,-3.119,-3.119,-3.119,-3.119,-3.0617,-3.0293,-3.0293,-2.9134,-2.8511,-2.8511,-2.7894,-2.7625,-2.7625,-2.7625,-2.7625,-0.4082,-0.3547,-0.3078,-0.2744,-0.2209,-0.174,-0.1735,-0.1268,-0.0534,0.0666,0.04,0.0401,0.1608,0.1139,0.0469,0.0067,0.0,0.0,0.0,0.0,0.0,0.0,0.0,0.0,0.0,-0.3286,-0.5386,-0.5372,-0.5432,-0.5422,-0.5408,-0.5432,-0.7006,-1.0489,-1.0608,-1.0624,-1.0624,-1.1101,-1.2088,-1.3549,-1.4416,-1.535,-1.6279,-1.636,-1.6599,-1.6894,-1.8134,-1.9072,-1.995,-2.2191,-2.3081,-2.3094,-2.3094,-2.3115,-2.3078,-2.3078,-2.3077,-2.3244,-2.4182,-2.4536,-2.4847,-2.6952,-2.7608,-2.7617,-2.7617,-2.758,-2.7625,-2.7625,-2.7625,-2.7625,-2.7625,-2.7625,-2.7625,-2.7625,-2.7625,-2.7625,-2.7625,-2.7625,-2.7625,-2.7625,-2.7944,-2.8238,-2.8238,-2.9225,-3.0038,-3.0038,-3.0699,-3.119,-3.119,-3.119,-3.119,-3.119,-3.119,-3.119,-3.119,-3.119,-3.119,-3.119,-3.119,-3.119,-3.119,-3.1015,-3.0699,-3.0293,-2.9935,-2.954,-2.9088,-2.8511,-2.7993,-2.7625,-2.7625,-2.7625,-0.348,-0.2878,-0.2076,-0.1743,-0.1005,-0.0335,-0.0334,0.04,0.1268,0.2134,0.1801,0.1536,0.2074,0.2074,0.2008,0.2009,0.2008,0.2007,0.2008,0.2011,0.1543,0.0134,0.0,0.0,0.0,-0.2009,-0.3961,-0.5309,-0.5372,-0.5432,-0.5428,-0.5384,-0.642,-0.8565,-0.9887,-1.0595,-1.0624,-1.1002,-1.1714,-1.2708,-1.4007,-1.5065,-1.582,-1.582,-1.5967,-1.624,-1.7388,-1.8143,0.0,-2.189,-2.2611,-2.1913,-2.2783,-2.311,-2.3114,-2.3114,-2.309,-2.3127,-2.3127,-2.3085,-2.3384,-2.5314,-2.6697,-2.7587,-2.7587,-2.7616,-2.7625,-2.7625,-2.7625,-2.7625,-2.7625,-2.7625,-2.7625,-2.7625,-2.7625,-2.7625,-2.7625,-2.776,-2.7959,-2.7959,-2.8415,-2.8826,-2.8826,-2.9629,-3.0293,-3.0293,-3.0797,-3.119,-3.119,-3.119,-3.119,-3.119,-3.119,-3.119,-3.119,-3.119,-3.119,-3.119,-3.119,-3.119,-3.119,-3.119,-3.1015,-3.0658,-3.0435,-3.0123,-2.9717,-2.8919,-2.8189,-2.7625,-2.7625,-2.7625,0.0,-0.1942,-0.1006,-0.0135,0.0672,0.134,0.1474,0.2143,0.0,0.3949,0.388,0.3542,0.3004,0.4287,0.5382,0.5393,0.5393,0.5396,0.5406,0.5205,0.3775,0.0404,0.0,0.0,0.0,0.0,-0.1405,-0.4767,-0.5243,-0.5372,-0.5428,-0.5387,-0.5429,-0.5425,-0.8565,-1.0373,-1.0568,-1.1589,-1.2149,-1.2271,-1.4278,-1.5294,-1.541,-1.541,-1.541,-1.5498,-1.7084,-1.6917,-1.579,-2.0782,-2.1675,-2.0017,-2.2086,-2.2893,-2.2864,-2.2864,-2.2864,-2.2864,-2.2864,-2.288,-2.2913,-2.3286,-2.5317,-2.7595,-2.7615,-2.7595,-2.7625,-2.7625,-2.7625,-2.7625,-2.7625,-2.7625,-2.7625,-2.7625,-2.7625,-2.7625,-2.7625,-2.8042,-2.8463,-2.8511,-2.9012,-2.9406,-2.9451,-2.9978,-3.0335,-3.0335,-3.0838,-3.119,-3.119,-3.119,-3.119,-3.119,-3.119,-3.119,-3.119,-3.119,-3.119,-3.119,-3.119,-3.119,-3.119,-3.119,-3.119,-3.119,-3.0658,-3.0335,-3.0293,-2.9134,-2.8271,-2.766,-2.7625,-2.7625,-0.1809,0.0,-0.0067,0.0805,0.114,0.1675,0.0,0.3547,0.3949,0.4888,0.503,0.4967,0.4764,0.5103,0.5379,0.5382,0.5376,0.5369,0.5372,0.3009,0.0936,0.0134,0.0,0.0,0.0,0.0,-0.0334,-0.1202,-0.3816,-0.5372,-0.5428,-0.5418,-0.5394,-0.5425,-0.6221,-0.7887,-1.0591,-1.0821,-1.1571,-1.2793,-1.3295,-1.4213,-1.541,-1.541,-1.541,-1.541,-1.5833,-1.5802,-1.5649,-1.9124,-2.0291,-1.9848,-2.0382,-2.0563,-2.0563,-2.0563,-2.0563,-2.0563,-2.0563,-2.057,-2.1253,-2.5234,-2.7026,-2.7584,-2.7603,-2.7606,-2.7625,-2.7625,-2.7625,-2.7625,-2.7625,-2.7625,-2.7625,-2.7625,-2.7625,-2.7625,-2.7625,-2.771,-2.7959,-2.8415,-2.9012,-2.954,-3.0038,-3.0601,-3.0975,-3.0975,-3.1112,-3.119,-3.119,-3.119,-3.119,-3.119,-3.119,-3.119,-3.119,-3.119,-3.119,-3.119,-3.119,-3.119,-3.119,-3.119,-3.119,-3.119,-3.1055,-3.074,-3.0293,-2.954,-2.8873,-2.8286,-2.781,-2.7625,-0.1074,-0.0067,0.0739,0.1207,0.1808,0.2609,0.3611,0.4217,0.4755,0.5292,0.5432,0.5369,0.5369,0.5369,0.5369,0.5369,0.5432,0.5428,0.5369,0.227,0.0,0.0,0.1478,0.1817,0.0134,0.0,0.0,0.0,-0.3349,-0.5382,-0.5369,-0.5432,-0.5415,-0.5391,-0.537,-0.7089,-1.056,-1.0581,-1.1066,-1.1936,-1.3407,-1.457,-1.541,-1.5391,-1.541,-1.541,-1.5408,-1.5412,-1.5644,-1.8573,-1.9792,-1.9814,-1.9809,-1.9805,-1.9805,-1.9805,-1.9805,-1.9805,-1.9805,-2.0557,-2.2018,-2.4833,-2.5751,-2.5768,-2.5764,-2.5756,-2.6046,-2.7252,-2.7282,-2.7094,-2.7504,-2.736,-2.72,-2.755,-2.7625,-2.7675,-2.7944,-2.8222,-2.8575,-2.9225,-2.9805,-3.0351,-3.0658,-3.0975,-3.119,-3.119,-3.119,-3.119,-3.119,-3.119,-3.119,-3.119,-3.119,-3.119,-3.119,-3.119,-3.119,-3.119,-3.119,-3.119,-3.119,-3.119,-3.119,-3.119,-3.119,-3.0878,-3.0293,-2.9978,-2.9496,-2.8919,-2.8271,-2.7993,-0.0471,0.0537,0.1138,0.1474,0.2474,0.3542,0.3811,0.468,0.5418,0.5425,0.5422,0.5418,0.5425,0.5422,0.5418,0.5418,0.5418,0.5425,0.5376,0.2741,0.0802,0.0803,0.3023,0.3366,0.0269,0.0,0.0,0.0,-0.2817,-0.4843,-0.5379,-0.5369,-0.5428,-0.5428,-0.5391,-0.6824,-0.9783,-1.0301,-1.06,-1.0616,-1.3364,-1.4934,-1.5367,-1.5371,-1.541,-1.541,-1.541,-1.5408,-1.5592,-1.8124,-1.9365,-1.9805,-1.9808,-1.9798,-1.9798,-1.9798,-1.9798,-1.9798,-1.9799,-2.1472,-2.3582,-2.3589,-2.3607,-2.3601,-2.3601,-2.3601,-2.4095,-2.6351,-2.6473,-2.6101,-2.7028,-2.6916,-2.6696,-2.725,-2.743,-2.761,-2.8213,-2.8841,-2.9451,-3.0166,-3.0699,-3.1095,-3.119,-3.119,-3.119,-3.119,-3.119,-3.119,-3.119,-3.119,-3.119,-3.119,-3.119,-3.119,-3.119,-3.119,-3.119,-3.119,-3.119,-3.119,-3.119,-3.119,-3.119,-3.119,-3.119,-3.0958,-3.0435,-3.0335,-3.0038,-2.954,-2.8919,-2.8654,-0.0469,0.0067,0.0534,0.2074,0.2674,0.3272,0.4752,0.5262,0.538,0.5418,0.5397,0.538,0.5422,0.5394,0.537,0.537,0.537,0.5387,0.5372,0.49,0.4561,0.4564,0.2344,0.0603,0.0067,0.0,0.0,0.0,-0.0536,-0.2142,-0.5243,-0.5376,-0.5372,-0.5428,-0.5422,-0.565,-0.6169,-0.9134,-1.0624,-1.0616,-1.1099,-1.274,-1.5367,-1.5371,-1.541,-1.541,-1.541,-1.5408,-1.5439,-1.5887,-1.7574,-1.9805,-1.9808,-1.9798,-1.9798,-1.9798,-1.9798,-1.9825,-1.9825,-2.1461,-2.3612,-2.3601,-2.3613,-2.3599,-2.3599,-2.3599,-2.3687,-2.4101,-2.4103,-2.4312,-2.5597,-2.6116,-2.6376,-2.6482,-2.6642,-2.6916,-2.752,-2.8171,-2.8966,-3.0064,-3.0377,-3.0617,-3.1112,-3.119,-3.119,-3.119,-3.119,-3.119,-3.119,-3.119,-3.119,-3.119,-3.119,-3.119,-3.119,-3.119,-3.119,-3.119,-3.119,-3.119,-3.119,-3.119,-3.119,-3.119,-3.119,-3.1151,-3.1055,-3.0559,-3.0251,-3.0166,-2.954,-2.9271,-0.0469,0.0,0.0667,0.348,0.4151,0.4408,0.5193,0.5373,0.5967,0.7831,0.6702,0.5408,0.5384,0.5373,0.5367,0.5391,0.5397,0.5404,0.5432,0.5369,0.5372,0.5379,0.3954,0.214,0.0201,0.0,0.0,0.0,0.0,-0.0736,-0.2409,-0.4359,-0.5376,-0.5372,-0.5432,-0.5387,-0.5373,-0.884,-1.0584,-1.0593,-1.0602,-1.23,-1.5381,-1.542,-1.541,-1.541,-1.541,-1.5419,-1.5417,-1.5416,-1.7137,-1.9787,-1.9805,-1.9798,-1.9798,-1.9798,-1.98,-1.9825,-1.9801,-2.0549,-2.1773,-2.3142,-2.3599,-2.3595,-2.3595,-2.3595,-2.3595,-2.3595,-2.3614,-2.3747,-2.4354,-2.4669,-2.4969,-2.5463,-2.5655,-2.5978,-2.6794,-2.7745,-2.8698,-2.9575,-3.0294,-3.0878,-3.1151,-3.119,-3.119,-3.119,-3.119,-3.119,-3.119,-3.119,-3.119,-3.119,-3.119,-3.119,-3.119,-3.119,-3.119,-3.119,-3.119,-3.119,-3.119,-3.119,-3.119,-3.119,-3.119,-3.119,-3.119,-3.0918,-3.0797,-3.0781,-3.0166,-2.9908,0.0669,0.1269,0.1933,0.4683,0.5418,0.5401,0.5367,0.6021,0.7367,1.0018,0.8501,0.6647,0.6624,0.5952,0.5425,0.5394,0.5408,0.5415,0.5425,0.5428,0.5432,0.5372,0.5376,0.4156,0.0937,0.0268,0.0,0.0,0.0,0.0,0.0,-0.3013,-0.497,-0.5379,-0.5432,-0.5592,-0.5975,-0.9079,-1.058,-1.0618,-1.0595,-1.231,-1.5383,-1.5379,-1.5391,-1.541,-1.541,-1.5381,-1.5428,-1.5371,-1.7115,-1.9818,-1.9778,-1.9798,-1.9786,-1.9825,-1.9813,-1.9894,-2.046,-2.0669,-2.1004,-2.2952,-2.3626,-2.3595,-2.3595,-2.3595,-2.3595,-2.3595,-2.3595,-2.3611,-2.3615,-2.3585,-2.3792,-2.4489,-2.4789,-2.5138,-2.5895,-2.7259,-2.8517,-2.9095,-3.0163,-3.0937,-3.0937,-3.1089,-3.119,-3.119,-3.119,-3.119,-3.119,-3.119,-3.119,-3.119,-3.119,-3.119,-3.119,-3.119,-3.119,-3.119,-3.119,-3.119,-3.119,-3.119,-3.119,-3.119,-3.119,-3.119,-3.119,-3.119,-3.119,-3.119,-3.074,-3.0518,0.403,0.4986,0.5103,0.5315,0.5429,0.5429,0.5425,0.7892,1.0296,1.0574,1.0393,1.0226,1.0218,0.7548,0.5377,0.538,0.5408,0.538,0.5422,0.5428,0.5428,0.5428,0.5372,0.4631,0.2678,0.1004,0.0,0.0,0.0,0.0,0.0,-0.1873,-0.3685,-0.5376,-0.5432,-0.6207,-0.7817,-0.9651,-1.058,-1.0618,-1.0608,-1.2266,-1.5383,-1.5384,-1.539,-1.541,-1.541,-1.5418,-1.5402,-1.5431,-1.7125,-1.9777,-1.9808,-1.9798,-1.9825,-1.9799,-1.9784,-2.0158,-2.251,-2.3331,-2.3374,-2.3538,-2.3585,-2.3595,-2.3595,-2.3595,-2.3595,-2.3595,-2.3595,-2.361,-2.3581,-2.3581,-2.3596,-2.3699,-2.4245,-2.474,-2.4811,-2.6575,-2.8312,-2.8895,-2.9668,-3.0192,-3.0192,-3.0751,-3.119,-3.119,-3.119,-3.119,-3.119,-3.119,-3.119,-3.119,-3.119,-3.119,-3.119,-3.119,-3.119,-3.119,-3.119,-3.119,-3.119,-3.119,-3.119,-3.119,-3.119,-3.119,-3.119,-3.119,-3.119,-3.119,-3.1151,-3.1151,0.1672,0.3682,0.5911,0.8063,0.8647,0.8614,0.8646,0.9661,1.0617,1.0584,1.0621,1.0571,1.0586,0.8663,0.7098,0.7478,0.631,0.5602,0.6137,0.5749,0.5428,0.5428,0.5432,0.4894,0.3613,0.2409,0.1407,0.0873,0.0337,0.0,0.0,-0.114,-0.241,-0.3685,-0.422,-0.5463,-0.7404,-0.8798,-0.986,-1.0624,-1.0615,-1.1759,-1.3909,-1.492,-1.5399,-1.541,-1.541,-1.5408,-1.5525,-1.739,-1.876,-1.9805,-1.9808,-1.9798,-1.9786,-1.9775,-2.0785,-2.2311,-2.3264,-2.3577,-2.3614,-2.3614,-2.3612,-2.3595,-2.3595,-2.3595,-2.3595,-2.3595,-2.3595,-2.3593,-2.358,-2.3603,-2.3584,-2.3615,-2.4309,-2.5052,-2.5274,-2.6454,-2.7569,-2.7757,-2.869,-2.955,-3.0023,-3.0345,-3.0666,-3.1123,-3.119,-3.119,-3.119,-3.119,-3.119,-3.119,-3.119,-3.119,-3.119,-3.119,-3.119,-3.119,-3.119,-3.119,-3.119,-3.119,-3.119,-3.119,-3.119,-3.119,-3.119,-3.119,-3.119,-3.119,-3.119,-3.119,0.1403,0.3946,0.6651,0.8477,0.9758,1.0613,1.0573,1.0604,1.0628,1.0575,1.0624,1.0581,1.0571,0.9321,0.8398,0.8851,0.7396,0.64,0.7046,0.6334,0.5815,0.5815,0.5557,0.5024,0.4082,0.3211,0.2344,0.134,0.0471,0.0,0.0,-0.0806,-0.1742,-0.2678,-0.3547,-0.4929,-0.695,-0.8037,-0.9092,-1.0174,-1.0468,-1.145,-1.3078,-1.468,-1.5388,-1.541,-1.541,-1.5668,-1.6304,-1.8762,-1.9799,-1.9788,-1.9825,-1.9813,-1.9788,-1.9786,-2.0925,-2.2526,-2.332,-2.3614,-2.3595,-2.3595,-2.3595,-2.3595,-2.3595,-2.3595,-2.3595,-2.3595,-2.3606,-2.3595,-2.3615,-2.4066,-2.4575,-2.4579,-2.5137,-2.575,-2.5989,-2.6537,-2.6975,-2.6975,-2.7864,-2.8772,-2.9296,-2.9583,-3.0006,-3.0734,-3.0852,-3.0937,-3.1157,-3.1329,-3.1449,-3.1582,-3.16,-3.16,-3.16,-3.16,-3.16,-3.16,-3.16,-3.1504,-3.119,-3.119,-3.119,-3.119,-3.119,-3.119,-3.119,-3.119,-3.119,-3.119,-3.119,-3.119,0.4375,0.668,0.7541,0.584,0.8027,1.056,1.056,1.0621,1.0624,1.0624,1.0624,1.0624,1.0624,0.9633,0.8918,0.9268,0.8549,0.8027,0.8027,0.7242,0.6719,0.6719,0.5943,0.5024,0.4148,0.3211,0.2344,0.1407,0.0538,0.0,0.0,-0.0806,-0.1742,-0.2678,-0.3547,-0.4872,-0.6654,-0.7567,-0.842,-0.9338,-1.0174,-1.1421,-1.3078,-1.4669,-1.5384,-1.541,-1.541,-1.6244,-1.7722,-1.9164,-1.9797,-1.9825,-1.9787,-1.9821,-1.9855,-1.9847,-1.9836,-2.0184,-2.2732,-2.361,-2.3595,-2.3595,-2.3595,-2.3595,-2.3595,-2.3595,-2.3595,-2.3595,-2.3595,-2.36,-2.3616,-2.5158,-2.6713,-2.6684,-2.671,-2.6716,-2.6684,-2.6722,-2.6691,-2.6691,-2.73,-2.7772,-2.7789,-2.8467,-2.9228,-2.9989,-3.0108,-3.0378,-3.1106,-3.1528,-3.2004,-3.2451,-3.2484,-3.2484,-3.2484,-3.2484,-3.2484,-3.2484,-3.2484,-3.2127,-3.123,-3.119,-3.119,-3.119,-3.119,-3.119,-3.119,-3.119,-3.119,-3.119,-3.119,-3.119,0.2876,0.4827,0.6246,0.6527,0.7982,0.9397,0.963,1.1045,1.2204,1.1769,1.1129,1.0624,1.0624,0.9779,0.939,1.011,0.9,0.8221,0.8812,0.8156,0.7632,0.7632,0.685,0.6199,0.5928,0.4541,0.3211,0.2342,0.1408,0.0672,0.0,-0.0269,-0.0806,-0.1675,-0.2611,-0.3939,-0.5723,-0.7237,-0.842,-0.9338,-1.0174,-1.1421,-1.3009,-1.3466,-1.4303,-1.541,-1.541,-1.6022,-1.7269,-1.9059,-1.9793,-1.9825,-1.9787,-2.0898,-2.249,-2.2446,-2.2477,-2.2577,-2.3347,-2.3614,-2.3595,-2.3595,-2.3595,-2.3595,-2.3595,-2.3595,-2.3595,-2.3595,-2.3595,-2.3958,-2.5392,-2.6246,-2.6708,-2.67,-2.6699,-2.6704,-2.6689,-2.6691,-2.6691,-2.6691,-2.6877,-2.7199,-2.7688,-2.801,-2.8433,-2.9194,-2.977,-3.0378,-3.1106,-3.1528,-3.1716,-3.1582,-3.2127,-3.2401,-3.2109,-3.2334,-3.2484,-3.2484,-3.2484,-3.2248,-3.166,-3.164,-3.147,-3.119,-3.119,-3.119,-3.119,-3.119,-3.119,-3.119,-3.119,-3.119,0.1666,0.3471,0.5084,0.6145,0.7727,0.9227,1.0091,1.1206,1.1939,1.1645,1.1066,1.0681,1.1045,1.0654,1.0591,1.1413,1.0696,1.0053,1.0268,0.9558,0.8849,0.8549,0.7762,0.7242,0.7242,0.5592,0.4273,0.3803,0.2541,0.1609,0.1075,0.074,-0.0067,-0.127,-0.2207,-0.3739,-0.5855,-0.7302,-0.842,-0.9338,-1.0541,-1.1717,-1.3009,-1.3009,-1.3906,-1.541,-1.6026,-1.6645,-1.7335,-1.9101,-1.9798,-1.9825,-1.9787,-2.1377,-2.3615,-2.3573,-2.3579,-2.3585,-2.3585,-2.3599,-2.3595,-2.3595,-2.3595,-2.3595,-2.3595,-2.3595,-2.3608,-2.3601,-2.359,-2.406,-2.6163,-2.6705,-2.6687,-2.6704,-2.6723,-2.6707,-2.6691,-2.6691,-2.6758,-2.6906,-2.6939,-2.7141,-2.7717,-2.7836,-2.8094,-2.8869,-2.9885,-3.0904,-3.1863,-3.2213,-3.2332,-3.223,-3.2695,-3.2903,-3.2699,-3.2872,-3.3027,-3.3027,-3.3027,-3.2822,-3.2366,-3.2161,-3.1968,-3.1731,-3.1731,-3.1731,-3.1731,-3.1731,-3.1731,-3.1731,-3.1731,-3.162,0.0599,0.2394,0.3992,0.5017,0.7251,0.9646,1.1337,1.1108,1.0624,1.0681,1.0681,1.0926,1.1648,1.1834,1.2143,1.2887,1.3009,1.2757,1.202,1.1246,1.0438,0.9646,0.8737,0.8215,0.8156,0.6572,0.5522,0.5453,0.387,0.2876,0.2809,0.1874,0.0535,-0.1132,-0.2138,-0.3936,-0.6453,-0.7502,-0.842,-0.9204,-1.0899,-1.2143,-1.3009,-1.307,-1.3974,-1.5468,-1.6968,-1.7578,-1.7688,-1.9202,-1.9786,-1.9787,-1.9786,-2.1232,-2.3292,-2.3535,-2.36,-2.3595,-2.3595,-2.3595,-2.3595,-2.3595,-2.3595,-2.3595,-2.3608,-2.3593,-2.3603,-2.3616,-2.3756,-2.4328,-2.6191,-2.6687,-2.6691,-2.6716,-2.6712,-2.6716,-2.6691,-2.6725,-2.6873,-2.7241,-2.7317,-2.747,-2.784,-2.7897,-2.8163,-2.8894,-3.0256,-3.1653,-3.2859,-3.313,-3.3332,-3.3652,-3.3734,-3.3807,-3.3734,-3.378,-3.3807,-3.3807,-3.3807,-3.3652,-3.3273,-3.2809,-3.255,-3.2484,-3.2484,-3.2484,-3.2484,-3.2484,-3.2484,-3.2484,-3.2484,-3.2264,-0.1396,0.0532,0.2264,0.3877,0.6318,0.8737,1.0478,1.0744,1.0807,1.1406,1.1531,1.1586,1.1772,1.2328,1.2818,1.2948,1.3009,1.2948,1.2765,1.2565,1.2128,1.1329,1.0494,0.9742,0.9069,0.8021,0.7093,0.6351,0.5315,0.4461,0.3727,0.2206,0.0803,-0.0267,-0.1871,-0.3276,-0.4541,-0.6841,-0.8091,-0.8285,-1.0028,-1.16,-1.3009,-1.3666,-1.451,-1.5468,-1.6968,-1.7578,-1.7688,-1.9202,-1.9813,-1.9773,-1.9794,-2.01,-2.0836,-2.2878,-2.3611,-2.3595,-2.3595,-2.3595,-2.3595,-2.3595,-2.3595,-2.3593,-2.3603,-2.3594,-2.36,-2.3608,-2.475,-2.6122,-2.6587,-2.6687,-2.6708,-2.6708,-2.6691,-2.6708,-2.6708,-2.6971,-2.721,-2.7286,-2.756,-2.7811,-2.7897,-2.7897,-2.8163,-2.8894,-2.9814,-3.0761,-3.1586,-3.2588,-3.3075,-3.2809,-3.3372,-3.368,-3.3379,-3.3606,-3.3807,-3.3807,-3.3807,-3.3762,-3.3662,-3.3273,-3.289,-3.2517,-3.2484,-3.2484,-3.2484,-3.2484,-3.2484,-3.2484,-3.2484,-3.2451,-0.252,-0.0332,0.2062,0.5117,0.6972,0.8479,1.0168,1.0624,1.0744,1.117,1.1531,1.1896,1.2328,1.3061,1.3726,1.4094,1.4154,1.4025,1.3614,1.3545,1.3122,1.1958,1.1384,1.0829,0.9977,0.9134,0.8409,0.7931,0.6702,0.5785,0.5318,0.3602,0.2006,0.0667,-0.1133,-0.2869,-0.4604,-0.6841,-0.8221,-0.8613,-1.0338,-1.2027,-1.3606,-1.4392,-1.5225,-1.5979,-1.7135,-1.7786,-1.8221,-1.9658,-2.0332,-2.045,-2.0649,-2.106,-2.1787,-2.3098,-2.3613,-2.3623,-2.3613,-2.3595,-2.3606,-2.3605,-2.3585,-2.3595,-2.3613,-2.4304,-2.506,-2.5056,-2.5864,-2.6692,-2.6719,-2.6691,-2.6717,-2.6717,-2.6706,-2.6758,-2.704,-2.7213,-2.7409,-2.7776,-2.8002,-2.8183,-2.8386,-2.843,-2.8701,-2.9476,-2.9945,-3.063,-3.1755,-3.2498,-3.2972,-3.3112,-3.3634,-3.3917,-3.3697,-3.4025,-3.4232,-3.4232,-3.4232,-3.4232,-3.4232,-3.4031,-3.3678,-3.3118,-3.3118,-3.3118,-3.3118,-3.3118,-3.3118,-3.3118,-3.3118,-3.3027,-0.3572,-0.0927,0.2324,0.6494,0.7762,0.8415,1.004,1.0491,1.0624,1.0807,1.1351,1.2081,1.2818,1.3666,1.4451,1.5294,1.541,1.5177,1.451,1.4392,1.3837,1.2381,1.2197,1.1896,1.1115,1.0345,0.9901,0.9773,0.827,0.7233,0.6915,0.5203,0.3336,0.1332,-0.0399,-0.2528,-0.5061,-0.6841,-0.8221,-0.9075,-1.108,-1.281,-1.4213,-1.505,-1.5806,-1.6539,-1.7302,-1.8015,-1.8821,-2.0232,-2.101,-2.1336,-2.1704,-2.2534,-2.3613,-2.3613,-2.3615,-2.3593,-2.3588,-2.3836,-2.4132,-2.4116,-2.4146,-2.4121,-2.4135,-2.5335,-2.6688,-2.6695,-2.6684,-2.6687,-2.6707,-2.6691,-2.677,-2.7022,-2.7112,-2.7173,-2.7487,-2.7539,-2.766,-2.8272,-2.8446,-2.859,-2.8952,-2.8994,-2.9214,-2.9898,-3.0118,-3.0711,-3.2059,-3.2456,-3.2852,-3.3592,-3.3975,-3.42,-3.42,-3.4508,-3.4694,-3.4694,-3.4694,-3.4694,-3.4694,-3.4694,-3.4483,-3.3954,-3.3902,-3.3842,-3.3807,-3.3807,-3.3807,-3.3807,-3.3807,-3.3606,-0.5639,-0.1856,0.1995,0.4916,0.6837,0.8285,0.9268,1.0047,1.0807,1.1531,1.171,1.2081,1.2818,1.3666,1.4451,1.5294,1.541,1.5352,1.5225,1.5235,1.4874,1.3965,1.3906,1.3537,1.2765,1.2573,1.2205,1.1516,1.0551,0.9342,0.7892,0.6117,0.3926,0.1398,-0.0399,-0.2199,-0.4146,-0.5994,-0.7307,-0.8221,-1.137,-1.3304,-1.4213,-1.505,-1.5806,-1.6539,-1.7302,-1.8015,-1.8821,-2.0232,-2.138,-2.2239,-2.23,-2.2862,-2.3626,-2.3626,-2.3596,-2.3595,-2.3593,-2.4802,-2.6293,-2.6302,-2.6278,-2.6281,-2.6303,-2.6498,-2.6695,-2.6719,-2.6708,-2.6685,-2.6708,-2.6702,-2.7034,-2.8386,-2.8699,-2.8534,-2.7964,-2.8047,-2.8272,-2.8376,-2.8682,-2.8929,-2.8994,-2.8994,-2.903,-2.9122,-2.9751,-3.036,-3.0813,-3.1881,-3.2735,-3.3072,-3.3762,-3.42,-3.42,-3.4508,-3.4694,-3.4694,-3.4694,-3.4694,-3.4694,-3.4694,-3.4653,-3.4591,-3.4288,-3.4018,-3.3807,-3.3807,-3.3807,-3.3807,-3.3807,-3.3762,-0.4885,-0.1325,0.1929,0.4656,0.6314,0.7632,0.9011,0.9594,1.0104,1.0982,1.1469,1.2197,1.3425,1.4332,1.4991,1.5352,1.541,1.541,1.541,1.541,1.5108,1.4332,1.4213,1.3906,1.307,1.3009,1.2696,1.1826,1.0996,0.9793,0.8091,0.6776,0.4857,0.2136,0.0333,-0.1464,-0.328,-0.5529,-0.7372,-0.8748,-1.1626,-1.3408,-1.4209,-1.5429,-1.6425,-1.7146,-1.7468,-1.8478,-1.9965,-2.0904,-2.1779,-2.258,-2.295,-2.3289,-2.3623,-2.3583,-2.3591,-2.3588,-2.3582,-2.4193,-2.5169,-2.6311,-2.672,-2.6714,-2.6704,-2.6705,-2.6707,-2.6721,-2.7343,-2.7967,-2.7997,-2.7994,-2.8159,-2.8829,-2.8997,-2.8902,-2.8605,-2.8384,-2.8406,-2.8865,-2.9101,-2.9267,-2.9357,-2.9397,-2.9397,-2.9397,-2.9695,-3.0127,-3.0694,-3.1267,-3.2048,-3.3109,-3.3691,-3.4168,-3.4659,-3.4962,-3.5138,-3.5138,-3.5138,-3.5138,-3.5138,-3.5138,-3.5088,-3.4926,-3.4634,-3.442,-3.4284,-3.4284,-3.4284,-3.4284,-3.4284,-3.4284,-0.4863,-0.1718,0.0929,0.3586,0.5318,0.678,0.8549,0.9139,0.9588,1.0667,1.1531,1.2504,1.3965,1.4688,1.5167,1.5352,1.541,1.541,1.541,1.541,1.5167,1.4569,1.451,1.4273,1.3674,1.3614,1.3183,1.2205,1.1502,1.0299,0.8415,0.7502,0.5785,0.3139,0.1063,-0.0864,-0.2678,-0.5588,-0.7887,-0.964,-1.1881,-1.3408,-1.4191,-1.5756,-1.7024,-1.7872,-1.8035,-1.9153,-2.0845,-2.1629,-2.2253,-2.274,-2.3377,-2.3595,-2.3608,-2.3591,-2.3928,-2.4393,-2.4369,-2.4381,-2.4655,-2.6182,-2.6691,-2.6691,-2.6691,-2.6691,-2.6758,-2.6939,-2.7833,-2.8728,-2.8723,-2.8852,-2.9008,-2.9,-2.8998,-2.8998,-2.8993,-2.874,-2.8704,-2.9319,-2.9436,-2.9532,-2.9678,-2.9696,-2.9696,-2.9696,-2.9696,-2.994,-3.0596,-3.0808,-3.1411,-3.2732,-3.3424,-3.4056,-3.4704,-3.522,-3.5493,-3.5493,-3.5493,-3.5493,-3.5493,-3.5493,-3.5417,-3.5207,-3.4999,-3.4851,-3.4694,-3.4694,-3.4694,-3.4694,-3.4694,-3.4694,-0.7113,-0.4418,-0.1785,0.0863,0.3456,0.5851,0.7627,0.8683,0.9773,1.1399,1.2389,1.3191,1.4025,1.4204,1.451,1.5294,1.541,1.541,1.541,1.541,1.5352,1.5352,1.5352,1.5294,1.5294,1.5294,1.4628,1.307,1.2887,1.1826,0.9396,0.842,0.6698,0.399,0.1393,-0.0864,-0.2678,-0.6175,-0.8784,-1.0488,-1.2189,-1.3425,-1.4264,-1.5786,-1.7258,-1.8596,-1.9273,-2.0042,-2.0894,-2.2128,-2.2649,-2.274,-2.3377,-2.3595,-2.3595,-2.358,-2.4837,-2.655,-2.6558,-2.6542,-2.6554,-2.664,-2.6704,-2.6691,-2.6691,-2.6691,-2.6873,-2.7619,-2.7922,-2.7974,-2.7973,-2.8474,-2.9007,-2.8989,-2.8994,-2.9012,-2.8992,-2.9221,-2.9453,-2.9493,-2.9603,-2.9696,-2.9696,-2.9696,-2.9696,-2.9696,-2.9696,-2.9782,-3.0026,-3.0534,-3.1031,-3.1366,-3.2839,-3.3827,-3.3865,-3.4875,-3.5493,-3.5493,-3.5493,-3.5493,-3.5493,-3.5493,-3.5493,-3.5479,-3.5479,-3.5207,-3.4694,-3.4694,-3.4694,-3.4694,-3.4694,-3.4694,-0.8631,-0.5895,-0.2967,-0.086,0.1657,0.4249,0.6551,0.7812,0.9116,1.1322,1.2451,1.3252,1.4025,1.4628,1.505,1.5352,1.541,1.541,1.541,1.541,1.541,1.541,1.541,1.541,1.541,1.541,1.4932,1.3846,1.3304,1.2128,1.0186,0.8726,0.6763,0.4056,0.1393,-0.1723,-0.5259,-0.7593,-0.933,-1.0551,-1.2724,-1.4186,-1.4974,-1.6926,-1.8407,-1.9364,-2.0935,-2.1771,-2.2035,-2.2512,-2.2934,-2.329,-2.3508,-2.3794,-2.4142,-2.4275,-2.4784,-2.5535,-2.6409,-2.6716,-2.6792,-2.7299,-2.7478,-2.7486,-2.7631,-2.7657,-2.77,-2.7876,-2.7996,-2.8109,-2.8185,-2.8615,-2.9053,-2.9274,-2.9323,-2.9334,-2.9432,-2.9476,-2.9548,-2.9717,-2.9815,-2.9958,-3.0128,-3.0142,-3.0142,-3.0142,-3.018,-3.0226,-3.0254,-3.0489,-3.0882,-3.1487,-3.2133,-3.2957,-3.4026,-3.4491,-3.496,-3.5545,-3.5526,-3.5493,-3.5493,-3.5493,-3.5493,-3.5493,-3.5493,-3.5417,-3.5207,-3.5207,-3.5207,-3.5207,-3.5207,-3.5207,-1.0664,-0.8043,-0.5298,-0.3468,-0.1052,0.1584,0.42,0.5531,0.6919,0.9497,1.0691,1.1628,1.2769,1.3622,1.4523,1.5565,1.5758,1.5864,1.6073,1.614,1.614,1.614,1.614,1.614,1.614,1.614,1.5718,1.465,1.3811,1.2525,1.0607,0.8907,0.6355,0.2786,0.0066,-0.3177,-0.7107,-0.8815,-1.0084,-1.0996,-1.3434,-1.4964,-1.5713,-1.7921,-1.9571,-2.0709,-2.2275,-2.286,-2.2694,-2.292,-2.3246,-2.3595,-2.3794,-2.4074,-2.4455,-2.4736,-2.4933,-2.5209,-2.6269,-2.6842,-2.719,-2.7735,-2.7957,-2.8035,-2.8163,-2.8167,-2.8078,-2.8083,-2.8164,-2.8354,-2.8639,-2.8965,-2.9277,-2.9425,-2.951,-2.9589,-2.9677,-2.9748,-2.9867,-3.0029,-3.009,-3.0215,-3.0424,-3.0448,-3.0448,-3.0467,-3.0506,-3.0521,-3.0482,-3.0505,-3.0737,-3.1275,-3.1621,-3.2285,-3.3409,-3.4036,-3.4615,-3.5185,-3.5435,-3.5584,-3.5584,-3.5584,-3.5584,-3.5584,-3.5584,-3.5584,-3.5584,-3.5526,-3.5493,-3.5493,-3.5493,-3.5493,0.0,0.0,0.0,-0.7039,-0.469,-0.2038,0.0521,0.1833,0.3228,0.5933,0.7085,0.8228,1.0008,1.1009,1.2575,1.5793,1.6415,1.6698,1.7468,1.7578,1.7578,1.7578,1.7578,1.7578,1.7578,1.7578,1.6991,1.5476,1.4585,1.3082,1.0662,0.8843,0.548,0.0199,-0.2588,-0.5308,-0.7957,-0.9666,-1.0989,-1.1888,-1.4241,-1.5713,-1.6419,-1.873,-2.0695,-2.2392,-2.3199,-2.3216,-2.2785,-2.3406,-2.3638,-2.3724,-2.4241,-2.443,-2.4511,-2.5051,-2.5443,-2.5834,-2.6354,-2.7154,-2.7888,-2.79,-2.806,-2.8213,-2.823,-2.8078,-2.7992,-2.8342,-2.8446,-2.8578,-2.923,-2.9551,-2.9643,-2.9474,-2.957,-2.9713,-2.9713,-3.0067,-3.0409,-3.0412,-3.0398,-3.0448,-3.0564,-3.0544,-3.0525,-3.0583,-3.0602,-3.0586,-3.0601,-3.0597,-3.0606,-3.0595,-3.1357,-3.1883,-3.1897,-3.3446,-3.4445,-3.4501,-3.5232,-3.5674,-3.5694,-3.5694,-3.5694,-3.5694,-3.5694,-3.5694,-3.5694,-3.5565,-3.5526,-3.5526,-3.5526,-3.5526,-1.4897,0.0,0.0,0.0,0.0,0.0,-0.3062,-0.172,-0.0191,0.2993,0.3819,0.4706,0.71,0.7741,0.8786,1.1526,1.4028,1.5918,1.6698,1.7246,1.7578,1.7578,1.7578,1.7578,1.7578,1.7578,1.718,1.6224,1.4896,1.3322,1.1443,0.7421,0.3511,0.0133,-0.2588,-0.5308,-0.7957,-1.0266,-1.2058,-1.3468,-1.5816,-1.7269,-1.8058,-2.0139,-2.1349,-2.1885,-2.3488,-2.4085,-2.396,-2.4536,-2.4752,-2.4776,-2.4934,-2.5221,-2.5598,-2.5988,-2.6421,-2.6933,-2.7357,-2.7683,-2.7946,-2.8174,-2.8281,-2.8388,-2.8681,-2.8737,-2.8749,-2.9038,-2.9104,-2.9191,-2.9514,-2.9661,-2.9731,-2.9813,-2.9877,-2.9954,-3.0155,-3.0299,-3.0388,-3.0398,-3.0401,-3.0398,-3.0448,-3.0564,-3.0641,-3.066,-3.066,-3.0655,-3.0601,-3.0637,-3.0657,-3.0605,-3.0868,-3.1295,-3.1921,-3.2416,-3.3224,-3.4488,-3.4736,-3.5085,-3.5676,-3.5696,-3.5696,-3.5696,-3.5696,-3.5696,-3.5696,-3.5662,-3.5641,-3.5641,-3.5641,-3.5641,-1.7225,-1.5756,-1.4105,-1.311,0.0,0.0,-0.796,-0.6582,-0.4947,-0.2237,-0.1436,-0.0501,0.1744,0.2442,0.3508,0.61,0.9017,1.2121,1.5472,1.6269,1.6905,1.7938,1.807,1.8178,1.8501,1.8501,1.8058,1.7034,1.5763,1.3611,1.025,0.5856,0.2261,-0.0465,-0.3497,-0.6124,-0.8447,-1.1652,-1.3832,-1.5052,-1.7312,-1.9059,-2.026,-2.1732,-2.2775,-2.3525,-2.4578,-2.5166,-2.5379,-2.5878,-2.5826,-2.5496,-2.5848,-2.6182,-2.6522,-2.6931,-2.7296,-2.7589,-2.7992,-2.8174,-2.834,-2.87,-2.887,-2.8986,-2.9233,-2.9293,-2.9334,-2.9494,-2.9589,-2.9661,-2.9696,-2.9848,-2.9988,-2.9999,-3.0089,-3.0209,-3.0367,-3.0398,-3.0393,-3.04,-3.0394,-3.0398,-3.0398,-3.0544,-3.0692,-3.0773,-3.0775,-3.0775,-3.0735,-3.0754,-3.0779,-3.0726,-3.0759,-3.0996,-3.1501,-3.1873,-3.2519,-3.3535,-3.422,-3.4796,-3.5268,-3.5639,-3.5831,-3.5827,-3.582,-3.582,-3.582,-3.5728,-3.5695,-3.5695,-3.5695,-3.5695,-1.9813,-1.8372,-1.6849,-1.6738,-1.5649,0.0,-1.3411,-1.2153,-1.0608,-0.8812,-0.7883,-0.6894,-0.5111,-0.4148,-0.2909,-0.0427,0.1954,0.6053,1.3261,1.4611,1.5644,1.777,1.8282,1.8703,1.9347,1.9515,1.8992,1.7578,1.649,1.3464,0.7947,0.4426,0.1332,-0.1331,-0.4909,-0.7683,-0.9523,-1.3433,-1.5806,-1.6675,-1.8863,-2.0828,-2.26,-2.3314,-2.4538,-2.6035,-2.6087,-2.6368,-2.6757,-2.7224,-2.6852,-2.6044,-2.6877,-2.7174,-2.7252,-2.7798,-2.802,-2.8057,-2.841,-2.8693,-2.895,-2.9316,-2.9551,-2.9696,-2.9696,-2.9696,-2.9713,-2.9731,-2.9877,-2.9999,-2.9813,-3.0099,-3.0343,-3.0089,-3.0241,-3.0398,-3.0417,-3.0417,-3.0429,-3.0444,-3.0433,-3.0398,-3.0398,-3.0506,-3.0675,-3.088,-3.0897,-3.0898,-3.0898,-3.0898,-3.0898,-3.0898,-3.0898,-3.0898,-3.0898,-3.1601,-3.2109,-3.2187,-3.3594,-3.4512,-3.4687,-3.5449,-3.5908,-3.5988,-3.6008,-3.6008,-3.6008,-3.5813,-3.5735,-3.5735,-3.5735,-3.5735,-2.072,-2.0102,-1.9661,-1.9022,-1.865,0.0,-1.7387,-1.6957,-1.6267,-1.4535,-1.4063,-1.3412,-1.1672,-1.1238,-1.0455,-0.8508,-0.6818,-0.2327,0.7571,1.1337,1.3255,1.3726,1.5608,1.6881,1.7037,1.7643,1.7677,1.6765,1.4146,1.0932,0.7039,0.3468,0.0393,-0.2248,-0.6394,-0.9612,-1.1819,-1.4678,-1.7038,-1.8824,-2.0434,-2.2104,-2.3707,-2.4397,-2.526,-2.6286,-2.6717,-2.6943,-2.7085,-2.7865,-2.7712,-2.7063,-2.7554,-2.773,-2.7816,-2.8406,-2.8627,-2.868,-2.9243,-2.9476,-2.9532,-2.9625,-2.9661,-2.9696,-2.9696,-2.9696,-2.9729,-2.9893,-3.0122,-3.0311,-3.0273,-3.0343,-3.0398,-3.0323,-3.0405,-3.0506,-3.0544,-3.0564,-3.0612,-3.0777,-3.0579,-3.0398,-3.0398,-3.0506,-3.0667,-3.0869,-3.0899,-3.0898,-3.0898,-3.0898,-3.0898,-3.0898,-3.0898,-3.0898,-3.0898,-3.1055,-3.1445,-3.2168,-3.2519,-3.3281,-3.4648,-3.4863,-3.5273,-3.5991,-3.5991,-3.5991,-3.5991,-3.5951,-3.5932,-3.5932,-3.5932,-3.5932,-2.193,-2.1404,-2.1054,-2.0709,-2.0611,0.0,0.0,-1.9724,-1.9283,-1.872,-1.8304,-1.7879,-1.7245,-1.6609,-1.5762,-1.4707,-1.2779,-0.9509,-0.3942,0.1937,0.6782,0.9688,1.1592,1.3102,1.4363,1.5679,1.6074,1.538,1.1852,0.8799,0.669,0.2417,-0.0986,-0.3247,-0.7477,-1.0506,-1.2093,-1.5908,-1.8502,-1.9858,-2.21,-2.4011,-2.5466,-2.595,-2.665,-2.7455,-2.7736,-2.7853,-2.7906,-2.8494,-2.8536,-2.8222,-2.8384,-2.854,-2.8676,-2.9001,-2.9159,-2.9283,-2.9606,-2.9782,-2.9845,-2.9845,-2.9943,-3.0037,-3.0037,-3.0037,-3.0066,-3.0169,-3.0318,-3.0448,-3.0448,-3.0467,-3.0506,-3.0506,-3.0525,-3.056,-3.0588,-3.0598,-3.0628,-3.0723,-3.0615,-3.0525,-3.0629,-3.0625,-3.0625,-3.0742,-3.0759,-3.0765,-3.08,-3.0801,-3.082,-3.0898,-3.0898,-3.0898,-3.0898,-3.0898,-3.1094,-3.1523,-3.1953,-3.2578,-3.3418,-3.3848,-3.4459,-3.5295,-3.5723,-3.5922,-3.5845,-3.5845,-3.5903,-3.5996,-3.5996,-3.5996,-2.3123,-2.2483,-2.2072,-2.2197,-2.2165,-2.2118,0.0,0.0,0.0,-2.2033,-2.1661,-2.1393,-2.1823,-2.0997,-2.0193,-1.9894,-1.7786,-1.5927,-1.5273,-0.9252,-0.2491,0.3939,0.6139,0.806,1.0467,1.2546,1.3456,1.2682,0.8992,0.6273,0.5051,0.0194,-0.3457,-0.5549,-0.9439,-1.2158,-1.3512,-1.7839,-2.0439,-2.1451,-2.3911,-2.5814,-2.721,-2.7485,-2.8055,-2.8839,-2.8824,-2.8827,-2.8886,-2.913,-2.9229,-2.9267,-2.9169,-2.9286,-2.949,-2.9531,-2.9664,-2.9825,-2.9872,-2.9981,-3.0114,-3.0114,-3.026,-3.0448,-3.0448,-3.0448,-3.0448,-3.0448,-3.0487,-3.0518,-3.0516,-3.0546,-3.0606,-3.0579,-3.0588,-3.0604,-3.0584,-3.0597,-3.0599,-3.0609,-3.0604,-3.0643,-3.0801,-3.0719,-3.0598,-3.0609,-3.0599,-3.0625,-3.0699,-3.07,-3.0742,-3.0898,-3.0898,-3.0897,-3.0862,-3.0862,-3.0866,-3.0835,-3.1499,-3.1969,-3.2145,-3.2926,-3.3663,-3.4326,-3.5014,-3.5415,-3.5469,-3.5469,-3.5624,-3.5932,-3.5932,-3.5932,-2.4011,-2.345,-2.3478,-2.3945,-2.3721,-2.3636,-2.4585,0.0,-2.4122,-2.4673,0.0,-2.4666,-2.4705,0.0,0.0,-2.4461,-2.3152,-2.1568,-2.0044,-1.8643,-1.4697,-0.64,-0.1614,0.1706,0.3576,0.6675,0.8226,0.7394,0.48,0.2134,-0.0192,-0.4534,-0.837,-1.1337,-1.4201,-1.7055,-2.0004,-2.1393,-2.3209,-2.5441,-2.5782,-2.6753,-2.8237,-2.826,-2.8787,-2.9662,-2.9589,-2.9644,-2.9738,-2.9739,-2.9777,-2.981,-2.9681,-2.9683,-2.9776,-3.0026,-3.0156,-3.0272,-3.0437,-3.0496,-3.054,-3.054,-3.0552,-3.0583,-3.0583,-3.0583,-3.0583,-3.0583,-3.0583,-3.0582,-3.0591,-3.0594,-3.0592,-3.053,-3.056,-3.0581,-3.0525,-3.0565,-3.0607,-3.0588,-3.0593,-3.0617,-3.0628,-3.0619,-3.0601,-3.0598,-3.0593,-3.0632,-3.0702,-3.0696,-3.0742,-3.0898,-3.0898,-3.0852,-3.0723,-3.0721,-3.0703,-3.0642,-3.0725,-3.1139,-3.1904,-3.2766,-3.3276,-3.3355,-3.3467,-3.3885,-3.4629,-3.4629,-3.5018,-3.5735,-3.5735,-3.5735,-2.541,-2.4616,-2.4184,-2.4752,-2.4697,-2.4672,-2.5105,-2.5028,-2.5028,-2.5561,0.0,0.0,0.0,0.0,0.0,0.0,-2.5292,-2.4528,-2.4087,-2.27,-1.9191,-1.2325,-0.9017,-0.5599,-0.1249,0.0792,0.1536,0.0851,-0.1562,-0.3878,-0.576,-0.9542,-1.2255,-1.3561,-1.6407,-1.8707,-2.0294,-2.2634,-2.4438,-2.5724,-2.7154,-2.8281,-2.9091,-2.9326,-2.9748,-3.0247,-3.0232,-3.0239,-3.0294,-3.024,-3.0219,-3.0241,-3.0144,-3.011,-3.0111,-3.0219,-3.0355,-3.0479,-3.0567,-3.0602,-3.0579,-3.0553,-3.0581,-3.0587,-3.0514,-3.0536,-3.0591,-3.0552,-3.0574,-3.0594,-3.0596,-3.0604,-3.0599,-3.0554,-3.0575,-3.0581,-3.0561,-3.0552,-3.053,-3.0548,-3.0506,-3.0483,-3.0482,-3.0482,-3.0482,-3.0479,-3.0487,-3.0506,-3.0583,-3.0583,-3.0622,-3.0719,-3.0723,-3.0701,-3.0657,-3.0644,-3.064,-3.0598,-3.0598,-3.0762,-3.1139,-3.198,-3.2425,-3.2397,-3.2879,-3.3288,-3.357,-3.357,-3.4012,-3.4844,-3.5424,-3.5695,-2.6494,-2.5615,-2.4988,-2.5346,-2.5297,-2.5243,-2.5561,-2.5524,-2.5577,-2.6068,-2.6191,0.0,0.0,0.0,-2.6606,-2.6824,0.0,-2.6371,-2.6817,-2.5461,-2.2606,-1.7747,-1.5208,-1.199,-0.7234,-0.5936,-0.5604,-0.6014,-0.8416,-1.0297,-1.1336,-1.453,-1.6465,-1.6843,-1.9041,-2.0653,-2.1684,-2.4124,-2.5763,-2.6549,-2.836,-2.9458,-2.9876,-3.0171,-3.0426,-3.0625,-3.0601,-3.0589,-3.0614,-3.054,-3.0502,-3.0512,-3.0473,-3.0385,-3.0288,-3.033,-3.0464,-3.0601,-3.0601,-3.0601,-3.0589,-3.0545,-3.0566,-3.0584,-3.0485,-3.0527,-3.0582,-3.0542,-3.0566,-3.0593,-3.0596,-3.0603,-3.061,-3.0591,-3.0579,-3.0564,-3.0544,-3.0506,-3.0467,-3.0467,-3.0417,-3.0398,-3.0398,-3.0398,-3.0398,-3.0398,-3.0398,-3.0417,-3.0487,-3.051,-3.0527,-3.0583,-3.061,-3.0591,-3.0571,-3.0568,-3.0564,-3.0544,-3.0544,-3.0544,-3.0544,-3.1153,-3.146,-3.1417,-3.2256,-3.2788,-3.2891,-3.3141,-3.3699,-3.4564,-3.5064,-3.5411,-2.6824,-2.6262,-2.6205,-2.6032,-2.5577,-2.5449,-2.6436,-2.6297,-2.612,-2.659,-2.6691,-2.6691,-2.6691,-2.6691,-2.6808,-2.721,-2.7255,0.0,0.0,-2.7776,-2.6656,-2.378,-1.9665,-1.6664,-1.5665,-1.4043,-1.3065,-1.3055,-1.5422,-1.6906,-1.6942,-1.9433,-2.1468,-2.2771,-2.2944,-2.417,-2.6647,-2.6792,-2.7691,-2.9361,-2.9514,-2.9891,-3.0475,-3.054,-3.0629,-3.0694,-3.0563,-3.0587,-3.0683,-3.0554,-3.0535,-3.0587,-3.0587,-3.0483,-3.0327,-3.0459,-3.053,-3.0598,-3.0598,-3.0598,-3.0598,-3.0592,-3.061,-3.0595,-3.0581,-3.0602,-3.0606,-3.0594,-3.0592,-3.0594,-3.0606,-3.0606,-3.0575,-3.0518,-3.0506,-3.0487,-3.0417,-3.0398,-3.0398,-3.0398,-3.0398,-3.0398,-3.0398,-3.0398,-3.0398,-3.0398,-3.0398,-3.0417,-3.0487,-3.0506,-3.0537,-3.0595,-3.0595,-3.0575,-3.0518,-3.0506,-3.0487,-3.0398,-3.0398,-3.0398,-3.0398,-3.0417,-3.0448,-3.0436,-3.1295,-3.2122,-3.2891,-3.3737,-3.4603,-3.5449,-3.4622,-3.4699,-2.8882,-2.8213,-2.7498,-2.725,-2.705,-2.6881,-2.6725,-2.659,-2.6505,-2.6657,-2.6691,-2.6791,-2.7051,-2.7317,-2.753,-2.7678,-2.789,-2.8084,0.0,-2.8237,-2.7812,-2.6625,-2.3846,-2.1698,-2.0796,-1.9336,-1.875,-1.9364,-2.0459,-2.1498,-2.2441,-2.3345,-2.421,-2.5065,-2.5438,-2.6353,-2.7897,-2.8432,-2.9107,-2.9975,-3.017,-3.0387,-3.0633,-3.0619,-3.0644,-3.0693,-3.0611,-3.06,-3.0633,-3.0548,-3.0432,-3.0338,-3.0426,-3.033,-3.0156,-3.0453,-3.0507,-3.0414,-3.055,-3.0588,-3.0588,-3.055,-3.0565,-3.0587,-3.0481,-3.0527,-3.0587,-3.0549,-3.053,-3.053,-3.0529,-3.0506,-3.0467,-3.0448,-3.0417,-3.0417,-3.0398,-3.0398,-3.0398,-3.0398,-3.0398,-3.0398,-3.0398,-3.0398,-3.0398,-3.0398,-3.0398,-3.0398,-3.0417,-3.0292,-3.0174,-3.0194,-3.0194,-3.0194,-3.0174,-3.0318,-3.0679,-3.1237,-3.1256,-3.1506,-3.2025,-3.1889,-3.1785,-3.1785,-3.1895,-3.2115,-3.2381,-3.2665,-3.3254,-3.4108,-3.3993,-3.451,-3.0099,-2.961,-2.8986,-2.8526,-2.8562,-2.8457,-2.7553,-2.7446,-2.7425,-2.699,-2.7036,-2.721,-2.7487,-2.7725,-2.7954,-2.8047,-2.8264,-2.8446,0.0,-2.8615,-2.8515,-2.8308,-2.6778,-2.541,-2.4677,-2.3932,-2.3686,-2.4175,-2.4461,-2.5072,-2.6112,-2.6097,-2.6286,-2.6818,-2.7267,-2.7926,-2.8769,-2.9324,-2.9844,-3.0305,-3.0541,-3.0655,-3.0656,-3.0643,-3.0651,-3.0652,-3.0597,-3.0559,-3.0564,-3.0487,-3.0382,-3.028,-3.0369,-3.0241,-3.0047,-3.0407,-3.0448,-3.034,-3.0487,-3.0525,-3.0525,-3.0487,-3.0487,-3.0506,-3.0417,-3.0467,-3.0525,-3.0487,-3.0467,-3.0467,-3.0467,-3.0417,-3.0398,-3.0398,-3.0398,-3.0398,-3.0398,-3.0343,-3.0254,-3.0254,-3.0202,-3.0142,-3.0142,-3.0142,-3.0188,-3.0254,-3.0254,-3.0241,-3.0155,-3.0003,-2.9924,-2.9999,-2.9999,-3.0161,-3.0557,-3.104,-3.1488,-3.196,-3.1979,-3.2163,-3.2607,-3.2447,-3.2364,-3.2364,-3.2487,-3.2561,-3.2561,-3.2863,-3.3296,-3.3863,-3.4036,-3.4501]}]]